[[{"header":{"parameterUnit":"m.s-1","parameterCategory":1,"la1":31.0,"la2":29.5877,"lo1":-88.7671,"lo2":-86.6584,"dy":0.0162,"dx":0.0185,"nx":115,"ny":88,"refTime":"2026-04-12T12:00:00:Z","depth":0,"parameterNumber":2,"parameterNumberName":"U-component_of_WINDS"},"data":[0.0,0.0,0.0,0.0,0.0,0.0,0.0,0.0,0.0,0.0,0.0,0.0,0.0,0.0,0.0,0.0,0.0,0.0,0.0,0.0,0.0,0.0,0.0,0.0,0.0,0.0,0.0,0.0,0.0,0.0,0.0,0.0,0.0,0.0,0.0,0.0,0.0,0.0,0.0,0.0,0.0,0.0,0.0,0.0,0.0,0.0,0.0,0.0,0.0,0.0,0.0,0.0,0.0,0.0,0.0,0.0,0.0,0.0,0.0,0.0,0.0,0.0,0.0,0.0,0.0,0.0,0.0,0.0,0.0,0.0,0.0,0.0,0.0,0.0,0.0,0.0,0.0,0.0,0.0,0.0,0.0,0.0,0.0,0.0,0.0,0.0,0.0,0.0,0.0,0.0,0.0,0.0,0.0,0.0,0.0,0.0,0.0,0.0,0.0,0.0,0.0,0.0,0.0,0.0,0.0,0.0,0.0,0.0,0.0,0.0,0.0,0.0,0.0,0.0,0.0,0.0,0.0,0.0,0.0,0.0,0.0,0.0,0.0,0.0,0.0,0.0,0.0,0.0,0.0,0.0,0.0,0.0,0.0,0.0,0.0,0.0,0.0,0.0,0.0,0.0,0.0,0.0,0.0,0.0,0.0,0.0,0.0,0.0,0.0,0.0,0.0,0.0,0.0,0.0,0.0,0.0,0.0,0.0,0.0,0.0,0.0,0.0,0.0,0.0,0.0,0.0,0.0,0.0,0.0,0.0,0.0,0.0,0.0,0.0,0.0,0.0,0.0,0.0,0.0,0.0,0.0,0.0,0.0,0.0,0.0,0.0,0.0,0.0,0.0,0.0,0.0,0.0,0.0,0.0,0.0,0.0,0.0,0.0,0.0,0.0,0.0,0.0,0.0,0.0,0.0,0.0,0.0,0.0,0.0,0.0,0.0,0.0,0.0,0.0,0.0,0.0,0.0,0.0,0.0,0.0,0.0,0.0,0.0,0.0,0.0,0.0,0.0,0.0,0.0,0.0,0.0,0.0,0.0,0.0,0.0,0.0,0.0,0.0,0.0,0.0,0.0,0.0,0.0,0.0,0.0,0.0,0.0,0.0,0.0,0.0,0.0,0.0,0.0,0.0,0.0,0.0,0.0,0.0,0.0,0.0,0.0,0.0,0.0,0.0,0.0,0.0,0.0,0.0,0.0,0.0,0.0,0.0,0.0,0.0,0.0,0.0,0.0,0.0,0.0,0.0,0.0,0.0,0.0,0.0,0.0,0.0,0.0,0.0,0.0,0.0,0.0,0.0,0.0,0.0,0.0,0.0,0.0,0.0,0.0,0.0,0.0,0.0,0.0,0.0,0.0,0.0,0.0,0.0,0.0,0.0,0.0,0.0,0.0,0.0,0.0,0.0,0.0,0.0,0.0,0.0,0.0,0.0,0.0,0.0,0.0,0.0,0.0,0.0,0.0,0.0,0.0,0.0,0.0,0.0,0.0,0.0,0.0,0.0,0.0,0.0,0.0,0.0,0.0,0.0,0.0,0.0,0.0,0.0,0.0,0.0,0.0,0.0,0.0,0.0,0.0,0.0,0.0,0.0,0.0,0.0,0.0,0.0,0.0,0.0,0.0,0.0,0.0,0.0,0.0,0.0,0.0,0.0,0.0,0.0,0.0,0.0,0.0,0.0,0.0,0.0,0.0,0.0,0.0,0.0,0.0,0.0,0.0,0.0,0.0,0.0,0.0,0.0,0.0,0.0,0.0,0.0,0.0,0.0,0.0,0.0,0.0,0.0,0.0,0.0,0.0,0.0,0.0,0.0,0.0,0.0,0.0,0.0,0.0,0.0,0.0,0.0,0.0,0.0,0.0,0.0,0.0,0.0,0.0,0.0,0.0,0.0,0.0,0.0,0.0,0.0,0.0,0.0,0.0,0.0,0.0,0.0,0.0,0.0,0.0,0.0,0.0,0.0,0.0,0.0,0.0,0.0,0.0,0.0,0.0,0.0,0.0,0.0,0.0,0.0,0.0,0.0,0.0,0.0,0.0,0.0,0.0,0.0,0.0,0.0,0.0,0.0,0.0,0.0,0.0,0.0,0.0,0.0,0.0,0.0,0.0,0.0,0.0,0.0,0.0,0.0,0.0,0.0,0.0,0.0,0.0,0.0,0.0,0.0,0.0,0.0,0.0,0.0,0.0,0.0,0.0,0.0,0.0,0.0,0.0,0.0,0.0,0.0,0.0,0.0,0.0,0.0,0.0,0.0,0.0,0.0,0.0,0.0,0.0,0.0,0.0,0.0,0.0,0.0,0.0,0.0,0.0,0.0,0.0,0.0,0.0,0.0,0.0,0.0,0.0,0.0,0.0,0.0,0.0,0.0,0.0,0.0,0.0,0.0,0.0,0.0,0.0,0.0,0.0,0.0,0.0,0.0,0.0,0.0,0.0,0.0,0.0,0.0,0.0,0.0,0.0,0.0,0.0,0.0,0.0,0.0,0.0,0.0,0.0,0.0,0.0,0.0,0.0,0.0,0.0,0.0,0.0,0.0,0.0,0.0,0.0,0.0,0.0,0.0,0.0,0.0,0.0,0.0,0.0,0.0,0.0,0.0,0.0,0.0,0.0,0.0,0.0,0.0,0.0,0.0,0.0,0.0,0.0,0.0,0.0,0.0,0.0,0.0,0.0,0.0,0.0,0.0,0.0,0.0,0.0,0.0,0.0,0.0,0.0,0.0,0.0,0.0,0.0,0.0,0.0,0.0,0.0,0.0,0.0,0.0,0.0,0.0,0.0,0.0,0.0,0.0,0.0,0.0,0.0,0.0,0.0,0.0,0.0,0.0,0.0,0.0,0.0,0.0,0.0,0.0,0.0,0.0,0.0,0.0,0.0,0.0,0.0,0.0,0.0,0.0,0.0,0.0,0.0,0.0,0.0,0.0,0.0,0.0,0.0,0.0,0.0,0.0,0.0,0.0,0.0,0.0,0.0,0.0,0.0,0.0,0.0,0.0,0.0,0.0,0.0,0.0,0.0,0.0,0.0,0.0,0.0,0.0,0.0,0.0,0.0,0.0,0.0,0.0,0.0,0.0,0.0,0.0,0.0,0.0,0.0,0.0,0.0,0.0,0.0,0.0,0.0,0.0,0.0,0.0,0.0,0.0,0.0,0.0,0.0,0.0,0.0,0.0,0.0,0.0,0.0,0.0,0.0,0.0,0.0,0.0,0.0,0.0,0.0,0.0,0.0,0.0,0.0,0.0,0.0,0.0,0.0,0.0,0.0,0.0,0.0,0.0,0.0,0.0,0.0,0.0,0.0,0.0,0.0,0.0,0.0,0.0,0.0,0.0,0.0,0.0,0.0,0.0,0.0,0.0,0.0,0.0,0.0,0.0,0.0,0.0,0.0,0.0,0.0,0.0,0.0,0.0,0.0,0.0,0.0,0.0,0.0,0.0,0.0,0.0,0.0,0.0,0.0,0.0,0.0,0.0,0.0,0.0,0.0,0.0,0.0,0.0,0.0,0.0,0.0,0.0,0.0,0.0,0.0,0.0,0.0,0.0,0.0,0.0,0.0,0.0,0.0,0.0,0.0,0.0,0.0,0.0,0.0,0.0,0.0,0.0,0.0,0.0,0.0,0.0,0.0,0.0,0.0,0.0,0.0,0.0,0.0,0.0,0.0,0.0,0.0,0.0,0.0,0.0,0.0,0.0,0.0,0.0,0.0,0.0,0.0,0.0,0.0,0.0,0.0,0.0,0.0,0.0,0.0,0.0,0.0,0.0,0.0,0.0,0.0,0.0,0.0,0.0,0.0,0.0,0.0,0.0,0.0,0.0,0.0,0.0,0.0,0.0,0.0,0.0,0.0,0.0,0.0,0.0,0.0,0.0,0.0,0.0,0.0,0.0,0.0,0.0,0.0,0.0,0.0,0.0,0.0,0.0,0.0,0.0,0.0,0.0,0.0,0.0,0.0,0.0,0.0,0.0,0.0,0.0,0.0,0.0,0.0,0.0,0.0,0.0,0.0,0.0,0.0,0.0,0.0,0.0,0.0,0.0,0.0,0.0,0.0,0.0,0.0,0.0,0.0,0.0,0.0,0.0,0.0,0.0,0.0,0.0,0.0,0.0,0.0,0.0,0.0,0.0,0.0,0.0,0.0,0.0,0.0,0.0,0.0,0.0,0.0,0.0,0.0,0.0,0.0,0.0,0.0,0.0,0.0,0.0,0.0,0.0,0.0,0.0,0.0,0.0,0.0,0.0,0.0,0.0,0.0,0.0,0.0,0.0,0.0,0.0,-0.8114,0.0,0.0,0.0,0.0,0.0,0.0,0.0,0.0,0.0,0.0,0.0,0.0,0.0,0.0,0.0,0.0,0.0,0.0,0.0,0.0,0.0,0.0,0.0,0.0,0.0,0.0,0.0,0.0,0.0,0.0,0.0,0.0,0.0,0.0,0.0,0.0,0.0,0.0,0.0,0.0,0.0,0.0,0.0,0.0,0.0,0.0,0.0,0.0,0.0,0.0,0.0,0.0,0.0,0.0,0.0,0.0,0.0,0.0,0.0,0.0,0.0,0.0,0.0,0.0,0.0,0.0,0.0,0.0,0.0,0.0,0.0,0.0,0.0,0.0,0.0,0.0,0.0,0.0,0.0,0.0,0.0,0.0,0.0,0.0,0.0,0.0,0.0,0.0,0.0,0.0,0.0,0.0,0.0,0.0,0.0,0.0,0.0,0.0,0.0,0.0,0.0,0.0,0.0,0.0,0.0,0.0,0.0,0.0,0.0,0.0,-0.8451,-0.8299,-0.8302,-0.8276,-0.8209,0.0,0.0,0.0,0.0,0.0,0.0,0.0,0.0,0.0,0.0,0.0,0.0,0.0,0.0,0.0,0.0,0.0,0.0,0.0,0.0,0.0,0.0,0.0,0.0,0.0,0.0,0.0,0.0,0.0,0.0,0.0,0.0,0.0,0.0,0.0,0.0,0.0,0.0,0.0,0.0,0.0,0.0,0.0,0.0,0.0,0.0,0.0,0.0,0.0,0.0,0.0,0.0,0.0,0.0,0.0,0.0,0.0,0.0,0.0,0.0,0.0,0.0,0.0,0.0,0.0,0.0,0.0,0.0,0.0,0.0,0.0,0.0,0.0,0.0,0.0,0.0,0.0,0.0,0.0,0.0,0.0,0.0,0.0,0.0,0.0,0.0,0.0,0.0,0.0,0.0,0.0,0.0,0.0,0.0,0.0,0.0,0.0,0.0,0.0,0.0,0.0,0.0,0.0,0.0,0.0,0.0,0.0,0.0,0.0,0.0,0.0,0.0,-0.8512,-0.849,-0.8476,0.0,0.0,0.0,0.0,0.0,0.0,0.0,0.0,0.0,0.0,0.0,0.0,0.0,0.0,0.0,0.0,0.0,0.0,0.0,0.0,0.0,0.0,0.0,0.0,0.0,0.0,0.0,0.0,0.0,0.0,0.0,0.0,0.0,0.0,0.0,0.0,0.0,0.0,0.0,0.0,0.0,0.0,0.0,0.0,0.0,0.0,0.0,0.0,0.0,0.0,0.0,0.0,0.0,0.0,0.0,0.0,0.0,0.0,0.0,0.0,0.0,0.0,0.0,0.0,0.0,0.0,0.0,0.0,0.0,0.0,0.0,0.0,0.0,0.0,0.0,0.0,0.0,0.0,0.0,0.0,0.0,0.0,0.0,0.0,0.0,0.0,0.0,0.0,0.0,0.0,0.0,0.0,0.0,0.0,0.0,0.0,0.0,0.0,0.0,0.0,0.0,0.0,0.0,0.0,0.0,0.0,0.0,0.0,0.0,0.0,-0.8639,-0.9094,-0.9102,0.0,-0.9027,0.0,0.0,0.0,0.0,0.0,0.0,0.0,0.0,0.0,0.0,0.0,0.0,0.0,0.0,0.0,0.0,0.0,0.0,0.0,0.0,0.0,0.0,0.0,0.0,0.0,0.0,0.0,0.0,0.0,0.0,0.0,0.0,0.0,0.0,0.0,0.0,0.0,0.0,0.0,0.0,0.0,0.0,0.0,0.0,0.0,0.0,0.0,0.0,0.0,0.0,0.0,0.0,0.0,0.0,0.0,0.0,0.0,0.0,0.0,0.0,0.0,0.0,0.0,0.0,0.0,0.0,0.0,0.0,0.0,0.0,0.0,0.0,0.0,0.0,0.0,0.0,0.0,0.0,0.0,0.0,0.0,0.0,0.0,0.0,0.0,0.0,0.0,0.0,0.0,0.0,0.0,0.0,0.0,0.0,0.0,0.0,0.0,0.0,0.0,0.0,0.0,0.0,0.0,0.0,0.0,0.0,0.0,0.0,0.0,0.0,-0.9118,-0.9384,-0.9384,-0.9302,0.0,0.0,0.0,0.0,0.0,0.0,0.0,0.0,0.0,0.0,0.0,0.0,0.0,0.0,0.0,0.0,0.0,0.0,0.0,0.0,0.0,0.0,0.0,0.0,0.0,0.0,0.0,0.0,0.0,0.0,0.0,0.0,0.0,0.0,0.0,0.0,0.0,0.0,0.0,0.0,0.0,0.0,0.0,0.0,0.0,0.0,0.0,0.0,0.0,0.0,0.0,0.0,0.0,0.0,0.0,0.0,0.0,0.0,0.0,0.0,0.0,0.0,0.0,0.0,0.0,0.0,0.0,0.0,0.0,0.0,0.0,0.0,0.0,0.0,0.0,0.0,0.0,0.0,0.0,0.0,0.0,0.0,0.0,0.0,0.0,0.0,0.0,0.0,0.0,0.0,0.0,0.0,0.0,0.0,0.0,0.0,0.0,0.0,0.0,0.0,0.0,0.0,0.0,0.0,0.0,0.0,0.0,0.0,0.0,0.0,-0.9283,-0.9522,-0.9729,-0.9692,-0.9491,-0.9142,0.0,0.0,0.0,0.0,0.0,0.0,0.0,0.0,0.0,0.0,0.0,0.0,0.0,0.0,0.0,0.0,0.0,0.0,0.0,0.0,0.0,0.0,0.0,0.0,0.0,0.0,0.0,0.0,0.0,0.0,0.0,0.0,0.0,0.0,0.0,0.0,0.0,0.0,0.0,0.0,0.0,0.0,0.0,0.0,0.0,0.0,0.0,0.0,0.0,0.0,0.0,0.0,0.0,0.0,0.0,0.0,0.0,0.0,0.0,0.0,0.0,0.0,0.0,0.0,0.0,0.0,0.0,0.0,0.0,0.0,0.0,0.0,0.0,0.0,0.0,0.0,0.0,0.0,0.0,0.0,0.0,0.0,0.0,0.0,0.0,0.0,0.0,0.0,0.0,0.0,0.0,0.0,0.0,0.0,0.0,0.0,0.0,0.0,0.0,0.0,0.0,0.0,0.0,0.0,0.0,0.0,0.0,0.0,0.0,-0.9799,-0.9777,-1.0333,-1.0175,-0.9799,0.0,0.0,0.0,0.0,0.0,0.0,0.0,0.0,0.0,0.0,0.0,0.0,0.0,0.0,0.0,0.0,0.0,0.0,0.0,0.0,0.0,0.0,0.0,0.0,0.0,0.0,0.0,0.0,0.0,0.0,0.0,0.0,0.0,0.0,0.0,0.0,0.0,0.0,0.0,0.0,0.0,0.0,0.0,0.0,0.0,0.0,0.0,0.0,0.0,0.0,0.0,0.0,0.0,0.0,0.0,0.0,0.0,0.0,0.0,0.0,0.0,0.0,0.0,0.0,0.0,0.0,0.0,0.0,0.0,0.0,0.0,0.0,0.0,0.0,0.0,0.0,0.0,0.0,0.0,0.0,0.0,0.0,0.0,0.0,0.0,0.0,0.0,0.0,0.0,0.0,0.0,0.0,0.0,0.0,0.0,0.0,0.0,0.0,0.0,0.0,0.0,0.0,0.0,0.0,0.0,0.0,0.0,0.0,0.0,-0.9137,-0.9325,-0.9923,-1.089,-1.0117,-0.9694,0.0,0.0,0.0,0.0,0.0,0.0,0.0,0.0,0.0,0.0,0.0,0.0,0.0,0.0,0.0,0.0,0.0,0.0,0.0,0.0,0.0,0.0,0.0,0.0,0.0,0.0,0.0,0.0,0.0,0.0,0.0,0.0,0.0,0.0,0.0,0.0,0.0,0.0,0.0,0.0,0.0,0.0,0.0,0.0,0.0,0.0,0.0,0.0,0.0,0.0,0.0,0.0,0.0,0.0,0.0,0.0,0.0,0.0,0.0,0.0,0.0,0.0,0.0,0.0,0.0,0.0,0.0,0.0,0.0,0.0,0.0,0.0,0.0,0.0,0.0,0.0,0.0,0.0,0.0,0.0,0.0,0.0,0.0,0.0,0.0,0.0,0.0,0.0,0.0,0.0,0.0,0.0,0.0,0.0,0.0,0.0,0.0,0.0,0.0,0.0,0.0,0.0,0.0,0.0,0.0,0.0,0.0,0.0,0.0,-0.9138,0.0,-1.0438,0.0,-1.0174,-0.9632,0.0,0.0,0.0,0.0,0.0,0.0,0.0,0.0,0.0,0.0,0.0,0.0,0.0,0.0,0.0,0.0,0.0,0.0,0.0,0.0,0.0,0.0,0.0,0.0,0.0,0.0,0.0,0.0,0.0,0.0,0.0,0.0,0.0,0.0,0.0,0.0,0.0,0.0,0.0,0.0,0.0,0.0,0.0,0.0,0.0,0.0,0.0,0.0,0.0,0.0,0.0,0.0,0.0,0.0,0.0,0.0,0.0,0.0,0.0,0.0,0.0,0.0,0.0,0.0,0.0,0.0,0.0,0.0,0.0,0.0,0.0,0.0,0.0,0.0,0.0,0.0,0.0,0.0,0.0,0.0,0.0,0.0,0.0,0.0,0.0,0.0,0.0,0.0,0.0,0.0,0.0,0.0,0.0,0.0,0.0,0.0,0.0,0.0,0.0,0.0,0.0,0.0,0.0,0.0,0.0,0.0,0.0,0.0,-0.9241,-1.0606,-1.1226,-1.124,-1.0648,-1.0397,-0.964,0.0,0.0,0.0,0.0,0.0,0.0,0.0,0.0,0.0,0.0,0.0,0.0,0.0,0.0,0.0,0.0,0.0,0.0,0.0,0.0,0.0,0.0,0.0,0.0,0.0,0.0,0.0,0.0,0.0,0.0,0.0,0.0,0.0,0.0,0.0,0.0,0.0,0.0,0.0,0.0,0.0,0.0,0.0,0.0,0.0,0.0,0.0,0.0,0.0,0.0,0.0,0.0,0.0,0.0,0.0,0.0,0.0,0.0,0.0,0.0,0.0,0.0,0.0,0.0,0.0,0.0,0.0,0.0,0.0,0.0,0.0,0.0,0.0,0.0,0.0,0.0,0.0,0.0,0.0,0.0,0.0,0.0,0.0,0.0,0.0,0.0,0.0,0.0,0.0,0.0,0.0,0.0,0.0,0.0,0.0,0.0,0.0,0.0,0.0,0.0,0.0,0.0,0.0,0.0,0.0,0.0,0.0,0.0,0.0,-0.9974,-1.1041,-1.1684,-1.1784,-1.0436,-0.9844,0.0,0.0,0.0,0.0,0.0,0.0,0.0,0.0,0.0,0.0,0.0,0.0,0.0,0.0,0.0,0.0,0.0,0.0,0.0,0.0,0.0,0.0,0.0,0.0,0.0,0.0,0.0,0.0,0.0,0.0,0.0,0.0,0.0,0.0,0.0,0.0,0.0,0.0,0.0,0.0,0.0,0.0,0.0,0.0,0.0,0.0,0.0,0.0,0.0,0.0,0.0,0.0,0.0,0.0,0.0,0.0,0.0,0.0,0.0,0.0,0.0,0.0,0.0,0.0,0.0,0.0,0.0,0.0,0.0,0.0,0.0,0.0,0.0,0.0,0.0,0.0,0.0,0.0,0.0,0.0,0.0,0.0,0.0,0.0,0.0,0.0,0.0,0.0,0.0,0.0,0.0,0.0,0.0,0.0,0.0,0.0,0.0,0.0,0.0,0.0,0.0,0.0,0.0,0.0,0.0,0.0,0.0,0.0,0.0,-1.0857,-1.1873,-1.2345,-1.2101,-1.0613,-1.0001,-1.0382,0.0,0.0,0.0,0.0,0.0,0.0,0.0,0.0,0.0,0.0,0.0,0.0,0.0,0.0,0.0,0.0,0.0,0.0,0.0,0.0,0.0,0.0,0.0,0.0,0.0,0.0,0.0,0.0,0.0,0.0,0.0,0.0,0.0,0.0,0.0,0.0,0.0,0.0,0.0,0.0,0.0,0.0,0.0,0.0,0.0,0.0,0.0,0.0,0.0,0.0,0.0,0.0,0.0,0.0,0.0,0.0,0.0,0.0,0.0,0.0,0.0,0.0,0.0,0.0,0.0,0.0,0.0,0.0,0.0,0.0,0.0,0.0,0.0,0.0,0.0,0.0,0.0,0.0,0.0,0.0,0.0,0.0,0.0,0.0,0.0,0.0,0.0,0.0,0.0,0.0,0.0,0.0,0.0,0.0,0.0,0.0,0.0,0.0,0.0,0.0,0.0,0.0,0.0,0.0,0.0,0.0,0.0,0.0,-1.2843,-1.3615,-1.3306,-1.1864,-1.1004,-1.0208,0.0,0.0,0.0,0.0,0.0,0.0,0.0,0.0,0.0,0.0,0.0,0.0,0.0,0.0,0.0,0.0,0.0,0.0,0.0,0.0,0.0,0.0,0.0,0.0,0.0,0.0,0.0,0.0,0.0,0.0,0.0,0.0,0.0,0.0,0.0,0.0,0.0,0.0,0.0,0.0,0.0,0.0,0.0,0.0,0.0,0.0,0.0,0.0,0.0,0.0,0.0,0.0,0.0,0.0,0.0,0.0,0.0,0.0,0.0,0.0,0.0,0.0,0.0,0.0,0.0,0.0,0.0,0.0,0.0,0.0,0.0,0.0,0.0,0.0,0.0,0.0,0.0,0.0,0.0,0.0,0.0,0.0,0.0,0.0,0.0,0.0,0.0,0.0,0.0,0.0,0.0,0.0,0.0,0.0,0.0,0.0,0.0,0.0,0.0,0.0,0.0,0.0,0.0,0.0,0.0,0.0,0.0,0.0,0.0,-1.3615,-1.481,-1.4943,-1.3898,-1.217,-1.1099,0.0,0.0,0.0,0.0,0.0,0.0,0.0,0.0,0.0,0.0,0.0,0.0,0.0,0.0,0.0,0.0,0.0,0.0,0.0,0.0,0.0,0.0,0.0,0.0,0.0,0.0,0.0,0.0,0.0,0.0,0.0,0.0,0.0,0.0,0.0,0.0,0.0,0.0,0.0,0.0,0.0,0.0,0.0,0.0,0.0,0.0,0.0,0.0,0.0,0.0,0.0,0.0,0.0,0.0,0.0,0.0,0.0,0.0,0.0,0.0,0.0,0.0,0.0,0.0,0.0,0.0,0.0,0.0,0.0,0.0,0.0,0.0,0.0,0.0,0.0,0.0,0.0,0.0,0.0,0.0,0.0,0.0,0.0,0.0,0.0,0.0,0.0,0.0,0.0,0.0,0.0,0.0,0.0,0.0,0.0,0.0,0.0,0.0,0.0,0.0,0.0,0.0,0.0,0.0,0.0,0.0,0.0,0.0,-1.3459,-1.4746,-1.5269,-1.5293,-1.4785,-1.3285,-1.198,0.0,0.0,0.0,0.0,0.0,0.0,0.0,0.0,0.0,0.0,0.0,0.0,0.0,0.0,0.0,0.0,0.0,0.0,0.0,0.0,0.0,0.0,0.0,0.0,0.0,0.0,0.0,0.0,0.0,0.0,0.0,0.0,0.0,0.0,0.0,0.0,0.0,0.0,0.0,0.0,0.0,0.0,0.0,0.0,0.0,0.0,0.0,0.0,0.0,0.0,0.0,0.0,0.0,0.0,0.0,0.0,0.0,0.0,0.0,0.0,0.0,0.0,0.0,0.0,0.0,0.0,0.0,0.0,0.0,0.0,0.0,0.0,0.0,0.0,0.0,0.0,0.0,0.0,0.0,0.0,0.0,0.0,0.0,0.0,0.0,0.0,0.0,0.0,0.0,0.0,0.0,0.0,0.0,0.0,0.0,0.0,0.0,0.0,0.0,0.0,0.0,0.0,0.0,0.0,0.0,0.0,0.0,0.0,-1.3887,-1.582,-1.5404,-1.5064,-1.4891,-1.424,-1.2877,0.0,0.0,0.0,0.0,0.0,0.0,0.0,0.0,0.0,0.0,0.0,0.0,0.0,0.0,0.0,0.0,0.0,0.0,0.0,0.0,0.0,0.0,0.0,0.0,0.0,0.0,0.0,0.0,0.0,0.0,0.0,0.0,0.0,0.0,0.0,0.0,0.0,0.0,0.0,0.0,0.0,0.0,0.0,0.0,0.0,0.0,0.0,0.0,0.0,0.0,0.0,0.0,0.0,0.0,0.0,0.0,0.0,0.0,0.0,0.0,0.0,0.0,0.0,0.0,0.0,0.0,0.0,0.0,0.0,0.0,0.0,0.0,0.0,0.0,0.0,0.0,0.0,0.0,0.0,0.0,0.0,0.0,0.0,0.0,0.0,0.0,0.0,0.0,0.0,0.0,0.0,0.0,0.0,0.0,0.0,0.0,0.0,0.0,0.0,0.0,0.0,0.0,0.0,0.0,0.0,0.0,0.0,0.0,-1.4146,-1.5117,-1.6099,-1.6079,-1.4923,-1.4685,-1.3551,0.0,0.0,0.0,0.0,0.0,0.0,0.0,0.0,0.0,0.0,0.0,0.0,0.0,0.0,0.0,0.0,0.0,0.0,0.0,0.0,0.0,0.0,0.0,0.0,0.0,0.0,0.0,0.0,0.0,0.0,0.0,0.0,0.0,0.0,0.0,0.0,0.0,0.0,0.0,0.0,0.0,0.0,0.0,0.0,0.0,0.0,0.0,0.0,-0.2719,0.0,0.0,0.0,0.0,0.0,0.0,0.0,0.0,0.0,0.0,0.0,0.0,0.0,0.0,0.0,0.0,0.0,0.0,0.0,0.0,0.0,0.0,0.0,0.0,0.0,0.0,0.0,0.0,0.0,0.0,0.0,0.0,0.0,0.0,0.0,0.0,0.0,0.0,0.0,0.0,0.0,0.0,0.0,0.0,0.0,0.0,0.0,0.0,0.0,0.0,0.0,0.0,0.0,0.0,0.0,0.0,0.0,0.0,0.0,-1.5232,-1.5933,-1.6678,-1.6577,-1.5473,-1.5328,-1.4074,0.0,0.0,0.0,0.0,0.0,0.0,0.0,0.0,0.0,0.0,0.0,0.0,0.0,0.0,0.0,0.0,0.0,0.0,0.0,0.0,0.0,0.0,0.0,0.0,0.0,0.0,0.0,0.0,0.0,0.0,0.0,0.0,0.0,0.0,0.0,0.0,0.0,0.0,0.0,0.0,0.0,0.0,0.0,0.0,0.0,0.0,0.0,0.0,0.0,0.0,0.0,0.0,0.0,0.0,0.0,0.0,0.0,0.0,0.0,0.0,0.0,0.0,0.0,0.0,0.0,0.0,0.0,0.0,0.0,0.0,0.0,0.0,0.0,0.0,0.0,0.0,0.0,0.0,0.0,0.0,0.0,0.0,0.0,0.0,0.0,0.0,0.0,0.0,0.0,0.0,0.0,0.0,0.0,0.0,0.0,0.0,0.0,0.0,0.0,0.0,0.0,0.0,0.0,0.0,0.0,0.0,0.0,-1.4864,-1.618,-1.6901,-1.703,-1.6755,-1.603,-1.5875,-1.4526,-1.1926,0.0,0.0,0.0,0.0,0.0,0.0,0.0,0.0,0.0,0.0,0.0,0.0,0.0,0.0,0.0,0.0,0.0,0.0,0.0,0.0,0.0,0.0,0.0,0.0,0.0,0.0,0.0,0.0,0.0,0.0,0.0,0.0,0.0,0.0,0.0,0.0,0.0,0.0,-0.3944,-0.4723,0.0,0.0,0.0,0.0,0.0,0.0,0.0,0.0,-0.3891,0.0,0.0,0.0,0.0,0.0,0.0,0.0,0.0,0.0,0.0,0.0,0.0,0.0,0.0,0.0,0.0,0.0,0.0,0.0,0.0,0.0,0.0,0.0,0.0,0.0,0.0,0.0,0.0,0.0,0.0,0.0,0.0,0.0,0.0,0.0,0.0,0.0,0.0,0.0,0.0,0.0,0.0,0.0,0.0,0.0,0.0,0.0,0.0,0.0,0.0,0.0,0.0,0.0,0.0,0.0,0.0,-1.3696,-1.4621,-1.5436,-1.616,-1.6775,-1.6755,-1.6018,-1.5867,-1.4981,-1.3236,0.0,0.0,0.0,0.0,0.0,0.0,0.0,0.0,0.0,0.0,0.0,0.0,0.0,0.0,0.0,0.0,0.0,0.0,0.0,0.0,0.0,0.0,0.0,0.0,0.0,0.0,0.0,0.0,0.0,0.0,0.0,0.0,0.0,0.0,0.0,0.0,0.0,0.0,0.0,-0.5434,-0.5696,0.0,0.0,0.0,0.0,0.0,0.0,0.0,0.0,-0.3662,0.0,0.0,0.0,0.0,0.0,0.0,0.0,0.0,0.0,0.0,0.0,0.0,0.0,0.0,0.0,0.0,0.0,0.0,0.0,0.0,0.0,0.0,0.0,0.0,0.0,0.0,0.0,0.0,0.0,0.0,0.0,0.0,0.0,0.0,0.0,0.0,0.0,0.0,0.0,0.0,0.0,0.0,0.0,0.0,0.0,0.0,0.0,0.0,0.0,0.0,0.0,0.0,0.0,0.0,0.0,-1.3842,-1.4945,-1.582,-1.6548,-1.6917,-1.6933,-1.6548,-1.5746,-1.4925,0.0,0.0,0.0,0.0,0.0,0.0,0.0,0.0,0.0,0.0,0.0,0.0,0.0,0.0,0.0,0.0,0.0,0.0,0.0,0.0,0.0,0.0,0.0,0.0,0.0,0.0,0.0,0.0,0.0,0.0,0.0,0.0,0.0,0.0,0.0,0.0,0.0,0.0,0.0,0.0,-0.5685,-0.599,-0.5945,0.0,0.0,0.0,0.0,0.0,0.0,-0.4668,-0.4348,0.0,0.0,0.0,0.0,0.0,0.0,0.0,0.0,0.0,0.0,0.0,0.0,0.0,0.0,0.0,0.0,0.0,0.0,0.0,0.0,0.0,0.0,0.0,0.0,0.0,0.0,0.0,0.0,0.0,0.0,0.0,0.0,0.0,0.0,0.0,0.0,0.0,0.0,0.0,0.0,0.0,0.0,0.0,0.0,0.0,0.0,0.0,0.0,0.0,0.0,0.0,0.0,0.0,0.0,0.0,-1.3885,-1.5151,-1.622,-1.7047,-1.7095,-1.7095,-1.7079,-1.5887,-1.5032,0.0,0.0,0.0,0.0,0.0,0.0,0.0,0.0,0.0,0.0,0.0,0.0,0.0,0.0,0.0,0.0,0.0,0.0,0.0,0.0,0.0,0.0,0.0,0.0,0.0,0.0,0.0,0.0,0.0,0.0,0.0,0.0,0.0,0.0,0.0,0.0,0.0,0.0,0.0,0.0,0.0,-0.6298,-0.5859,-0.6141,0.0,0.0,0.0,0.0,-0.6007,-0.5555,0.0,0.0,0.0,0.0,0.0,0.0,0.0,0.0,0.0,0.0,0.0,0.0,0.0,0.0,0.0,0.0,0.0,0.0,0.0,0.0,0.0,0.0,0.0,0.0,0.0,0.0,0.0,0.0,0.0,0.0,0.0,0.0,0.0,0.0,0.0,0.0,0.0,0.0,0.0,0.0,0.0,0.0,0.0,0.0,0.0,0.0,0.0,0.0,0.0,0.0,0.0,0.0,0.0,0.0,0.0,0.0,-1.3826,-1.4638,-1.5695,-1.7014,-1.7095,-1.7095,-1.7095,-1.6763,-1.595,0.0,0.0,0.0,0.0,0.0,0.0,0.0,0.0,0.0,0.0,0.0,0.0,0.0,0.0,0.0,0.0,0.0,0.0,0.0,0.0,0.0,0.0,0.0,0.0,0.0,0.0,0.0,0.0,0.0,0.0,0.0,0.0,0.0,0.0,0.0,0.0,0.0,0.0,0.0,0.0,0.0,-0.6676,-0.6434,-0.6402,-0.6409,0.0,0.0,-0.571,-0.6326,-0.5884,0.0,0.0,0.0,0.0,0.0,0.0,0.0,0.0,0.0,0.0,0.0,0.0,0.0,0.0,0.0,0.0,0.0,0.0,0.0,0.0,0.0,0.0,0.0,0.0,0.0,0.0,0.0,0.0,0.0,0.0,0.0,0.0,0.0,0.0,0.0,0.0,0.0,0.0,0.0,0.0,0.0,0.0,0.0,0.0,0.0,0.0,0.0,0.0,0.0,0.0,0.0,0.0,0.0,0.0,0.0,-1.1942,-1.4379,-1.4745,-1.5625,-1.703,-1.7095,-1.7095,-1.7095,-1.6612,-1.5619,0.0,0.0,0.0,0.0,0.0,0.0,0.0,0.0,0.0,0.0,0.0,0.0,0.0,0.0,0.0,0.0,0.0,0.0,0.0,0.0,0.0,0.0,0.0,0.0,0.0,0.0,0.0,0.0,0.0,0.0,0.0,0.0,0.0,0.0,0.0,0.0,0.0,0.0,0.0,0.0,0.0,0.0,-0.6672,-0.6912,0.0,0.0,0.0,-0.7288,-0.7779,0.0,0.0,0.0,0.0,0.0,0.0,0.0,0.0,0.0,0.0,0.0,0.0,0.0,0.0,0.0,0.0,0.0,0.0,0.0,0.0,0.0,0.0,0.0,0.0,0.0,0.0,0.0,0.0,0.0,0.0,0.0,0.0,0.0,0.0,0.0,0.0,0.0,0.0,0.0,0.0,0.0,0.0,0.0,0.0,0.0,0.0,0.0,0.0,0.0,0.0,0.0,0.0,0.0,0.0,0.0,0.0,0.0,-1.4826,-1.4891,-1.5614,-1.7047,-1.7095,-1.7095,-1.7079,-1.6548,0.0,0.0,0.0,0.0,0.0,0.0,0.0,0.0,0.0,0.0,0.0,0.0,0.0,0.0,0.0,0.0,0.0,0.0,0.0,0.0,0.0,0.0,0.0,0.0,0.0,0.0,0.0,-0.3822,0.0,0.0,0.0,0.0,0.0,0.0,0.0,0.0,0.0,0.0,0.0,0.0,0.0,0.0,-0.6915,-0.6778,-0.7379,-0.819,0.0,0.0,-0.8471,-0.8569,-0.8325,-0.7777,0.0,0.0,0.0,0.0,0.0,0.0,0.0,0.0,0.0,0.0,0.0,0.0,0.0,0.0,0.0,0.0,0.0,0.0,0.0,0.0,0.0,0.0,0.0,0.0,0.0,0.0,0.0,0.0,0.0,0.0,0.0,0.0,0.0,0.0,0.0,0.0,0.0,0.0,0.0,0.0,0.0,0.0,0.0,0.0,0.0,0.0,0.0,0.0,0.0,0.0,0.0,0.0,0.0,0.0,0.0,-1.4778,-1.4891,-1.563,-1.703,-1.7095,-1.7095,-1.7095,-1.7063,-1.5967,0.0,0.0,0.0,0.0,0.0,0.0,0.0,0.0,0.0,0.0,0.0,0.0,0.0,0.0,0.0,0.0,0.0,0.0,0.0,0.0,0.0,0.0,0.0,0.0,0.0,0.0,0.0,0.0,0.0,0.0,0.0,0.0,0.0,0.0,0.0,0.0,0.0,0.0,0.0,0.0,0.0,-0.7412,-0.6791,-0.7691,-0.8817,0.0,0.0,-0.8334,-0.7865,-0.7771,-0.7463,-0.6673,0.0,0.0,0.0,0.0,0.0,0.0,0.0,0.0,0.0,0.0,0.0,0.0,0.0,0.0,0.0,0.0,0.0,0.0,0.0,0.0,0.0,0.0,0.0,0.0,0.0,0.0,0.0,0.0,0.0,0.0,0.0,0.0,0.0,0.0,0.0,0.0,0.0,0.0,0.0,0.0,0.0,0.0,0.0,0.0,0.0,0.0,0.0,0.0,0.0,0.0,0.0,0.0,0.0,-1.2691,-1.4859,-1.5462,-1.6191,-1.7059,-1.7095,-1.7095,-1.7095,-1.6662,-1.5591,0.0,0.0,0.0,0.0,0.0,0.0,0.0,0.0,0.0,0.0,0.0,0.0,0.0,0.0,0.0,0.0,0.0,0.0,0.0,0.0,0.0,0.0,0.0,0.0,0.0,0.0,0.0,0.0,-0.4279,-0.4611,-0.4712,0.0,0.0,0.0,0.0,0.0,0.0,0.0,0.0,0.0,0.0,-0.7548,-0.7833,-0.8452,0.0,0.0,-1.0169,-0.9739,-0.9582,-0.9421,-0.8963,-0.7957,-0.8078,0.0,0.0,0.0,0.0,0.0,0.0,0.0,0.0,0.0,0.0,0.0,0.0,0.0,0.0,0.0,0.0,0.0,0.0,0.0,0.0,0.0,0.0,0.0,0.0,0.0,0.0,0.0,0.0,0.0,0.0,0.0,0.0,0.0,0.0,0.0,0.0,0.0,0.0,0.0,0.0,0.0,0.0,0.0,0.0,0.0,0.0,0.0,0.0,0.0,0.0,0.0,0.0,-1.3123,-1.5038,-1.5901,-1.6639,-1.7236,-1.7191,-1.7162,-1.7134,-1.6406,-1.5323,0.0,0.0,0.0,0.0,0.0,0.0,0.0,0.0,0.0,0.0,0.0,0.0,0.0,0.0,0.0,0.0,0.0,0.0,0.0,0.0,0.0,0.0,0.0,0.0,0.0,0.0,0.0,0.0,-0.5158,-0.5521,-0.54,0.0,0.0,0.0,0.0,0.0,0.0,0.0,0.0,0.0,0.0,-0.8286,-0.8657,-0.9254,-1.0066,-1.1014,-1.0873,-1.0644,-1.0681,-1.056,-1.0183,-0.9387,0.0,0.0,0.0,0.0,0.0,0.0,0.0,0.0,0.0,0.0,0.0,0.0,0.0,0.0,0.0,0.0,0.0,0.0,0.0,0.0,0.0,0.0,0.0,0.0,0.0,0.0,0.0,0.0,0.0,0.0,-1.1395,0.0,0.0,0.0,0.0,0.0,0.0,0.0,0.0,0.0,0.0,0.0,0.0,0.0,0.0,0.0,0.0,0.0,0.0,0.0,0.0,0.0,0.0,-1.3337,-1.5345,-1.6134,-1.6853,-1.7544,-1.7392,-1.7284,-1.7268,-1.645,-1.5345,-1.3913,0.0,0.0,0.0,0.0,0.0,0.0,0.0,0.0,0.0,0.0,0.0,0.0,0.0,0.0,0.0,0.0,0.0,0.0,0.0,0.0,0.0,0.0,0.0,0.0,0.0,0.0,-0.6134,-0.6493,-0.6358,0.0,0.0,0.0,0.0,0.0,0.0,0.0,0.0,0.0,0.0,-0.949,-0.9844,-0.9083,-1.0175,-1.115,-1.133,-1.1007,-1.0745,-1.0758,-1.078,-1.0789,0.0,0.0,0.0,0.0,0.0,0.0,0.0,0.0,0.0,0.0,0.0,0.0,0.0,0.0,0.0,0.0,0.0,0.0,0.0,0.0,0.0,0.0,0.0,0.0,0.0,0.0,0.0,-1.6666,-1.5477,0.0,0.0,0.0,0.0,0.0,0.0,0.0,0.0,0.0,0.0,0.0,-1.8224,-1.9447,0.0,0.0,0.0,0.0,0.0,0.0,0.0,0.0,0.0,0.0,0.0,0.0,-1.4635,-1.5966,-1.6803,-1.7246,-1.7261,-1.7216,-1.7162,-1.7162,-1.6406,-1.5085,-1.317,0.0,0.0,0.0,0.0,0.0,0.0,0.0,0.0,0.0,0.0,0.0,0.0,0.0,0.0,0.0,0.0,0.0,0.0,0.0,0.0,0.0,0.0,0.0,0.0,0.0,-0.6772,0.0,0.0,0.0,0.0,0.0,0.0,0.0,0.0,0.0,0.0,0.0,-0.9419,-1.039,-1.0453,-1.0917,-1.235,-1.2477,-1.2638,0.0,0.0,0.0,0.0,0.0,0.0,0.0,0.0,0.0,0.0,0.0,0.0,0.0,0.0,-0.8425,-0.6546,-0.578,-0.5493,-0.5679,0.0,0.0,0.0,0.0,0.0,0.0,0.0,0.0,0.0,0.0,0.0,0.0,0.0,0.0,-1.9413,0.0,-1.7649,0.0,0.0,0.0,0.0,0.0,0.0,0.0,0.0,-2.017,-2.1078,-2.0906,-2.1888,-2.1716,0.0,-1.9717,-1.819,0.0,0.0,0.0,0.0,0.0,0.0,0.0,0.0,-1.5896,-1.7294,-1.7901,-1.8096,-1.7859,-1.7737,-1.7535,-1.7277,-1.6442,-1.5085,-1.3196,-1.287,-1.2045,0.0,0.0,0.0,0.0,0.0,0.0,0.0,0.0,0.0,0.0,0.0,0.0,0.0,0.0,0.0,0.0,0.0,0.0,0.0,0.0,0.0,0.0,0.0,-0.7993,0.0,0.0,0.0,0.0,0.0,0.0,0.0,0.0,0.0,-0.9134,-0.966,-1.0479,-1.1385,-1.133,-1.2077,-1.4519,0.0,0.0,0.0,0.0,0.0,0.0,0.0,-1.2968,-1.3371,-1.2924,-1.23,-1.1775,-1.118,-1.0714,-1.0538,0.0,0.0,-0.7675,-0.6797,-0.6428,-0.6586,-0.6299,-0.6175,-0.6656,-0.6773,-0.6905,0.0,0.0,0.0,0.0,0.0,0.0,0.0,0.0,-2.1359,-2.1527,0.0,-2.0475,0.0,0.0,0.0,0.0,0.0,-1.9809,0.0,0.0,-2.2457,-2.3181,-2.3819,-2.3853,-2.3491,-2.2836,-2.3388,-2.2578,-2.0308,-1.6055,0.0,0.0,0.0,0.0,0.0,0.0,-1.7104,-1.9212,-1.9315,-1.9315,-1.9293,-1.8956,-1.8394,-1.7594,-1.6544,-1.5366,-1.4031,-1.3297,-1.2821,-1.2655,-1.0768,0.0,0.0,0.0,0.0,0.0,0.0,0.0,0.0,0.0,0.0,0.0,0.0,0.0,0.0,0.0,0.0,0.0,0.0,0.0,0.0,-0.9567,0.0,0.0,0.0,0.0,0.0,0.0,0.0,0.0,0.0,0.0,-0.885,-1.0288,-1.1578,-1.1641,0.0,0.0,0.0,0.0,-1.4093,-1.5511,-1.4693,-1.4078,-1.4538,-1.3958,-1.3627,-1.4166,0.0,0.0,-1.1296,-1.1609,-1.1754,-1.119,-1.0932,-1.0718,-1.0334,-0.9563,-0.9276,-0.9664,-0.8854,-0.848,-0.8909,-0.8889,-0.9059,-2.8665,0.0,0.0,0.0,0.0,-2.5675,-2.6074,-2.673,-2.6301,-2.5747,-2.5042,-2.3888,0.0,0.0,0.0,0.0,0.0,0.0,-2.325,-2.4057,-2.4784,-2.5232,-2.5439,-2.5439,-2.506,-2.435,-2.3974,-2.346,-2.275,-2.0441,-1.7935,-1.5305,0.0,0.0,0.0,0.0,-1.8869,-1.9874,-1.9959,-1.987,-1.9735,-1.9071,-1.83,-1.7408,-1.6485,-1.5803,-1.541,-1.4702,-1.3818,-1.2821,-1.2685,0.0,0.0,0.0,0.0,0.0,0.0,0.0,0.0,0.0,0.0,0.0,0.0,0.0,0.0,0.0,0.0,0.0,0.0,0.0,-0.9572,-0.9142,-0.888,0.0,0.0,0.0,0.0,0.0,0.0,0.0,0.0,0.0,-1.1113,-1.1933,-1.3032,0.0,0.0,-1.4957,-1.625,-1.5687,-1.5455,-1.6292,-1.6027,0.0,-1.3775,-1.398,-1.4243,-1.3994,-1.3235,-1.2538,-1.2113,-1.1919,-1.169,-1.1197,-1.1129,-1.1092,-1.0839,-0.9888,-0.9215,-0.9212,-0.8864,-0.8559,-0.869,-0.8787,-0.8811,-3.4125,-3.1737,-2.9574,-2.8732,-2.8852,-2.901,-2.9432,-2.9967,-2.9637,-2.9086,-2.8299,-2.7247,-2.6023,-2.4678,-2.3612,0.0,0.0,0.0,-2.5594,-2.6352,-2.6816,-2.7161,-2.7437,-2.7438,-2.6919,-2.5919,-2.5436,-2.487,-2.4267,-2.3371,-2.1613,-1.9103,0.0,0.0,-1.8844,-1.9441,-2.0221,-2.1113,-2.0891,-2.0704,-2.0573,-1.9739,-1.8809,-1.7806,-1.7273,-1.669,-1.6014,-1.5279,-1.4503,-1.3666,-1.3239,-1.2549,0.0,0.0,0.0,0.0,0.0,0.0,0.0,0.0,0.0,0.0,0.0,-0.6722,-0.5671,0.0,0.0,0.0,-0.8682,-0.9902,-0.9627,-0.973,0.0,0.0,0.0,0.0,0.0,0.0,0.0,-1.2331,-1.3085,-1.3374,-1.2953,-1.3764,-1.441,-1.443,-1.442,-1.5045,-1.6783,0.0,-1.5943,-1.6888,-1.6841,-1.6228,-1.4885,-1.4872,-1.4794,-1.4073,-1.3649,-1.3277,-1.2994,-1.2353,-1.1826,-1.1774,-1.1634,-1.1468,-1.1381,-1.0584,-0.9923,-0.9848,-0.9712,-0.9581,-0.946,-0.9426,-0.9393,-3.9091,-3.7987,-3.3452,-3.1579,-3.1608,-3.1961,-3.2291,-3.2475,-3.1755,-3.1603,-3.1765,-3.0403,-2.9748,-2.9575,-2.8265,0.0,-2.766,-2.7592,-2.7971,-2.8644,-2.861,-2.8937,-2.9558,-2.9592,-2.8851,-2.7471,-2.7471,-2.6713,-2.5333,-2.5229,-2.4784,-2.3957,-2.1824,-2.1113,-2.1699,-2.1096,-2.144,-2.275,-2.2113,-2.1699,-2.1578,-2.0741,-1.9727,-1.8572,-1.8518,-1.7728,-1.6098,-1.5318,-1.4891,-1.4762,-1.2993,-1.2225,-1.2713,0.0,0.0,0.0,0.0,0.0,0.0,0.0,0.0,0.0,0.0,0.0,0.0,0.0,0.0,0.0,-0.9789,0.0,-0.9821,-1.1009,0.0,0.0,0.0,-1.1238,-1.2008,-1.2613,-1.3051,-1.3242,0.0,0.0,-1.4367,-1.5558,-1.5635,-1.3549,-1.3457,-1.451,-1.6972,-1.6348,-1.6072,-1.7529,-1.7383,-1.7092,-1.6629,-1.5959,-1.5152,-1.4372,-1.4228,-1.4105,-1.3839,-1.2946,-1.2388,-1.2794,-1.2419,-1.2021,-1.198,-1.1785,-1.1548,-1.1369,-1.1162,-1.0987,-1.0707,-1.0634,-1.0548,-4.0406,-3.9892,-3.9002,-3.7154,-3.4816,-3.4889,-3.446,-3.368,-3.3507,-3.312,-3.2628,-3.2248,-3.1783,-3.1231,-3.0869,-3.0713,-3.0696,-3.0127,-3.03,-3.0938,-3.0403,-3.0231,-3.0403,-3.042,-2.992,-2.9023,-2.8972,-2.8489,-2.7609,-2.7023,-2.635,-2.5525,-2.4439,-2.3681,-2.3319,-2.3695,-2.3767,-2.3529,-2.3371,-2.2733,-2.163,-2.1238,-2.0343,-1.8927,-1.8643,-1.779,-1.629,-1.538,-1.4659,-1.4173,-1.4136,-1.3747,-1.2834,-1.2306,0.0,0.0,0.0,0.0,0.0,0.0,0.0,0.0,0.0,-0.9974,-0.7693,0.0,-0.9297,0.0,-0.9322,-1.0226,-1.1124,-1.1171,0.0,0.0,-1.1408,-1.1628,-1.2832,-1.2766,-1.3175,-1.4609,-1.5206,-1.5586,-1.5838,-1.6323,-1.6181,-1.4991,-1.6663,-1.7529,-1.6188,-1.7022,-1.8058,-1.879,-1.8508,-1.7695,-1.6528,-1.5454,-1.4856,-1.4549,-1.4521,-1.4482,-1.4429,-1.4162,-1.3921,-1.3867,-1.3758,-1.3568,-1.3322,-1.327,-1.3206,-1.306,-1.2065,-1.1085,-1.1015,-1.1017,-1.0979,-4.2021,-4.1864,-4.2073,-4.0741,-3.8472,-3.8295,-3.7738,-3.6923,-3.638,-3.5609,-3.4685,-3.3794,-3.3214,-3.2835,-3.2817,-3.28,-3.2783,-3.2405,-3.2421,-3.2766,-3.2024,-3.1679,-3.1662,-3.1334,-3.0782,-3.0041,-3.0041,-2.9644,-2.8903,-2.8489,-2.7885,-2.7128,-2.6713,-2.6126,-2.5385,-2.5126,-2.4781,-2.4353,-2.3974,-2.325,-2.213,-2.1983,-2.131,-2.0079,-1.9837,-1.9165,-1.7935,-1.6784,-1.594,-1.549,-1.5185,-1.4642,-1.3779,-1.3443,-1.294,0.0,0.0,0.0,0.0,0.0,0.0,0.0,0.0,0.0,0.0,0.0,-1.0315,-0.9627,-1.0225,-1.096,-1.1761,-1.1844,-1.2166,-1.2905,-1.2797,-1.3065,-1.4074,-1.4016,-1.4236,-1.5184,-1.5506,-1.5701,-1.5899,-1.6581,-1.6881,-1.6365,-1.8187,-1.8803,-1.684,-1.7088,-1.8038,-1.9303,-1.8972,-1.8368,-1.7634,-1.6885,-1.6305,-1.6152,-1.5887,-1.5643,-1.5483,-1.5229,-1.4999,-1.4844,-1.4585,-1.4299,-1.4041,-1.3995,-1.3958,-1.3705,-1.3031,-1.2241,-1.1763,-1.1682,-1.1616,-4.3479,-4.3479,-4.3479,-4.2883,-4.1887,-4.1546,-4.1024,-4.0348,-3.9317,-3.8282,-3.7187,-3.5456,-3.4631,-3.4527,-3.4545,-3.4493,-3.4369,-3.4286,-3.4251,-3.4199,-3.3421,-3.3059,-3.3024,-3.23,-3.1593,-3.1007,-3.0886,-3.0403,-2.9679,-2.9661,-2.9282,-2.8575,-2.8454,-2.8075,-2.7402,-2.6006,-2.5264,-2.5143,-2.4353,-2.3595,-2.2854,-2.2854,-2.2357,-2.1387,-2.131,-2.0815,-1.982,-1.8533,-1.7729,-1.7439,-1.6271,-1.5468,-1.5103,-1.4508,-1.4086,0.0,-1.3119,0.0,0.0,0.0,0.0,0.0,0.0,0.0,0.0,-1.172,-1.1918,-1.1277,-1.1909,-1.2373,-1.2431,-1.3048,-1.369,-1.426,-1.4511,-1.484,-1.5349,-1.5612,-1.5692,-1.5522,-1.557,-1.56,-1.58,-1.6842,-1.7611,-1.7569,-1.8448,-1.8755,-1.7718,-1.7188,-1.7706,-1.932,-1.8939,-1.8675,-1.9158,-1.8844,-1.8334,-1.8176,-1.775,-1.7239,-1.6888,-1.6425,-1.6006,-1.5782,-1.5415,-1.4947,-1.4579,-1.455,-1.4452,-1.4331,-1.4197,-1.3769,-1.2863,-1.2597,-1.2323,-4.3479,-4.3479,-4.3479,-4.3371,-4.3171,-4.3076,-4.1886,-3.9997,-3.9778,-3.9363,-3.8834,-3.8092,-3.7409,-3.6874,-3.6874,-3.6512,-3.5852,-3.5249,-3.499,-3.4956,-3.4214,-3.3869,-3.3818,-3.3076,-3.2628,-3.2455,-3.1886,-3.1196,-3.0472,-3.0472,-3.0058,-2.9299,-2.8713,-2.8334,-2.8161,0.0,0.0,0.0,-2.5163,-2.4388,-2.3629,-2.3595,-2.2944,-2.1609,-2.1392,0.0,-1.9318,-1.8836,-1.8331,-1.7765,-1.7812,0.0,0.0,0.0,0.0,0.0,0.0,0.0,0.0,0.0,0.0,0.0,-1.3335,-1.3055,-1.1719,-1.2853,-1.3442,-1.2933,-1.4049,-1.4821,-1.4841,-1.5103,-1.5395,-1.5606,-1.5436,-1.5503,-1.5985,-1.6348,-1.6586,-1.6676,-1.6953,-1.7245,-1.7487,-1.8028,-1.8142,-1.7817,-1.7956,-1.7954,-1.7588,-1.8265,-1.8949,-1.9064,-1.872,-1.877,-1.9485,-1.8989,-1.8757,-1.9088,-1.9237,-1.8831,-1.8241,-1.8188,-1.7813,-1.7002,-1.6849,-1.6734,-1.6235,-1.615,-1.6043,-1.6072,-1.5856,-1.5304,-1.387,-1.354,-1.3483,-4.3479,0.0,-4.3479,-4.3479,0.0,-4.3479,-4.2686,-4.1353,-4.0958,-4.0217,-3.9269,-3.8799,-3.8387,-3.8047,-3.8047,-3.7633,-3.687,-3.6508,-3.6128,-3.5714,-3.4973,-3.4648,-3.4631,-3.3852,-3.3283,-3.2886,-3.2524,-3.1972,-3.1265,-3.1248,-3.0851,-3.0093,-2.9713,-2.9144,-2.8403,-2.7661,-2.6902,-2.6094,-2.5715,-2.4956,-2.3871,-2.3802,-2.3285,-2.2199,-2.2035,0.0,0.0,0.0,0.0,0.0,0.0,0.0,0.0,0.0,0.0,-1.5632,-1.5261,-1.5149,-1.5311,-1.5585,-1.5677,-1.5479,-1.5119,-1.4553,-1.3724,-1.4424,-1.4804,-1.4569,-1.5216,-1.5668,-1.5697,-1.5801,-1.6011,-1.6375,-1.6227,-1.6369,-1.7049,-1.7529,-1.7711,-1.7574,-1.772,-1.7924,-1.808,-1.8211,-1.8218,-1.7986,-1.7861,-1.78,-1.7707,-1.8144,-1.8534,-1.8667,-1.8605,-1.877,-1.9399,-1.9336,-1.9121,-1.9518,-1.9584,-1.9452,-1.9105,-1.8952,-1.8649,-1.804,-1.772,-1.7391,-1.7125,-1.6904,-1.6751,-1.6623,-1.6394,-1.6006,-1.5112,-1.4619,-1.4197,-4.3479,-4.3479,-4.3479,-4.3479,-4.3479,-4.3479,-4.3322,-4.2958,0.0,0.0,0.0,-3.9215,-3.8945,-3.8801,-3.8784,-3.837,-3.7702,-3.7564,-3.7129,-3.649,-3.5732,-3.5387,-3.5352,-3.4648,-3.3938,-3.3335,-3.3162,-3.2731,-3.2007,-3.199,-3.1627,-3.0938,-3.0765,-2.992,-2.8454,-2.7799,-2.7109,-2.6368,-2.6301,-2.5628,-2.4267,-2.4215,-2.3784,-2.2923,-2.2888,-2.2543,-2.182,-2.1165,-2.0455,-1.9684,-1.9057,-1.8469,-1.8032,-1.7971,-1.7881,-1.7798,-1.8133,-1.8435,-1.8639,-1.903,-1.8925,-1.7985,-1.6842,-1.6041,-1.5746,-1.5804,-1.5921,-1.6026,-1.614,-1.6264,-1.6336,-1.6512,-1.6814,-1.7349,-1.7389,-1.7718,-1.8544,-1.9076,-1.9269,-1.8899,-1.8805,-1.8704,-1.8934,-1.8847,-1.869,-1.8769,-1.8708,-1.8393,-1.8359,-1.8037,-1.7801,-1.8174,-1.824,-1.8538,-1.9187,-1.9336,-1.9435,-1.9551,-1.9584,-1.9584,-1.9568,-1.9512,-1.9313,-1.8853,-1.8149,-1.759,-1.7491,-1.7277,-1.7005,-1.6789,-1.6541,-1.6338,-1.6264,-1.5666,-1.4922,-4.3479,-4.3479,-4.3479,-4.3479,-4.3479,-4.3479,-4.3462,-4.3303,-4.2076,-4.1415,-4.1157,-4.0758,-4.0204,-3.9543,-3.9543,-3.9129,-3.8427,-3.7806,-3.7443,-3.7305,-3.6508,-3.6146,-3.6094,-3.5387,-3.501,-3.4818,-3.4234,-3.3524,-3.2817,-3.2748,-3.2352,-3.1645,-3.1025,-2.9937,-2.8506,-2.8299,-2.7868,-2.7144,-2.7142,-2.6695,-2.5801,-2.5799,-2.5094,-2.3733,-2.3664,-2.3302,-2.2578,-2.2406,-2.2306,-2.2177,-2.192,-2.1457,-2.0777,-2.0497,-2.0203,-1.9546,-1.8457,-1.7872,-1.802,-1.7378,-1.7519,-1.8676,-1.879,-1.7926,-1.5943,-1.6284,-1.6689,-1.6844,-1.7532,-1.7939,-1.8012,-1.8713,-1.9215,-1.9384,-1.9686,-2.0101,-2.0613,-2.1135,-2.1476,-2.154,-2.1107,-2.0908,-2.1306,-2.0969,-2.0753,-2.1145,-2.0665,-2.0493,-2.0434,-1.8995,-1.7688,-1.7619,-1.7635,-1.7922,-1.8638,-1.8671,-1.8989,-1.9502,-1.9584,-1.9584,-1.9584,-2.0489,-2.0619,-1.9243,-1.8414,-1.7785,-1.7635,-1.7462,-1.7428,-1.7371,-1.7111,-1.6853,-1.6815,-1.632,-1.5837,-4.3479,-4.3479,-4.3479,-4.3375,-4.3142,-4.2637,-4.2578,-4.2675,-4.1666,-4.1445,-4.1821,-4.1401,-4.0886,-4.0377,-4.0336,-3.9922,-3.9203,-3.8836,-3.8249,-3.7512,-3.7133,-3.6715,-3.6284,-3.5939,-3.5576,-3.5197,-3.4869,-3.432,-3.3559,-3.311,-3.2731,-3.2334,-3.1265,-3.0334,-2.9661,-2.9213,-2.8627,-2.7902,-2.7506,-2.6902,-2.6126,-2.6092,-2.556,-2.4474,-2.4439,-2.3888,-2.275,-2.2712,-2.2319,-2.1492,-2.1357,-2.1109,-2.0734,-2.0616,-2.0412,-2.0086,-1.981,-1.9719,-1.9892,-1.952,-1.9593,-2.0321,-2.0083,-1.9459,-1.8338,-1.8561,-1.8805,-1.8942,-1.9347,-1.9554,-1.9578,-2.0423,-2.0996,-2.0996,-2.1578,-2.2074,-2.2424,-2.3166,-2.3452,-2.2981,-2.225,-2.1904,-2.2261,-2.1964,-2.1818,-2.2129,-2.2022,-2.2112,-2.2039,-2.0998,-1.9963,-1.961,-1.9356,-1.916,-1.9151,-1.9101,-1.9253,-1.9568,-1.9584,-1.9584,-1.9684,-2.0804,-2.1218,-2.0718,-2.0058,-1.9658,-1.9193,-1.8468,-1.8153,-1.798,-1.7433,-1.7079,-1.6942,-1.6565,-1.6134,-4.3479,-4.3479,-4.3479,-4.3268,-4.2844,-4.2115,-4.1969,-4.2115,-4.1485,-4.1512,-4.1927,-4.1578,-4.1169,-4.0918,-4.0894,-4.0567,-3.9991,-3.9767,-3.9077,-3.8025,-3.7668,-3.7167,-3.6594,-3.6404,-3.599,-3.549,-3.5439,-3.5059,-3.4335,-3.3714,-3.3214,-3.28,-3.1576,-3.0869,-3.0714,-3.0093,-2.9403,-2.8661,-2.7902,-2.7161,-2.6419,-2.6352,-2.6008,-2.5316,-2.5247,-2.4609,-2.3319,-2.3216,-2.2664,-2.1544,-2.1428,-2.139,-2.1276,-2.1092,-2.1007,-2.1041,-2.1212,-2.1447,-2.1595,-2.1763,-2.1906,-2.2078,-2.1527,-2.1238,-2.1423,-2.144,-2.1219,-2.0917,-2.097,-2.1115,-2.1231,-2.1948,-2.2505,-2.2576,-2.3188,-2.3708,-2.4035,-2.4682,-2.495,-2.4236,-2.3445,-2.2963,-2.3225,-2.3195,-2.3088,-2.303,-2.3655,-2.4002,-2.3321,-2.3275,-2.3213,-2.2429,-2.1501,-2.0484,-1.9929,-1.9664,-1.9584,-1.9584,-1.9584,-1.97,-1.9896,-2.0555,-2.1166,-2.1298,-2.1681,-2.1168,-2.0486,-1.9528,-1.8869,-1.8708,-1.8056,-1.7337,-1.7025,-1.663,-1.6217,-4.3479,-4.3479,-4.3479,-4.3268,-4.2901,-4.2769,-4.2518,-4.2198,-4.2113,-4.1864,-4.1516,-4.1157,-4.0942,-4.0894,-4.0894,-4.0843,-4.0687,-4.0008,-3.9612,-3.9301,-3.8094,-3.7461,-3.7305,-3.6646,-3.6266,-3.618,-3.6146,-3.5766,-3.5111,-3.4959,-3.4231,-3.2972,-3.2093,-3.1351,-3.0765,-3.0628,-3.0196,-2.9403,-2.8678,-2.7937,-2.723,-2.7178,-2.6799,-2.6023,-2.6006,-2.5628,-2.4767,-2.4781,-2.4712,-2.4591,-2.4488,-2.4508,-2.4442,-2.3825,-2.3447,-2.3378,-2.2293,-2.1595,-2.1664,-2.2229,-2.2888,-2.3509,-2.3491,-2.3698,-2.4336,-2.4505,-2.366,-2.2267,-2.2279,-2.2677,-2.2742,-2.3488,-2.4024,-2.4144,-2.4464,-2.4911,-2.5376,-2.5289,-2.5479,-2.6603,-2.5122,-2.4962,-2.5724,-2.5479,-2.5033,-2.4409,-2.5727,-2.6455,-2.5508,-2.5918,-2.635,-2.5418,-2.3232,-2.1128,-2.0741,-2.0042,-1.9947,-1.9787,-1.9614,-1.984,-2.0036,-1.9263,-1.863,-2.1201,-2.1781,-2.1448,-2.0768,-1.9909,-1.9548,-1.9416,-1.8851,-1.8094,-1.7266,-1.6824,-1.6566,-4.3479,-4.3479,-4.3479,-4.341,-4.3196,-4.2693,-4.2378,-4.2195,-4.1906,-4.1539,-4.1163,-4.0965,-4.0894,-4.0894,-4.0894,-4.0894,-4.0877,-4.0567,-4.0152,-3.9681,-3.906,-3.8358,-3.7512,-3.7202,-3.6766,-3.6318,-3.6284,-3.6146,-3.5749,-3.501,-3.3973,-3.2938,-3.2162,-3.1645,-3.1369,-3.1334,-3.0955,-3.0213,-2.992,-2.9179,-2.804,-2.7539,-2.7144,-2.6851,-2.6799,-2.6454,-2.5764,-2.5661,-2.5454,-2.5057,-2.5005,-2.5005,-2.5005,-2.4681,-2.4491,-2.4488,-2.3957,-2.3608,-2.3626,-2.3888,-2.4181,-2.4491,-2.4508,-2.4663,-2.4988,-2.5387,-2.5198,-2.4488,-2.4188,-2.4144,-2.4227,-2.4962,-2.5523,-2.561,-2.5749,-2.5998,-2.6322,-2.5829,-2.5725,-2.6145,-2.539,-2.489,-2.5444,-2.5354,-2.5229,-2.5301,-2.6323,-2.6503,-2.6242,-2.6687,-2.6927,-2.6735,-2.5109,-2.3886,-2.3215,-2.2191,-2.1518,-2.1113,-2.0441,-2.0096,-1.9917,-1.9545,-1.9396,-2.0953,-2.1481,-2.168,-2.1381,-2.0718,-2.024,-2.0091,-1.9647,-1.8884,-1.8056,-1.7679,-1.7324,-4.3698,-4.3516,-4.3375,-4.3339,-4.325,-4.2537,-4.2136,-4.1987,-4.1648,-4.1283,-4.0918,-4.0894,-4.0894,-4.0894,-4.0894,-4.0894,-4.0894,-4.0894,-4.0601,-4.0043,-3.9802,-3.9112,-3.8151,-3.7668,-3.7202,-3.6663,-3.6404,-3.6284,-3.6163,-3.5042,-3.4007,-3.3231,-3.2472,-3.199,-3.1817,-3.18,-3.1541,-3.1042,-3.08,-3.0145,-2.9092,-2.8282,-2.7713,-2.7366,-2.7315,-2.7006,-2.6471,-2.6437,-2.6195,-2.5678,-2.5643,-2.5626,-2.5626,-2.5436,-2.5229,-2.5057,-2.5212,-2.5298,-2.5298,-2.5505,-2.5643,-2.5626,-2.5626,-2.5626,-2.5712,-2.6126,-2.6402,-2.6333,-2.5937,-2.5574,-2.5382,-2.5947,-2.6275,-2.6176,-2.6268,-2.6391,-2.6401,-2.568,-2.5169,-2.5595,-2.5169,-2.4801,-2.4962,-2.5069,-2.5212,-2.539,-2.5663,-2.5755,-2.6074,-2.6319,-2.6799,-2.7106,-2.6792,-2.6283,-2.5432,-2.4171,-2.3316,-2.2849,-2.2,-2.1369,-2.0639,-2.0406,-2.0227,-2.1398,-2.163,-2.1713,-2.1613,-2.1216,-2.0834,-2.0635,-2.024,-1.9664,-1.8913,-1.8598,-1.811,-4.4195,-4.3464,-4.3087,-4.2938,-4.2882,-4.2418,-4.1948,-4.16,-4.1494,-4.1283,-4.0918,-4.0894,-4.0894,-4.0894,-4.0894,-4.0894,-4.0894,-4.0894,-4.086,-4.0705,-4.006,-3.9681,-3.9491,-3.8203,-3.7495,-3.7301,-3.6719,-3.6335,-3.6249,-3.5508,-3.4766,-3.4044,-3.3197,-3.2472,-3.1938,-3.1834,-3.1783,-3.1627,-3.1094,-3.0662,-3.0472,-2.9765,-2.8713,-2.7575,-2.7349,-2.7299,-2.7213,-2.723,-2.7178,-2.7161,-2.7092,-2.7142,-2.7108,-2.6437,-2.5764,-2.5247,-2.5712,-2.6057,-2.6143,-2.6661,-2.709,-2.7126,-2.7006,-2.7142,-2.7004,-2.709,-2.7126,-2.7228,-2.7073,-2.6764,-2.6109,-2.6232,-2.6205,-2.5743,-2.5715,-2.5816,-2.58,-2.4703,-2.4244,-2.5169,-2.5008,-2.4789,-2.5497,-2.5752,-2.5289,-2.5051,-2.5337,-2.5579,-2.5234,-2.6035,-2.6774,-2.7117,-2.7431,-2.76,-2.6321,-2.5414,-2.4824,-2.4362,-2.3981,-2.3714,-2.2957,-2.2278,-2.1961,-2.1696,-2.1746,-2.1796,-2.1796,-2.163,-2.1332,-2.1083,-2.0884,-2.034,-1.968,-1.9359,-1.8923,-4.3664,-4.2674,-4.2518,-4.2458,-4.2456,-4.2277,-4.1948,-4.1516,-4.1512,-4.1283,-4.0942,-4.0894,-4.0894,-4.0894,-4.0894,-4.0894,-4.0894,-4.0894,-4.0894,-4.0877,-4.0618,-4.0204,-3.9664,-3.9112,-3.8336,-3.7547,-3.7219,-3.6784,-3.6249,-3.5559,-3.5076,-3.4628,-3.3524,-3.2731,-3.2455,-3.2024,-3.18,-3.1765,-3.1507,-3.1162,-3.0766,-3.0403,-2.9748,-2.8782,-2.8247,-2.7764,-2.7332,-2.7315,-2.7315,-2.7315,-2.7315,-2.7315,-2.7297,-2.7023,-2.6764,-2.6555,-2.6713,-2.6868,-2.6902,-2.7126,-2.7315,-2.7315,-2.7315,-2.7315,-2.7315,-2.7315,-2.7315,-2.7315,-2.7315,-2.6937,-2.6419,-2.6603,-2.6857,-2.6625,-2.6308,-2.6118,-2.6096,-2.5389,-2.4926,-2.4942,-2.4403,-2.4076,-2.4504,-2.4771,-2.4766,-2.4165,-2.4623,-2.4962,-2.4962,-2.5622,-2.6514,-2.6978,-2.7643,-2.8037,-2.7635,-2.6784,-2.6165,-2.5782,-2.5386,-2.4731,-2.4005,-2.283,-2.2275,-2.2436,-2.2322,-2.1895,-2.1912,-2.1763,-2.1516,-2.1514,-2.1315,-2.0984,-2.0439,-2.0198,-1.9791,-4.3712,-4.2644,-4.2423,-4.2284,-4.2177,-4.2032,-4.1799,-4.1512,-4.1494,-4.126,-4.0942,-4.0894,-4.0894,-4.0894,-4.0894,-4.0894,-4.0894,-4.0894,-4.0894,-4.0894,-4.0894,-4.0595,-4.0135,-3.9819,-3.9181,-3.8254,-3.7702,-3.7077,-3.6318,-3.5801,-3.5439,-3.5111,-3.4111,-3.3369,-3.2921,-3.2386,-3.2059,-3.1869,-3.18,-3.1524,-3.1111,-3.1058,-3.0662,-2.9955,-2.9403,-2.8661,-2.7696,-2.7453,-2.7315,-2.7315,-2.7315,-2.7315,-2.7315,-2.7315,-2.7315,-2.7315,-2.7315,-2.7315,-2.7315,-2.7315,-2.7315,-2.7315,-2.7315,-2.7315,-2.7315,-2.7315,-2.7315,-2.7315,-2.7315,-2.7023,-2.6747,-2.6971,-2.7108,-2.6705,-2.6271,-2.6057,-2.6181,-2.583,-2.5432,-2.5145,-2.4736,-2.4361,-2.4302,-2.4783,-2.4944,-2.4623,-2.514,-2.539,-2.5444,-2.6055,-2.6532,-2.6907,-2.7656,-2.8088,-2.7988,-2.7512,-2.7101,-2.676,-2.6553,-2.5869,-2.5075,-2.3791,-2.3095,-2.3195,-2.2883,-2.2307,-2.1978,-2.1831,-2.1797,-2.1797,-2.1681,-2.1414,-2.1151,-2.1069,-2.0579,-4.4425,-4.3262,-4.2868,-4.2489,-4.215,-4.1754,-4.1547,-4.1468,-4.145,-4.1214,-4.0935,-4.0894,-4.0894,-4.0894,-4.0894,-4.0894,-4.0894,-4.0894,-4.0894,-4.0894,-4.0894,-4.0877,-4.0756,-4.0112,-3.9733,-3.9388,-3.8168,-3.7133,-3.6422,-3.6266,-3.5887,-3.5335,-3.5148,-3.4335,-3.299,-3.2921,-3.2507,-3.2024,-3.1869,-3.1765,-3.1783,-3.1714,-3.1386,-3.0765,-3.0593,-2.9886,-2.8506,-2.7764,-2.7384,-2.7332,-2.7315,-2.7315,-2.7315,-2.7315,-2.7315,-2.7315,-2.7315,-2.7315,-2.7315,-2.7315,-2.7315,-2.7332,-2.7349,-2.742,-2.7454,-2.7522,-2.7556,-2.7591,-2.7539,-2.7385,-2.742,-2.7489,-2.7001,-2.5594,-2.564,-2.5694,-2.5631,-2.5489,-2.5526,-2.5743,-2.5711,-2.5765,-2.5788,-2.6032,-2.6264,-2.6639,-2.6889,-2.6782,-2.6537,-2.725,-2.7607,-2.7197,-2.7714,-2.8463,-2.8356,-2.815,-2.7908,-2.7677,-2.7528,-2.7148,-2.6502,-2.5466,-2.4921,-2.4807,-2.3752,-2.314,-2.2276,-2.2127,-2.1945,-2.1912,-2.1845,-2.1781,-2.1615,-2.1416,-2.1282,-4.433,-4.3254,-4.3086,-4.2652,-4.2097,-4.1881,-4.1574,-4.1105,-4.1088,-4.1018,-4.0894,-4.0894,-4.0894,-4.0894,-4.0894,-4.0894,-4.0894,-4.0894,-4.0894,-4.0894,-4.0894,-4.0894,-4.0843,-4.0629,-4.0239,-3.9526,-3.822,-3.7392,-3.7064,-3.6581,-3.6163,-3.5921,-3.5439,-3.4973,-3.4404,-3.3473,-3.2748,-3.2541,-3.2041,-3.18,-3.18,-3.18,-3.1679,-3.1438,-3.0973,-3.042,-2.9955,-2.873,-2.785,-2.7384,-2.7315,-2.7315,-2.7315,-2.7315,-2.7315,-2.7315,-2.7315,-2.7315,-2.7315,-2.7332,-2.7349,-2.7435,-2.7764,-2.8023,-2.8127,-2.8506,-2.8747,-2.8782,-2.8816,-2.8816,-2.8816,-2.8816,-2.8126,-2.6809,-2.6725,-2.6782,-2.6801,-2.6606,-2.6477,-2.6569,-2.6621,-2.6621,-2.6853,-2.7371,-2.8035,-2.7964,-2.8316,-2.8281,-2.7322,-2.8249,-2.8641,-2.7981,-2.8606,-2.9034,-2.898,-2.8748,-2.8361,-2.7993,-2.7809,-2.7452,-2.7,-2.6794,-2.6396,-2.5776,-2.4729,-2.3854,-2.2984,-2.2525,-2.2409,-2.2077,-2.1978,-2.1897,-2.1814,-2.1681,-2.1514,-4.4743,-4.3646,-4.3621,-4.3172,-4.2482,-4.2465,-4.2016,-4.1378,-4.1309,-4.1153,-4.0963,-4.0894,-4.0894,-4.0894,-4.0894,-4.0894,-4.0894,-4.0894,-4.0894,-4.0894,-4.0894,-4.0894,-4.0894,-4.0894,-4.0498,-3.9629,-3.8479,-3.7771,-3.7461,-3.6697,-3.6284,-3.618,-3.5818,-3.5439,-3.518,-3.4283,-3.3662,-3.3283,-3.261,-3.2214,-3.2145,-3.1938,-3.18,-3.1731,-3.1352,-3.1007,-3.0679,-2.9713,-2.8885,-2.8265,-2.8109,-2.7885,-2.7418,-2.7539,-2.7592,-2.7351,-2.7316,-2.7402,-2.7644,-2.7763,-2.7851,-2.8127,-2.8558,-2.8799,-2.8885,-2.9299,-2.9489,-2.9506,-2.9472,-2.9506,-2.9489,-2.9489,-2.9058,-2.8247,-2.8173,-2.8252,-2.8277,-2.8223,-2.818,-2.8312,-2.8328,-2.8298,-2.8602,-2.8976,-2.9765,-2.9551,-2.9904,-3.0261,-2.9262,-2.9762,-2.9762,-2.969,-2.9815,-2.9976,-2.9815,-2.9373,-2.882,-2.8324,-2.7851,-2.7232,-2.6639,-2.6788,-2.6627,-2.6066,-2.5174,-2.4595,-2.3785,-2.3437,-2.3205,-2.2742,-2.2359,-2.2311,-2.2311,-2.1913,-2.1729,-4.5444,-4.4423,-4.4363,-4.3931,-4.3293,-4.3258,-4.2741,-4.2009,-4.194,-4.155,-4.1015,-4.0894,-4.0894,-4.0894,-4.0894,-4.0894,-4.0894,-4.0894,-4.0894,-4.0894,-4.0894,-4.0894,-4.0894,-4.0894,-4.0532,-3.9853,-3.9043,-3.8375,-3.7858,-3.6922,-3.6353,-3.6439,-3.6301,-3.5973,-3.5404,-3.5214,-3.4714,-3.413,-3.3369,-3.2972,-3.2921,-3.2265,-3.1921,-3.1921,-3.1783,-3.1438,-3.092,-3.0714,-3.0283,-2.9592,-2.9317,-2.8747,-2.7868,-2.8092,-2.8161,-2.7677,-2.7487,-2.7868,-2.8316,-2.8454,-2.8678,-2.9196,-2.9437,-2.9558,-2.9627,-2.9799,-2.9937,-2.9903,-2.9868,-2.9782,-2.9799,-2.9817,-2.9748,-2.9661,-2.9385,-2.9384,-2.9724,-2.9895,-2.9806,-3.0039,-3.0373,-3.0496,-3.0353,-3.055,-3.1011,-3.1385,-3.1599,-3.1722,-3.1954,-3.1811,-3.2097,-3.1793,-3.1118,-3.0796,-3.0582,-3.0083,-2.9497,-2.8838,-2.8352,-2.774,-2.6957,-2.7034,-2.69,-2.6319,-2.5815,-2.523,-2.4696,-2.4282,-2.3918,-2.3553,-2.3255,-2.3056,-2.2824,-2.2526,-2.2361,-4.5416,-4.5104,-4.513,-4.4682,-4.4052,-4.4018,-4.3241,-4.2078,-4.2009,-4.1654,-4.1032,-4.0894,-4.0894,-4.0894,-4.0894,-4.0894,-4.0894,-4.0894,-4.0894,-4.0894,-4.0894,-4.0894,-4.0894,-4.0894,-4.0791,-4.0463,-3.9715,-3.9319,-3.9026,-3.7732,-3.7167,-3.7167,-3.6559,-3.6232,-3.5973,-3.5473,-3.5128,-3.4855,-3.4165,-3.3766,-3.3662,-3.3007,-3.261,-3.2559,-3.211,-3.1731,-3.1524,-3.1507,-3.0851,-2.9627,-2.9506,-2.9386,-2.8954,-2.9092,-2.9092,-2.8868,-2.8868,-2.8972,-2.9144,-2.9213,-2.9334,-2.9523,-3.0093,-3.0386,-3.0403,-3.0903,-3.1127,-3.1196,-3.1196,-3.1145,-3.1162,-3.1127,-3.1145,-3.1041,-3.0265,-2.9713,-2.9865,-2.9876,-3.0023,-3.028,-3.0851,-3.116,-3.1411,-3.178,-3.2188,-3.2436,-3.2525,-3.2561,-3.2739,-3.2775,-3.2614,-3.2454,-3.1974,-3.1617,-3.1242,-3.0761,-3.0172,-2.9444,-2.8998,-2.8713,-2.8016,-2.7662,-2.729,-2.675,-2.637,-2.5849,-2.5329,-2.4845,-2.4564,-2.4365,-2.3984,-2.3735,-2.3702,-2.352,-2.3437,-4.5414,-4.5414,-4.5414,-4.5139,-4.4785,-4.4751,-4.4061,-4.3026,-4.262,-4.2085,-4.1429,-4.1015,-4.0894,-4.0894,-4.0894,-4.0894,-4.0894,-4.0894,-4.0894,-4.0894,-4.0894,-4.0894,-4.0894,-4.0894,-4.0894,-4.0808,-4.0077,-3.9715,-3.9405,-3.822,-3.7581,-3.734,-3.6697,-3.6301,-3.6266,-3.5939,-3.5645,-3.5525,-3.4976,-3.4579,-3.449,-3.38,-3.3455,-3.3248,-3.2662,-3.2162,-3.1869,-3.1783,-3.1334,-3.0662,-3.0472,-3.0282,-2.9886,-2.9955,-2.9851,-2.9575,-2.9506,-2.961,-2.9955,-3.0006,-3.0162,-3.0455,-3.0972,-3.1111,-3.1232,-3.1593,-3.18,-3.1748,-3.18,-3.18,-3.18,-3.18,-3.18,-3.1627,-3.0989,-3.0507,-3.063,-3.0786,-3.0853,-3.1108,-3.1469,-3.1833,-3.2026,-3.2521,-3.2747,-3.285,-3.2811,-3.2829,-3.2882,-3.29,-3.2864,-3.2686,-3.2614,-3.2275,-3.2114,-3.174,-3.126,-3.0529,-3.0011,-2.969,-2.8817,-2.823,-2.7435,-2.6935,-2.6775,-2.6505,-2.5998,-2.5609,-2.5475,-2.5193,-2.4746,-2.4481,-2.4464,-2.4332,-2.4282,-4.5414,-4.5414,-4.5414,-4.5414,-4.5363,-4.538,-4.4872,-4.4225,-4.3569,-4.2792,-4.194,-4.1291,-4.1032,-4.0894,-4.0894,-4.0894,-4.0894,-4.0894,-4.0894,-4.0894,-4.0894,-4.0894,-4.0877,-4.0687,-4.0653,-4.0532,-3.9939,-3.9577,-3.9146,-3.8099,-3.7564,-3.7323,-3.6697,-3.6335,-3.6284,-3.6249,-3.6284,-3.6111,-3.5628,-3.5318,-3.518,-3.4611,-3.4214,-3.4076,-3.3438,-3.2697,-3.2196,-3.1972,-3.1852,-3.1765,-3.18,-3.1248,-3.0575,-3.0714,-3.0506,-3.0058,-3.0006,-3.0231,-3.0644,-3.0817,-3.1042,-3.1507,-3.1662,-3.18,-3.1731,-3.1783,-3.18,-3.18,-3.18,-3.18,-3.18,-3.18,-3.1903,-3.1921,-3.1834,-3.1783,-3.2009,-3.2068,-3.2073,-3.2108,-3.2179,-3.2352,-3.2488,-3.2589,-3.2639,-3.2771,-3.2802,-3.2834,-3.285,-3.29,-3.29,-3.2846,-3.2829,-3.2864,-3.2793,-3.2739,-3.2311,-3.176,-3.126,-3.0692,-2.9446,-2.8614,-2.76,-2.7086,-2.7419,-2.7249,-2.6703,-2.6428,-2.6189,-2.5921,-2.5407,-2.5276,-2.5193,-2.4994,-2.4862,-4.5414,-4.5414,-4.5414,-4.5414,-4.5414,-4.5397,-4.4992,-4.4311,-4.4138,-4.3276,-4.2206,-4.1826,-4.1412,-4.0894,-4.0894,-4.0894,-4.0894,-4.0894,-4.0894,-4.0894,-4.0894,-4.0894,-4.0756,-4.0359,-3.9991,-3.9836,-3.9215,-3.887,-3.8594,-3.8082,-3.7512,-3.7392,-3.6732,-3.6284,-3.6284,-3.6284,-3.6284,-3.6266,-3.6094,-3.599,-3.5852,-3.5335,-3.4938,-3.4835,-3.4197,-3.3473,-3.2835,-3.2662,-3.2386,-3.1972,-3.1817,-3.1714,-3.1438,-3.1438,-3.1351,-3.1231,-3.1196,-3.1334,-3.1507,-3.1507,-3.1627,-3.1817,-3.1903,-3.18,-3.18,-3.1903,-3.1869,-3.1817,-3.18,-3.1955,-3.199,-3.1852,-3.2162,-3.2472,-3.2283,-3.2369,-3.3095,-3.2581,-3.2085,-3.2141,-3.223,-3.2232,-3.2388,-3.2528,-3.2613,-3.2675,-3.2759,-3.2773,-3.291,-3.3082,-3.3116,-3.3241,-3.315,-3.315,-3.29,-3.29,-3.2704,-3.2472,-3.2132,-3.1831,-3.0564,-2.9766,-2.9041,-2.8585,-2.8391,-2.7996,-2.7425,-2.6695,-2.6319,-2.6187,-2.607,-2.5871,-2.569,-2.5541,-2.5441,-4.5414,-4.5414,-4.5414,-4.5414,-4.5414,-4.5397,-4.5156,-4.4785,-4.4449,-4.3655,-4.2654,-4.2181,-4.1602,-4.0929,-4.0894,-4.0894,-4.0894,-4.0894,-4.0894,-4.0894,-4.0894,-4.0894,-4.0739,-4.017,-3.9681,-3.956,-3.8957,-3.8629,-3.8405,-3.7892,-3.7512,-3.7443,-3.6697,-3.6318,-3.6284,-3.6284,-3.6284,-3.6284,-3.6284,-3.6284,-3.618,-3.5939,-3.5473,-3.5232,-3.4783,-3.4249,-3.3542,-3.3455,-3.3248,-3.2886,-3.2524,-3.2145,-3.1852,-3.18,-3.18,-3.18,-3.18,-3.18,-3.18,-3.1817,-3.1955,-3.23,-3.2317,-3.2559,-3.2748,-3.2869,-3.2888,-3.2888,-3.2904,-3.2886,-3.2869,-3.2886,-3.3145,-3.3268,-3.3128,-3.3283,-3.3716,-3.3041,-3.2545,-3.2864,-3.3126,-3.3184,-3.3189,-3.3053,-3.3265,-3.3618,-3.3706,-3.3741,-3.395,-3.4053,-3.3799,-3.3761,-3.3599,-3.3384,-3.3025,-3.29,-3.29,-3.2757,-3.265,-3.2489,-3.1958,-3.1351,-3.0836,-3.0185,-2.9368,-2.8758,-2.8144,-2.7344,-2.6737,-2.6702,-2.6601,-2.6369,-2.6152,-2.6054,-2.5971,-4.5414,-4.5414,-4.5414,-4.5414,-4.5414,-4.5414,-4.5397,-4.5276,-4.4751,-4.4018,-4.3189,-4.2465,-4.1809,-4.105,-4.0894,-4.0894,-4.0894,-4.0894,-4.0894,-4.0894,-4.0894,-4.0894,-4.0722,-4.017,-3.9681,-3.9595,-3.8732,-3.8353,-3.7974,-3.7646,-3.7185,-3.7167,-3.668,-3.6318,-3.6284,-3.6284,-3.6284,-3.6284,-3.6284,-3.6284,-3.6284,-3.6232,-3.5921,-3.5559,-3.5404,-3.499,-3.4421,-3.4231,-3.4165,-3.4079,-3.3438,-3.28,-3.23,-3.1852,-3.18,-3.1817,-3.1938,-3.2093,-3.2162,-3.2231,-3.2559,-3.3059,-3.3093,-3.3352,-3.3837,-3.3886,-3.3872,-3.3923,-3.3889,-3.3889,-3.4059,-3.3869,-3.401,-3.4182,-3.4199,-3.4217,-3.4268,-3.3731,-3.3682,-3.3768,-3.3775,-3.3748,-3.3873,-3.3895,-3.4235,-3.4504,-3.4559,-3.4652,-3.4799,-3.4836,-3.4481,-3.4368,-3.4258,-3.4204,-3.3882,-3.3025,-3.3007,-3.3221,-3.315,-3.2953,-3.2882,-3.2373,-3.1679,-3.0897,-3.0162,-2.9567,-2.8967,-2.8268,-2.7773,-2.7476,-2.7265,-2.7147,-2.6899,-2.6583,-2.6583,-4.5414,-4.5414,-4.5414,-4.5414,-4.5414,-4.5414,-4.5414,-4.538,-4.5225,-4.4423,-4.3293,-4.3034,-4.2171,-4.124,-4.0894,-4.0894,-4.0894,-4.0894,-4.0894,-4.0894,-4.0894,-4.0894,-4.0739,-4.0215,-3.9784,-3.9301,-3.8525,-3.768,-3.7008,-3.6542,-3.6628,-3.6508,-3.6387,-3.6284,-3.637,-3.6301,-3.6456,-3.6559,-3.649,-3.6422,-3.6422,-3.6301,-3.6249,-3.599,-3.5973,-3.5663,-3.518,-3.4973,-3.4731,-3.4182,-3.3992,-3.3854,-3.3438,-3.2559,-3.2041,-3.2093,-3.2455,-3.2731,-3.2766,-3.3283,-3.3645,-3.3869,-3.3886,-3.3921,-3.4148,-3.4199,-3.4369,-3.4303,-3.4268,-3.418,-3.4096,-3.432,-3.449,-3.468,-3.4663,-3.4663,-3.5352,-3.5197,-3.4542,-3.4476,-3.4337,-3.4306,-3.4535,-3.4661,-3.4775,-3.4888,-3.4909,-3.4888,-3.4936,-3.4958,-3.4818,-3.4835,-3.4935,-3.4918,-3.4847,-3.3775,-3.3221,-3.3669,-3.3633,-3.3239,-3.3114,-3.2936,-3.2383,-3.1713,-3.1113,-3.0577,-2.9915,-2.9163,-2.8632,-2.822,-2.808,-2.7978,-2.7694,-2.7446,-2.768,-4.5414,-4.5414,-4.5414,-4.5414,-4.5414,-4.5414,-4.5414,-4.5414,-4.538,-4.4803,-4.3931,-4.3345,-4.2585,-4.1619,-4.1032,-4.0912,-4.0894,-4.0894,-4.0894,-4.0894,-4.0894,-4.0894,-4.0894,-4.0446,-4.006,-3.9646,-3.8888,-3.7956,-3.6978,-3.6508,-3.6387,-3.6301,-3.6284,-3.649,-3.6835,-3.6956,-3.7129,-3.7267,-3.7129,-3.6904,-3.6835,-3.6577,-3.6318,-3.6284,-3.6284,-3.6094,-3.5887,-3.5766,-3.5611,-3.5249,-3.4869,-3.4734,-3.4335,-3.3749,-3.2972,-3.3059,-3.3317,-3.3507,-3.3524,-3.3958,-3.4199,-3.4594,-3.4645,-3.4869,-3.5111,-3.5301,-3.5163,-3.518,-3.5232,-3.5249,-3.5283,-3.518,-3.5421,-3.5611,-3.5404,-3.5576,-3.5973,-3.5904,-3.5542,-3.5145,-3.5304,-3.5356,-3.5387,-3.5428,-3.5345,-3.5316,-3.5287,-3.524,-3.5192,-3.5283,-3.534,-3.5417,-3.551,-3.5243,-3.5207,-3.4529,-3.3869,-3.4226,-3.424,-3.383,-3.3598,-3.356,-3.3203,-3.2626,-3.2082,-3.1376,-3.0631,-2.982,-2.9374,-2.8932,-2.8644,-2.8406,-2.8376,-2.8392,-2.8575,-4.5414,-4.5414,-4.5414,-4.5414,-4.5414,-4.5414,-4.5414,-4.5414,-4.5414,-4.4872,-4.4052,-4.3431,-4.2654,-4.1809,-4.1222,-4.0894,-4.0894,-4.0894,-4.0894,-4.0894,-4.0894,-4.0894,-4.0894,-4.0825,-4.0567,-4.0095,-3.9595,-3.9031,-3.7806,-3.7012,-3.6697,-3.6818,-3.6749,-3.6939,-3.7581,-3.7737,-3.8168,-3.8203,-3.806,-3.7702,-3.7374,-3.6887,-3.6422,-3.6318,-3.6284,-3.6284,-3.6197,-3.6197,-3.6197,-3.6008,-3.5714,-3.5404,-3.5318,-3.4872,-3.4562,-3.4527,-3.4404,-3.4337,-3.4372,-3.4614,-3.4973,-3.537,-3.5404,-3.5732,-3.599,-3.6042,-3.6163,-3.6284,-3.6215,-3.6146,-3.6059,-3.6215,-3.6232,-3.6215,-3.6215,-3.6266,-3.6232,-3.6197,-3.6163,-3.6059,-3.6284,-3.618,-3.5973,-3.5956,-3.5808,-3.5808,-3.5797,-3.5869,-3.5864,-3.6058,-3.6118,-3.6153,-3.6025,-3.5576,-3.5367,-3.5226,-3.4906,-3.5119,-3.4957,-3.4597,-3.4418,-3.4311,-3.3832,-3.3322,-3.2546,-3.1812,-3.1116,-3.0532,-3.0092,-2.9623,-2.9145,-2.9003,-2.9218,-2.9234,-2.9321,-4.5414,-4.5414,-4.5414,-4.5414,-4.5414,-4.5414,-4.5414,-4.5414,-4.5414,-4.4596,-4.3603,-4.3189,-4.2413,-4.1326,-4.1015,-4.0894,-4.0894,-4.0894,-4.0894,-4.0894,-4.0894,-4.0894,-4.0894,-4.0894,-4.0843,-4.0515,-4.0026,-3.9284,-3.8565,-3.7806,-3.7685,-3.7922,-3.7633,-3.7737,-3.841,-3.8479,-3.8508,-3.8617,-3.8548,-3.8185,-3.7611,-3.7392,-3.696,-3.6542,-3.6301,-3.6284,-3.6284,-3.6284,-3.6284,-3.6266,-3.6197,-3.6146,-3.6146,-3.6111,-3.6059,-3.5852,-3.5508,-3.5079,-3.5166,-3.5473,-3.5783,-3.599,-3.6059,-3.6197,-3.6266,-3.6284,-3.6284,-3.6284,-3.6284,-3.6284,-3.6284,-3.6284,-3.6284,-3.6284,-3.6284,-3.6284,-3.6284,-3.6284,-3.6284,-3.6284,-3.6284,-3.6284,-3.618,-3.6232,-3.6249,-3.6266,-3.6305,-3.6343,-3.6385,-3.6444,-3.6502,-3.6403,-3.6407,-3.602,-3.5887,-3.57,-3.5721,-3.5934,-3.5759,-3.5401,-3.5152,-3.4887,-3.441,-3.3812,-3.3006,-3.237,-3.1827,-3.132,-3.0831,-3.0309,-2.9798,-2.9922,-3.0274,-3.0208,-2.9926,-4.5027,-4.5397,-4.5414,-4.5414,-4.5414,-4.5414,-4.5414,-4.5414,-4.5397,-4.5035,-4.432,-4.35,-4.2344,-4.1119,-4.0894,-4.0894,-4.0894,-4.0894,-4.0894,-4.0894,-4.0894,-4.0894,-4.0894,-4.0894,-4.0894,-4.0808,-4.0601,-4.0394,-3.9618,-3.8789,-3.8353,-3.853,-3.8353,-3.8474,-3.9146,-3.9215,-3.9508,-3.9669,-3.9479,-3.8853,-3.822,-3.7737,-3.7357,-3.6978,-3.6577,-3.6404,-3.6353,-3.6284,-3.6284,-3.6284,-3.6284,-3.6284,-3.6284,-3.6266,-3.6266,-3.6249,-3.6025,-3.5835,-3.587,-3.6128,-3.6232,-3.6284,-3.6284,-3.6266,-3.6284,-3.6284,-3.6284,-3.6284,-3.6284,-3.6284,-3.6284,-3.6284,-3.6284,-3.6284,-3.6284,-3.6284,-3.6284,-3.6284,-3.6284,-3.6284,-3.6284,-3.6284,-3.6284,-3.6284,-3.6284,-3.6284,-3.6284,-3.6305,-3.6305,-3.6343,-3.6385,-3.6409,-3.6452,-3.6439,-3.6468,-3.6408,-3.6399,-3.6544,-3.6694,-3.6308,-3.583,-3.5457,-3.503,-3.4283,-3.3394,-3.2865,-3.2485,-3.1651,-3.075,-3.0543,-3.0426,-3.0422,-3.0405,-3.041,-3.0191,-4.463,-4.5121,-4.5311,-4.5414,-4.5414,-4.5414,-4.5414,-4.5414,-4.5414,-4.5173,-4.4509,-4.3258,-4.1912,-4.1136,-4.0894,-4.0894,-4.0894,-4.0894,-4.0894,-4.0894,-4.0894,-4.0894,-4.0894,-4.0894,-4.0894,-4.0894,-4.0843,-4.0756,-4.048,-3.9894,-3.929,-3.9152,-3.9031,-3.9319,-3.9802,-4.0026,-4.0256,-4.0601,-4.0256,-3.9612,-3.8922,-3.841,-3.8082,-3.7663,-3.7232,-3.687,-3.6853,-3.6922,-3.6939,-3.6956,-3.6749,-3.6715,-3.668,-3.6456,-3.6318,-3.6284,-3.618,-3.6197,-3.618,-3.6266,-3.6284,-3.6284,-3.6284,-3.6284,-3.6284,-3.6284,-3.6284,-3.6284,-3.6284,-3.6284,-3.6284,-3.6284,-3.6284,-3.6284,-3.6284,-3.6284,-3.6284,-3.6284,-3.6284,-3.6284,-3.6284,-3.6284,-3.6284,-3.6284,-3.6284,-3.6284,-3.6284,-3.6284,-3.6284,-3.6284,-3.6305,-3.6364,-3.6392,-3.6467,-3.6542,-3.6661,-3.6814,-3.695,-3.7105,-3.7042,-3.6444,-3.6108,-3.5787,-3.4901,-3.3891,-3.3322,-3.2967,-3.1766,-3.0677,-3.0726,-3.0726,-3.0403,-3.0338,-3.0354,-3.0333,-4.4328,-4.4423,-4.5113,-4.538,-4.5414,-4.5414,-4.5414,-4.5414,-4.5414,-4.4699,-4.3569,-4.1981,-4.1378,-4.0981,-4.0929,-4.0894,-4.0894,-4.0894,-4.0894,-4.0894,-4.0894,-4.0894,-4.0894,-4.0894,-4.0894,-4.0894,-4.0894,-4.0894,-4.0877,-4.067,-4.0549,-4.067,-3.9911,-4.0204,-4.0498,-4.0618,-4.067,-4.0894,-4.0687,-4.0359,-3.9802,-3.9388,-3.9094,-3.8612,-3.8439,-3.8422,-3.8405,-3.8215,-3.8146,-3.8094,-3.7663,-3.7387,-3.7301,-3.6939,-3.6715,-3.6697,-3.668,-3.6646,-3.6542,-3.6353,-3.6284,-3.6284,-3.6284,-3.6284,-3.6284,-3.6284,-3.6284,-3.6284,-3.6284,-3.6284,-3.6284,-3.6284,-3.6284,-3.6284,-3.6284,-3.6284,-3.6284,-3.6284,-3.6284,-3.6284,-3.6284,-3.6284,-3.6284,-3.6284,-3.6284,-3.6284,-3.6284,-3.6284,-3.6284,-3.6284,-3.6284,-3.6305,-3.6305,-3.6329,-3.6364,-3.6485,-3.6629,-3.6768,-3.6888,-3.6968,-3.6851,-3.6586,-3.6116,-3.5581,-3.4614,-3.4013,-3.3339,-3.2387,-3.1627,-3.1292,-3.1062,-3.0882,-3.051,-3.0325,-3.0249,-4.3448,-4.4328,-4.4613,-4.4992,-4.5414,-4.5414,-4.5414,-4.5414,-4.5397,-4.4872,-4.3793,-4.2792,-4.2033,-4.1585,-4.105,-4.0894,-4.0894,-4.0894,-4.0894,-4.0894,-4.0894,-4.0894,-4.0894,-4.0894,-4.0894,-4.0894,-4.0894,-4.0894,-4.0894,-4.0894,-4.0894,-4.0756,-4.0498,-4.0636,-4.0843,-4.0894,-4.0894,-4.0894,-4.0894,-4.0687,-4.0474,-3.9905,-3.956,-3.9319,-3.8738,-3.8629,-3.856,-3.8577,-3.8594,-3.856,-3.8336,-3.8215,-3.8151,-3.7749,-3.7611,-3.7577,-3.756,-3.7387,-3.6922,-3.6611,-3.6301,-3.6284,-3.6284,-3.6284,-3.6284,-3.6284,-3.6284,-3.6284,-3.6284,-3.6284,-3.6284,-3.6284,-3.6284,-3.6284,-3.6284,-3.6284,-3.6284,-3.6284,-3.6284,-3.6284,-3.6284,-3.6284,-3.6284,-3.6284,-3.6284,-3.6284,-3.6284,-3.6284,-3.6284,-3.6284,-3.6284,-3.6284,-3.6284,-3.6284,-3.6322,-3.6402,-3.6464,-3.6564,-3.6667,-3.6748,-3.6768,-3.6416,-3.5969,-3.5591,-3.5205,-3.4428,-3.37,-3.306,-3.2538,-3.2052,-3.1757,-3.1516,-3.1046,-3.0489,-3.0348,-4.2637,-4.3638,-4.4104,-4.4716,-4.5363,-4.5414,-4.5414,-4.5414,-4.5414,-4.4992,-4.4242,-4.3327,-4.2551,-4.1912,-4.1257,-4.0912,-4.0894,-4.0894,-4.0894,-4.0894,-4.0894,-4.0894,-4.0894,-4.0894,-4.0894,-4.0894,-4.0894,-4.0894,-4.0894,-4.0894,-4.0894,-4.0894,-4.0894,-4.0877,-4.0877,-4.0894,-4.0894,-4.0894,-4.0894,-4.0894,-4.0774,-4.0429,-4.0118,-4.0026,-3.9652,-3.9479,-3.9497,-3.9531,-3.9479,-3.9376,-3.9146,-3.8962,-3.8836,-3.8732,-3.8629,-3.8612,-3.856,-3.8336,-3.7789,-3.6904,-3.6335,-3.6284,-3.6284,-3.6284,-3.6284,-3.6284,-3.6284,-3.6284,-3.6284,-3.6284,-3.6284,-3.6284,-3.6284,-3.6284,-3.6284,-3.6284,-3.6284,-3.6284,-3.6284,-3.6284,-3.6284,-3.6284,-3.6284,-3.6284,-3.6284,-3.6284,-3.6284,-3.6284,-3.6284,-3.6284,-3.6284,-3.6284,-3.6284,-3.6284,-3.6284,-3.6343,-3.6385,-3.6402,-3.6485,-3.6544,-3.6464,-3.6139,-3.5963,-3.5764,-3.5323,-3.4682,-3.4153,-3.3663,-3.3205,-3.2747,-3.2341,-3.1864,-3.1678,-3.1154,-3.0823,-4.2009,-4.224,-4.3655,-4.4682,-4.5311,-4.5397,-4.5414,-4.5414,-4.5397,-4.5044,-4.4294,-4.2982,-4.2327,-4.205,-4.1619,-4.1326,-4.1274,-4.1188,-4.117,-4.1257,-4.117,-4.1032,-4.0963,-4.0981,-4.0894,-4.0894,-4.0894,-4.0894,-4.0894,-4.0894,-4.0894,-4.0894,-4.0894,-4.0894,-4.0894,-4.0894,-4.0894,-4.0894,-4.0894,-4.0894,-4.086,-4.0756,-4.0705,-4.0636,-4.0549,-4.0394,-4.0394,-4.0394,-4.0377,-4.0342,-3.9905,-3.9715,-3.9664,-3.9186,-3.8939,-3.887,-3.8819,-3.8698,-3.8439,-3.7094,-3.6422,-3.6284,-3.6284,-3.6284,-3.6284,-3.6284,-3.6284,-3.6284,-3.6284,-3.6284,-3.6284,-3.6284,-3.6284,-3.6284,-3.6284,-3.6284,-3.6284,-3.6284,-3.6284,-3.6284,-3.6284,-3.6284,-3.6284,-3.6284,-3.6284,-3.6284,-3.6284,-3.6284,-3.6284,-3.6284,-3.6284,-3.6284,-3.6284,-3.6284,-3.6284,-3.6284,-3.6305,-3.6301,-3.6322,-3.6402,-3.6259,-3.6006,-3.5871,-3.5834,-3.5321,-3.4594,-3.4472,-3.4342,-3.3819,-3.3241,-3.2568,-3.2124,-3.2003,-3.1825,-3.142,-4.1439,-4.1972,-4.3088,-4.4,-4.4699,-4.5207,-4.5414,-4.5414,-4.538,-4.5242,-4.4889,-4.3923,-4.3534,-4.3293,-4.2741,-4.2327,-4.2361,-4.243,-4.2413,-4.2309,-4.1895,-4.1688,-4.1533,-4.1205,-4.0963,-4.0894,-4.0894,-4.0894,-4.0894,-4.0894,-4.0894,-4.0894,-4.0894,-4.0894,-4.0894,-4.0894,-4.0894,-4.0894,-4.0894,-4.0894,-4.0894,-4.0894,-4.0894,-4.0894,-4.0894,-4.0894,-4.0894,-4.0894,-4.0894,-4.0894,-4.0446,-4.0429,-4.0429,-3.9997,-4.0032,-4.0066,-4.0066,-3.956,-3.8612,-3.7267,-3.6353,-3.6284,-3.6284,-3.6284,-3.6284,-3.6284,-3.6284,-3.6284,-3.6284,-3.6284,-3.6284,-3.6284,-3.6284,-3.6284,-3.6284,-3.6284,-3.6284,-3.6284,-3.6284,-3.6284,-3.6284,-3.6284,-3.6284,-3.6284,-3.6284,-3.6284,-3.6284,-3.6284,-3.6284,-3.6284,-3.6284,-3.6284,-3.6284,-3.6284,-3.6284,-3.6284,-3.6284,-3.6284,-3.6301,-3.6322,-3.6135,-3.5898,-3.5627,-3.5503,-3.5001,-3.4521,-3.4399,-3.4259,-3.4144,-3.368,-3.3089,-3.274,-3.2708,-3.2384,-3.1866,-4.0923,-4.1503,-4.2341,-4.3174,-4.3992,-4.4992,-4.5414,-4.5414,-4.5414,-4.5414,-4.5225,-4.4613,-4.4259,-4.4052,-4.3586,-4.3207,-4.3207,-4.3189,-4.3172,-4.312,-4.2706,-4.2482,-4.2189,-4.1705,-4.1447,-4.124,-4.0998,-4.0894,-4.0894,-4.0894,-4.0894,-4.0894,-4.0912,-4.0894,-4.0894,-4.0894,-4.0894,-4.0894,-4.0894,-4.0894,-4.0894,-4.0894,-4.0894,-4.0894,-4.0894,-4.0894,-4.0894,-4.0894,-4.0894,-4.0894,-4.0894,-4.0894,-4.0894,-4.0894,-4.0894,-4.0894,-4.0474,-3.9681,-3.8249,-3.7508,-3.6715,-3.6335,-3.6301,-3.6284,-3.6284,-3.6284,-3.6284,-3.6284,-3.6318,-3.6353,-3.6387,-3.637,-3.6422,-3.6439,-3.6387,-3.6404,-3.6422,-3.6422,-3.6422,-3.6404,-3.6387,-3.6353,-3.6387,-3.6284,-3.6284,-3.6284,-3.6284,-3.6335,-3.637,-3.6301,-3.6301,-3.6284,-3.6284,-3.6284,-3.6284,-3.6284,-3.6284,-3.6284,-3.6262,-3.6241,-3.6071,-3.5854,-3.5515,-3.5142,-3.4739,-3.4374,-3.4201,-3.4068,-3.4061,-3.398,-3.3696,-3.3485,-3.3453,-3.3064,-3.2562,-4.0576,-4.0793,-4.1503,-4.2334,-4.3302,-4.4656,-4.5328,-4.5397,-4.5414,-4.5414,-4.5345,-4.4682,-4.4483,-4.4276,-4.3655,-4.3483,-4.3517,-4.35,-4.3517,-4.3431,-4.3345,-4.3258,-4.2965,-4.2465,-4.2154,-4.1826,-4.1619,-4.1481,-4.1084,-4.1343,-4.1326,-4.105,-4.1136,-4.1136,-4.1136,-4.0981,-4.0946,-4.0894,-4.0894,-4.0894,-4.0894,-4.0894,-4.0894,-4.0894,-4.0894,-4.0894,-4.0894,-4.0894,-4.0894,-4.0894,-4.0894,-4.0894,-4.0894,-4.0894,-4.0894,-4.0705,-4.0181,-3.9112,-3.8249,-3.7767,-3.7301,-3.6904,-3.6646,-3.6456,-3.6335,-3.6422,-3.6594,-3.6577,-3.6611,-3.6577,-3.6559,-3.6628,-3.6697,-3.6663,-3.6594,-3.6611,-3.6628,-3.6628,-3.6628,-3.6611,-3.6577,-3.6611,-3.6801,-3.6732,-3.6732,-3.6973,-3.706,-3.6991,-3.6904,-3.637,-3.6353,-3.6284,-3.6284,-3.6284,-3.6284,-3.6284,-3.6284,-3.6284,-3.6178,-3.6135,-3.5963,-3.581,-3.5515,-3.5125,-3.457,-3.425,-3.4126,-3.4101,-3.4084,-3.4003,-3.3922,-3.3906,-3.3761,-3.3841,-3.3566,-4.0362,-4.0514,-4.1313,-4.1866,-4.2402,-4.3932,-4.4906,-4.5363,-4.5414,-4.5414,-4.538,-4.5173,-4.5027,-4.5018,-4.4846,-4.4734,-4.4734,-4.4768,-4.4803,-4.4596,-4.4147,-4.4052,-4.3724,-4.3258,-4.2948,-4.2775,-4.2603,-4.2344,-4.2482,-4.2465,-4.2068,-4.1792,-4.1681,-4.1705,-4.1533,-4.1205,-4.1101,-4.0981,-4.1015,-4.0894,-4.0894,-4.0894,-4.0894,-4.0894,-4.0894,-4.0894,-4.0894,-4.0894,-4.0894,-4.0894,-4.0894,-4.0894,-4.0894,-4.0894,-4.0894,-4.0808,-4.0198,-3.9457,-3.9043,-3.8543,-3.8077,-3.7853,-3.7836,-3.7163,-3.6887,-3.6818,-3.7111,-3.7129,-3.7163,-3.7215,-3.7404,-3.7525,-3.7542,-3.7491,-3.7456,-3.7456,-3.7473,-3.7473,-3.7456,-3.7422,-3.7353,-3.7284,-3.7439,-3.7318,-3.737,-3.7715,-3.7853,-3.7749,-3.7439,-3.6904,-3.6577,-3.6525,-3.6284,-3.6284,-3.6262,-3.6262,-3.6284,-3.6262,-3.6092,-3.5985,-3.5963,-3.5788,-3.5515,-3.5078,-3.448,-3.4226,-3.4101,-3.4101,-3.4101,-3.4101,-3.4036,-3.4068,-3.4101,-3.4101,-3.4101,-4.0238,-4.0356,-4.0847,-4.133,-4.1934,-4.3193,-4.4044,-4.4439,-4.5069,-4.5371,-4.5327,-4.538,-4.5414,-4.5363,-4.5328,-4.5328,-4.5311,-4.5242,-4.5259,-4.5121,-4.4941,-4.482,-4.4492,-4.4035,-4.3707,-4.3569,-4.3345,-4.3,-4.3241,-4.3172,-4.281,-4.2534,-4.2465,-4.2465,-4.2378,-4.2171,-4.1947,-4.1654,-4.136,-4.1015,-4.0946,-4.0946,-4.0912,-4.0929,-4.0929,-4.0894,-4.0894,-4.0894,-4.0894,-4.0894,-4.0894,-4.0894,-4.0894,-4.0894,-4.0601,-4.0463,-4.0008,-3.9474,-3.906,-3.8767,-3.8629,-3.8698,-3.8853,-3.837,-3.7887,-3.7715,-3.7875,-3.7944,-3.7978,-3.8065,-3.8336,-3.8577,-3.856,-3.8543,-3.8525,-3.853,-3.853,-3.8513,-3.8479,-3.8444,-3.8358,-3.8232,-3.8151,-3.803,-3.7978,-3.8198,-3.8318,-3.8284,-3.7939,-3.7443,-3.7111,-3.6991,-3.6577,-3.6284,-3.628,-3.6251,-3.6114,-3.6006,-3.5744,-3.5677,-3.5805,-3.5588,-3.5148,-3.4771,-3.4366,-3.4209,-3.4101,-3.4101,-3.4101,-3.4101,-3.4101,-3.4101,-3.4101,-3.4101,-3.4101,-4.0163,-4.0305,-4.0288,-4.0847,-4.1655,-4.2534,-4.2886,-4.2954,-4.4396,-4.5094,-4.4946,-4.512,-4.5095,-4.5078,-4.5139,-4.5276,-4.5345,-4.5414,-4.5414,-4.5414,-4.5294,-4.5225,-4.5079,-4.4751,-4.444,-4.4156,-4.3914,-4.3741,-4.3448,-4.3534,-4.3672,-4.3293,-4.3276,-4.3276,-4.3224,-4.2965,-4.2758,-4.2603,-4.1981,-4.1464,-4.1291,-4.1153,-4.0998,-4.1032,-4.0981,-4.0894,-4.0894,-4.0894,-4.0894,-4.0894,-4.0894,-4.0894,-4.0894,-4.0877,-4.0498,-4.025,-4.0043,-3.9767,-3.9474,-3.9255,-3.9112,-3.9198,-3.937,-3.9319,-3.9077,-3.8629,-3.8663,-3.8681,-3.8698,-3.8962,-3.9232,-3.9393,-3.9428,-3.9462,-3.9479,-3.9445,-3.941,-3.9445,-3.9462,-3.9341,-3.9008,-3.8957,-3.9152,-3.9048,-3.8905,-3.8888,-3.9026,-3.906,-3.8732,-3.8254,-3.7875,-3.7629,-3.7077,-3.6697,-3.6496,-3.6371,-3.5949,-3.57,-3.5498,-3.5362,-3.5476,-3.5155,-3.4739,-3.4456,-3.4209,-3.4159,-3.4101,-3.4117,-3.4117,-3.4101,-3.4101,-3.4101,-3.4117,-3.4182,-3.4101,-4.0121,-4.0163,-4.0255,-4.0738,-4.1418,-4.1783,-4.2193,-4.2593,-4.3142,-4.3408,-4.3399,-4.358,-4.3976,-4.4457,-4.4613,-4.4863,-4.5345,-4.5397,-4.5414,-4.5414,-4.5414,-4.5414,-4.5414,-4.5139,-4.5079,-4.5087,-4.4889,-4.4475,-4.4225,-4.4389,-4.4509,-4.4087,-4.4035,-4.4035,-4.4,-4.3707,-4.3414,-4.3448,-4.3069,-4.2654,-4.262,-4.2068,-4.1716,-4.1567,-4.1412,-4.1032,-4.0981,-4.0912,-4.0912,-4.0894,-4.0894,-4.0894,-4.0894,-4.0894,-4.0808,-4.0629,-4.0532,-4.0325,-4.0221,-4.0066,-4.0066,-4.0204,-4.0411,-4.0446,-4.0233,-3.9733,-3.9439,-3.9439,-3.9543,-3.9819,-4.0049,-4.0135,-4.0221,-4.029,-4.0359,-4.029,-4.0239,-4.0308,-4.0377,-4.0101,-3.9715,-3.979,-3.998,-4.0014,-3.9922,-4.0043,-4.0308,-4.0342,-4.0032,-3.9583,-3.8922,-3.8525,-3.7719,-3.7262,-3.7008,-3.6713,-3.6406,-3.5909,-3.5633,-3.5429,-3.5232,-3.5157,-3.5005,-3.443,-3.4101,-3.4376,-3.4473,-3.4165,-3.4165,-3.4376,-3.4457,-3.4603,-3.4457,-3.4457,-3.4246,-4.0113,-4.0096,-4.0188,-4.0451,-4.0798,-4.0975,-4.1188,-4.1435,-4.1622,-4.1665,-4.181,-4.2492,-4.3314,-4.394,-4.4156,-4.4569,-4.5206,-4.5371,-4.5397,-4.5414,-4.5414,-4.5414,-4.5414,-4.5414,-4.5363,-4.5397,-4.538,-4.5147,-4.4872,-4.5027,-4.5061,-4.4785,-4.4768,-4.4734,-4.4699,-4.4337,-4.4113,-4.4199,-4.4096,-4.4096,-4.394,-4.3199,-4.2603,-4.2327,-4.1912,-4.1498,-4.124,-4.1153,-4.0912,-4.0894,-4.0894,-4.0894,-4.0894,-4.0894,-4.0894,-4.0877,-4.086,-4.0894,-4.0894,-4.0894,-4.0894,-4.0894,-4.0894,-4.0722,-4.0739,-4.0267,-4.025,-4.0233,-4.0233,-4.0498,-4.0515,-4.0601,-4.0618,-4.0653,-4.067,-4.0653,-4.0618,-4.0653,-4.0687,-4.0584,-4.0377,-4.0394,-4.0515,-4.0515,-4.0463,-4.0463,-4.0843,-4.086,-4.0687,-4.0549,-3.9974,-3.9434,-3.8601,-3.8089,-3.7917,-3.7518,-3.7063,-3.6501,-3.5878,-3.5695,-3.5613,-3.5563,-3.5352,-3.5166,-3.5104,-3.5202,-3.5169,-3.4862,-3.5024,-3.538,-3.5331,-3.5234,-3.5024,-3.4894,-3.4975,-4.0113,-4.0113,-4.0096,-4.0113,-4.0113,-4.023,-4.0264,-4.0206,-4.0247,-4.0349,-4.057,-4.1844,-4.2842,-4.3415,-4.388,-4.4446,-4.4894,-4.5188,-4.531,-4.5371,-4.5371,-4.5397,-4.5414,-4.5414,-4.5414,-4.5414,-4.5397,-4.5397,-4.5294,-4.5397,-4.5397,-4.5414,-4.5414,-4.5397,-4.5414,-4.5363,-4.519,-4.5104,-4.5087,-4.5242,-4.4803,-4.4113,-4.3569,-4.3069,-4.2637,-4.2181,-4.1923,-4.1671,-4.1274,-4.1188,-4.124,-4.1032,-4.0929,-4.0894,-4.0894,-4.0894,-4.0894,-4.0894,-4.0894,-4.0894,-4.0894,-4.0894,-4.0894,-4.0894,-4.0894,-4.0877,-4.086,-4.0843,-4.0843,-4.086,-4.0894,-4.0894,-4.0894,-4.0894,-4.0894,-4.0894,-4.0894,-4.0894,-4.0894,-4.0894,-4.0894,-4.0877,-4.0877,-4.086,-4.0877,-4.0894,-4.0894,-4.0894,-4.086,-4.0791,-4.0498,-4.0076,-3.9542,-3.9118,-3.8791,-3.8071,-3.7469,-3.704,-3.6456,-3.6202,-3.5991,-3.5942,-3.6094,-3.6496,-3.6432,-3.6076,-3.5995,-3.5833,-3.6076,-3.6222,-3.5963,-3.5736,-3.5801,-3.5736,-3.5979,-4.0113,-4.0113,-4.0113,-4.0113,-4.0096,-4.0121,-4.0138,-4.0096,-4.0138,-4.0417,-4.0756,-4.0578,-4.107,-4.1937,-4.2697,-4.351,-4.4512,-4.4944,-4.5186,-4.5247,-4.5344,-4.5371,-4.5414,-4.5414,-4.5414,-4.5414,-4.5414,-4.5414,-4.5414,-4.5414,-4.5414,-4.5414,-4.5414,-4.5414,-4.5414,-4.5414,-4.5414,-4.5414,-4.5414,-4.5414,-4.5207,-4.4665,-4.4259,-4.381,-4.3379,-4.3103,-4.2913,-4.2844,-4.2775,-4.2585,-4.2137,-4.1619,-4.1378,-4.1222,-4.1153,-4.1084,-4.1067,-4.0963,-4.0981,-4.0912,-4.0894,-4.0894,-4.0894,-4.0894,-4.0894,-4.0894,-4.0877,-4.0877,-4.0877,-4.0877,-4.0894,-4.0894,-4.0894,-4.0894,-4.0894,-4.0894,-4.0894,-4.0894,-4.0894,-4.0894,-4.0894,-4.0894,-4.0894,-4.0894,-4.0894,-4.0894,-4.0894,-4.0894,-4.0894,-4.0894,-4.0894,-4.0569,-4.0192,-3.9948,-3.952,-3.8357,-3.7692,-3.7328,-3.7074,-3.6898,-3.6675,-3.6362,-3.6578,-3.7096,-3.6902,-3.6448,-3.6448,-3.674,-3.6578,-3.661,-3.6351,-3.6222,-3.6341,-3.6546,-3.6756]},{"header":{"parameterUnit":"m.s-1","parameterCategory":1,"la1":31.0,"la2":29.5877,"lo1":-88.7671,"lo2":-86.6584,"dy":0.0162,"dx":0.0185,"nx":115,"ny":88,"refTime":"2026-04-12T12:00:00:Z","depth":0,"parameterNumber":3,"parameterNumberName":"V-component_of_WINDS"},"data":[0.0,0.0,0.0,0.0,0.0,0.0,0.0,0.0,0.0,0.0,0.0,0.0,0.0,0.0,0.0,0.0,0.0,0.0,0.0,0.0,0.0,0.0,0.0,0.0,0.0,0.0,0.0,0.0,0.0,0.0,0.0,0.0,0.0,0.0,0.0,0.0,0.0,0.0,0.0,0.0,0.0,0.0,0.0,0.0,0.0,0.0,0.0,0.0,0.0,0.0,0.0,0.0,0.0,0.0,0.0,0.0,0.0,0.0,0.0,0.0,0.0,0.0,0.0,0.0,0.0,0.0,0.0,0.0,0.0,0.0,0.0,0.0,0.0,0.0,0.0,0.0,0.0,0.0,0.0,0.0,0.0,0.0,0.0,0.0,0.0,0.0,0.0,0.0,0.0,0.0,0.0,0.0,0.0,0.0,0.0,0.0,0.0,0.0,0.0,0.0,0.0,0.0,0.0,0.0,0.0,0.0,0.0,0.0,0.0,0.0,0.0,0.0,0.0,0.0,0.0,0.0,0.0,0.0,0.0,0.0,0.0,0.0,0.0,0.0,0.0,0.0,0.0,0.0,0.0,0.0,0.0,0.0,0.0,0.0,0.0,0.0,0.0,0.0,0.0,0.0,0.0,0.0,0.0,0.0,0.0,0.0,0.0,0.0,0.0,0.0,0.0,0.0,0.0,0.0,0.0,0.0,0.0,0.0,0.0,0.0,0.0,0.0,0.0,0.0,0.0,0.0,0.0,0.0,0.0,0.0,0.0,0.0,0.0,0.0,0.0,0.0,0.0,0.0,0.0,0.0,0.0,0.0,0.0,0.0,0.0,0.0,0.0,0.0,0.0,0.0,0.0,0.0,0.0,0.0,0.0,0.0,0.0,0.0,0.0,0.0,0.0,0.0,0.0,0.0,0.0,0.0,0.0,0.0,0.0,0.0,0.0,0.0,0.0,0.0,0.0,0.0,0.0,0.0,0.0,0.0,0.0,0.0,0.0,0.0,0.0,0.0,0.0,0.0,0.0,0.0,0.0,0.0,0.0,0.0,0.0,0.0,0.0,0.0,0.0,0.0,0.0,0.0,0.0,0.0,0.0,0.0,0.0,0.0,0.0,0.0,0.0,0.0,0.0,0.0,0.0,0.0,0.0,0.0,0.0,0.0,0.0,0.0,0.0,0.0,0.0,0.0,0.0,0.0,0.0,0.0,0.0,0.0,0.0,0.0,0.0,0.0,0.0,0.0,0.0,0.0,0.0,0.0,0.0,0.0,0.0,0.0,0.0,0.0,0.0,0.0,0.0,0.0,0.0,0.0,0.0,0.0,0.0,0.0,0.0,0.0,0.0,0.0,0.0,0.0,0.0,0.0,0.0,0.0,0.0,0.0,0.0,0.0,0.0,0.0,0.0,0.0,0.0,0.0,0.0,0.0,0.0,0.0,0.0,0.0,0.0,0.0,0.0,0.0,0.0,0.0,0.0,0.0,0.0,0.0,0.0,0.0,0.0,0.0,0.0,0.0,0.0,0.0,0.0,0.0,0.0,0.0,0.0,0.0,0.0,0.0,0.0,0.0,0.0,0.0,0.0,0.0,0.0,0.0,0.0,0.0,0.0,0.0,0.0,0.0,0.0,0.0,0.0,0.0,0.0,0.0,0.0,0.0,0.0,0.0,0.0,0.0,0.0,0.0,0.0,0.0,0.0,0.0,0.0,0.0,0.0,0.0,0.0,0.0,0.0,0.0,0.0,0.0,0.0,0.0,0.0,0.0,0.0,0.0,0.0,0.0,0.0,0.0,0.0,0.0,0.0,0.0,0.0,0.0,0.0,0.0,0.0,0.0,0.0,0.0,0.0,0.0,0.0,0.0,0.0,0.0,0.0,0.0,0.0,0.0,0.0,0.0,0.0,0.0,0.0,0.0,0.0,0.0,0.0,0.0,0.0,0.0,0.0,0.0,0.0,0.0,0.0,0.0,0.0,0.0,0.0,0.0,0.0,0.0,0.0,0.0,0.0,0.0,0.0,0.0,0.0,0.0,0.0,0.0,0.0,0.0,0.0,0.0,0.0,0.0,0.0,0.0,0.0,0.0,0.0,0.0,0.0,0.0,0.0,0.0,0.0,0.0,0.0,0.0,0.0,0.0,0.0,0.0,0.0,0.0,0.0,0.0,0.0,0.0,0.0,0.0,0.0,0.0,0.0,0.0,0.0,0.0,0.0,0.0,0.0,0.0,0.0,0.0,0.0,0.0,0.0,0.0,0.0,0.0,0.0,0.0,0.0,0.0,0.0,0.0,0.0,0.0,0.0,0.0,0.0,0.0,0.0,0.0,0.0,0.0,0.0,0.0,0.0,0.0,0.0,0.0,0.0,0.0,0.0,0.0,0.0,0.0,0.0,0.0,0.0,0.0,0.0,0.0,0.0,0.0,0.0,0.0,0.0,0.0,0.0,0.0,0.0,0.0,0.0,0.0,0.0,0.0,0.0,0.0,0.0,0.0,0.0,0.0,0.0,0.0,0.0,0.0,0.0,0.0,0.0,0.0,0.0,0.0,0.0,0.0,0.0,0.0,0.0,0.0,0.0,0.0,0.0,0.0,0.0,0.0,0.0,0.0,0.0,0.0,0.0,0.0,0.0,0.0,0.0,0.0,0.0,0.0,0.0,0.0,0.0,0.0,0.0,0.0,0.0,0.0,0.0,0.0,0.0,0.0,0.0,0.0,0.0,0.0,0.0,0.0,0.0,0.0,0.0,0.0,0.0,0.0,0.0,0.0,0.0,0.0,0.0,0.0,0.0,0.0,0.0,0.0,0.0,0.0,0.0,0.0,0.0,0.0,0.0,0.0,0.0,0.0,0.0,0.0,0.0,0.0,0.0,0.0,0.0,0.0,0.0,0.0,0.0,0.0,0.0,0.0,0.0,0.0,0.0,0.0,0.0,0.0,0.0,0.0,0.0,0.0,0.0,0.0,0.0,0.0,0.0,0.0,0.0,0.0,0.0,0.0,0.0,0.0,0.0,0.0,0.0,0.0,0.0,0.0,0.0,0.0,0.0,0.0,0.0,0.0,0.0,0.0,0.0,0.0,0.0,0.0,0.0,0.0,0.0,0.0,0.0,0.0,0.0,0.0,0.0,0.0,0.0,0.0,0.0,0.0,0.0,0.0,0.0,0.0,0.0,0.0,0.0,0.0,0.0,0.0,0.0,0.0,0.0,0.0,0.0,0.0,0.0,0.0,0.0,0.0,0.0,0.0,0.0,0.0,0.0,0.0,0.0,0.0,0.0,0.0,0.0,0.0,0.0,0.0,0.0,0.0,0.0,0.0,0.0,0.0,0.0,0.0,0.0,0.0,0.0,0.0,0.0,0.0,0.0,0.0,0.0,0.0,0.0,0.0,0.0,0.0,0.0,0.0,0.0,0.0,0.0,0.0,0.0,0.0,0.0,0.0,0.0,0.0,0.0,0.0,0.0,0.0,0.0,0.0,0.0,0.0,0.0,0.0,0.0,0.0,0.0,0.0,0.0,0.0,0.0,0.0,0.0,0.0,0.0,0.0,0.0,0.0,0.0,0.0,0.0,0.0,0.0,0.0,0.0,0.0,0.0,0.0,0.0,0.0,0.0,0.0,0.0,0.0,0.0,0.0,0.0,0.0,0.0,0.0,0.0,0.0,0.0,0.0,0.0,0.0,0.0,0.0,0.0,0.0,0.0,0.0,0.0,0.0,0.0,0.0,0.0,0.0,0.0,0.0,0.0,0.0,0.0,0.0,0.0,0.0,0.0,0.0,0.0,0.0,0.0,0.0,0.0,0.0,0.0,0.0,0.0,0.0,0.0,0.0,0.0,0.0,0.0,0.0,0.0,0.0,0.0,0.0,0.0,0.0,0.0,0.0,0.0,0.0,0.0,0.0,0.0,0.0,0.0,0.0,0.0,0.0,0.0,0.0,0.0,0.0,0.0,0.0,0.0,0.0,0.0,0.0,0.0,0.0,0.0,0.0,0.0,0.0,0.0,0.0,0.0,0.0,0.0,0.0,0.0,0.0,0.0,0.0,0.0,0.0,0.0,0.0,0.0,0.0,0.0,0.0,0.0,0.0,0.0,0.0,0.0,0.0,0.0,0.0,0.0,0.0,0.0,0.0,0.0,0.0,0.0,0.0,0.0,0.0,0.0,0.0,0.0,0.0,0.0,0.0,0.0,0.0,0.0,0.0,0.0,0.0,0.0,0.0,0.0,0.0,0.0,0.0,0.0,0.0,0.0,0.0,0.0,0.0,0.0,0.0,0.0,0.0,0.0,0.0,0.6269,0.0,0.0,0.0,0.0,0.0,0.0,0.0,0.0,0.0,0.0,0.0,0.0,0.0,0.0,0.0,0.0,0.0,0.0,0.0,0.0,0.0,0.0,0.0,0.0,0.0,0.0,0.0,0.0,0.0,0.0,0.0,0.0,0.0,0.0,0.0,0.0,0.0,0.0,0.0,0.0,0.0,0.0,0.0,0.0,0.0,0.0,0.0,0.0,0.0,0.0,0.0,0.0,0.0,0.0,0.0,0.0,0.0,0.0,0.0,0.0,0.0,0.0,0.0,0.0,0.0,0.0,0.0,0.0,0.0,0.0,0.0,0.0,0.0,0.0,0.0,0.0,0.0,0.0,0.0,0.0,0.0,0.0,0.0,0.0,0.0,0.0,0.0,0.0,0.0,0.0,0.0,0.0,0.0,0.0,0.0,0.0,0.0,0.0,0.0,0.0,0.0,0.0,0.0,0.0,0.0,0.0,0.0,0.0,0.0,0.0,0.5876,0.5988,0.6018,0.6054,0.6144,0.0,0.0,0.0,0.0,0.0,0.0,0.0,0.0,0.0,0.0,0.0,0.0,0.0,0.0,0.0,0.0,0.0,0.0,0.0,0.0,0.0,0.0,0.0,0.0,0.0,0.0,0.0,0.0,0.0,0.0,0.0,0.0,0.0,0.0,0.0,0.0,0.0,0.0,0.0,0.0,0.0,0.0,0.0,0.0,0.0,0.0,0.0,0.0,0.0,0.0,0.0,0.0,0.0,0.0,0.0,0.0,0.0,0.0,0.0,0.0,0.0,0.0,0.0,0.0,0.0,0.0,0.0,0.0,0.0,0.0,0.0,0.0,0.0,0.0,0.0,0.0,0.0,0.0,0.0,0.0,0.0,0.0,0.0,0.0,0.0,0.0,0.0,0.0,0.0,0.0,0.0,0.0,0.0,0.0,0.0,0.0,0.0,0.0,0.0,0.0,0.0,0.0,0.0,0.0,0.0,0.0,0.0,0.0,0.0,0.0,0.0,0.0,0.6227,0.6225,0.6243,0.0,0.0,0.0,0.0,0.0,0.0,0.0,0.0,0.0,0.0,0.0,0.0,0.0,0.0,0.0,0.0,0.0,0.0,0.0,0.0,0.0,0.0,0.0,0.0,0.0,0.0,0.0,0.0,0.0,0.0,0.0,0.0,0.0,0.0,0.0,0.0,0.0,0.0,0.0,0.0,0.0,0.0,0.0,0.0,0.0,0.0,0.0,0.0,0.0,0.0,0.0,0.0,0.0,0.0,0.0,0.0,0.0,0.0,0.0,0.0,0.0,0.0,0.0,0.0,0.0,0.0,0.0,0.0,0.0,0.0,0.0,0.0,0.0,0.0,0.0,0.0,0.0,0.0,0.0,0.0,0.0,0.0,0.0,0.0,0.0,0.0,0.0,0.0,0.0,0.0,0.0,0.0,0.0,0.0,0.0,0.0,0.0,0.0,0.0,0.0,0.0,0.0,0.0,0.0,0.0,0.0,0.0,0.0,0.0,0.0,0.6219,0.6884,0.6906,0.0,0.7005,0.0,0.0,0.0,0.0,0.0,0.0,0.0,0.0,0.0,0.0,0.0,0.0,0.0,0.0,0.0,0.0,0.0,0.0,0.0,0.0,0.0,0.0,0.0,0.0,0.0,0.0,0.0,0.0,0.0,0.0,0.0,0.0,0.0,0.0,0.0,0.0,0.0,0.0,0.0,0.0,0.0,0.0,0.0,0.0,0.0,0.0,0.0,0.0,0.0,0.0,0.0,0.0,0.0,0.0,0.0,0.0,0.0,0.0,0.0,0.0,0.0,0.0,0.0,0.0,0.0,0.0,0.0,0.0,0.0,0.0,0.0,0.0,0.0,0.0,0.0,0.0,0.0,0.0,0.0,0.0,0.0,0.0,0.0,0.0,0.0,0.0,0.0,0.0,0.0,0.0,0.0,0.0,0.0,0.0,0.0,0.0,0.0,0.0,0.0,0.0,0.0,0.0,0.0,0.0,0.0,0.0,0.0,0.0,0.0,0.0,0.6489,0.6755,0.6755,0.6867,0.0,0.0,0.0,0.0,0.0,0.0,0.0,0.0,0.0,0.0,0.0,0.0,0.0,0.0,0.0,0.0,0.0,0.0,0.0,0.0,0.0,0.0,0.0,0.0,0.0,0.0,0.0,0.0,0.0,0.0,0.0,0.0,0.0,0.0,0.0,0.0,0.0,0.0,0.0,0.0,0.0,0.0,0.0,0.0,0.0,0.0,0.0,0.0,0.0,0.0,0.0,0.0,0.0,0.0,0.0,0.0,0.0,0.0,0.0,0.0,0.0,0.0,0.0,0.0,0.0,0.0,0.0,0.0,0.0,0.0,0.0,0.0,0.0,0.0,0.0,0.0,0.0,0.0,0.0,0.0,0.0,0.0,0.0,0.0,0.0,0.0,0.0,0.0,0.0,0.0,0.0,0.0,0.0,0.0,0.0,0.0,0.0,0.0,0.0,0.0,0.0,0.0,0.0,0.0,0.0,0.0,0.0,0.0,0.0,0.0,0.6561,0.673,0.6876,0.6929,0.7007,0.7079,0.0,0.0,0.0,0.0,0.0,0.0,0.0,0.0,0.0,0.0,0.0,0.0,0.0,0.0,0.0,0.0,0.0,0.0,0.0,0.0,0.0,0.0,0.0,0.0,0.0,0.0,0.0,0.0,0.0,0.0,0.0,0.0,0.0,0.0,0.0,0.0,0.0,0.0,0.0,0.0,0.0,0.0,0.0,0.0,0.0,0.0,0.0,0.0,0.0,0.0,0.0,0.0,0.0,0.0,0.0,0.0,0.0,0.0,0.0,0.0,0.0,0.0,0.0,0.0,0.0,0.0,0.0,0.0,0.0,0.0,0.0,0.0,0.0,0.0,0.0,0.0,0.0,0.0,0.0,0.0,0.0,0.0,0.0,0.0,0.0,0.0,0.0,0.0,0.0,0.0,0.0,0.0,0.0,0.0,0.0,0.0,0.0,0.0,0.0,0.0,0.0,0.0,0.0,0.0,0.0,0.0,0.0,0.0,0.0,0.6845,0.691,0.7542,0.7755,0.757,0.0,0.0,0.0,0.0,0.0,0.0,0.0,0.0,0.0,0.0,0.0,0.0,0.0,0.0,0.0,0.0,0.0,0.0,0.0,0.0,0.0,0.0,0.0,0.0,0.0,0.0,0.0,0.0,0.0,0.0,0.0,0.0,0.0,0.0,0.0,0.0,0.0,0.0,0.0,0.0,0.0,0.0,0.0,0.0,0.0,0.0,0.0,0.0,0.0,0.0,0.0,0.0,0.0,0.0,0.0,0.0,0.0,0.0,0.0,0.0,0.0,0.0,0.0,0.0,0.0,0.0,0.0,0.0,0.0,0.0,0.0,0.0,0.0,0.0,0.0,0.0,0.0,0.0,0.0,0.0,0.0,0.0,0.0,0.0,0.0,0.0,0.0,0.0,0.0,0.0,0.0,0.0,0.0,0.0,0.0,0.0,0.0,0.0,0.0,0.0,0.0,0.0,0.0,0.0,0.0,0.0,0.0,0.0,0.0,0.6428,0.6636,0.721,0.8169,0.7572,0.7322,0.0,0.0,0.0,0.0,0.0,0.0,0.0,0.0,0.0,0.0,0.0,0.0,0.0,0.0,0.0,0.0,0.0,0.0,0.0,0.0,0.0,0.0,0.0,0.0,0.0,0.0,0.0,0.0,0.0,0.0,0.0,0.0,0.0,0.0,0.0,0.0,0.0,0.0,0.0,0.0,0.0,0.0,0.0,0.0,0.0,0.0,0.0,0.0,0.0,0.0,0.0,0.0,0.0,0.0,0.0,0.0,0.0,0.0,0.0,0.0,0.0,0.0,0.0,0.0,0.0,0.0,0.0,0.0,0.0,0.0,0.0,0.0,0.0,0.0,0.0,0.0,0.0,0.0,0.0,0.0,0.0,0.0,0.0,0.0,0.0,0.0,0.0,0.0,0.0,0.0,0.0,0.0,0.0,0.0,0.0,0.0,0.0,0.0,0.0,0.0,0.0,0.0,0.0,0.0,0.0,0.0,0.0,0.0,0.0,0.6325,0.0,0.7531,0.0,0.7494,0.7176,0.0,0.0,0.0,0.0,0.0,0.0,0.0,0.0,0.0,0.0,0.0,0.0,0.0,0.0,0.0,0.0,0.0,0.0,0.0,0.0,0.0,0.0,0.0,0.0,0.0,0.0,0.0,0.0,0.0,0.0,0.0,0.0,0.0,0.0,0.0,0.0,0.0,0.0,0.0,0.0,0.0,0.0,0.0,0.0,0.0,0.0,0.0,0.0,0.0,0.0,0.0,0.0,0.0,0.0,0.0,0.0,0.0,0.0,0.0,0.0,0.0,0.0,0.0,0.0,0.0,0.0,0.0,0.0,0.0,0.0,0.0,0.0,0.0,0.0,0.0,0.0,0.0,0.0,0.0,0.0,0.0,0.0,0.0,0.0,0.0,0.0,0.0,0.0,0.0,0.0,0.0,0.0,0.0,0.0,0.0,0.0,0.0,0.0,0.0,0.0,0.0,0.0,0.0,0.0,0.0,0.0,0.0,0.0,0.6277,0.7154,0.777,0.7852,0.7369,0.7554,0.7231,0.0,0.0,0.0,0.0,0.0,0.0,0.0,0.0,0.0,0.0,0.0,0.0,0.0,0.0,0.0,0.0,0.0,0.0,0.0,0.0,0.0,0.0,0.0,0.0,0.0,0.0,0.0,0.0,0.0,0.0,0.0,0.0,0.0,0.0,0.0,0.0,0.0,0.0,0.0,0.0,0.0,0.0,0.0,0.0,0.0,0.0,0.0,0.0,0.0,0.0,0.0,0.0,0.0,0.0,0.0,0.0,0.0,0.0,0.0,0.0,0.0,0.0,0.0,0.0,0.0,0.0,0.0,0.0,0.0,0.0,0.0,0.0,0.0,0.0,0.0,0.0,0.0,0.0,0.0,0.0,0.0,0.0,0.0,0.0,0.0,0.0,0.0,0.0,0.0,0.0,0.0,0.0,0.0,0.0,0.0,0.0,0.0,0.0,0.0,0.0,0.0,0.0,0.0,0.0,0.0,0.0,0.0,0.0,0.0,0.6728,0.7624,0.8239,0.8503,0.76,0.735,0.0,0.0,0.0,0.0,0.0,0.0,0.0,0.0,0.0,0.0,0.0,0.0,0.0,0.0,0.0,0.0,0.0,0.0,0.0,0.0,0.0,0.0,0.0,0.0,0.0,0.0,0.0,0.0,0.0,0.0,0.0,0.0,0.0,0.0,0.0,0.0,0.0,0.0,0.0,0.0,0.0,0.0,0.0,0.0,0.0,0.0,0.0,0.0,0.0,0.0,0.0,0.0,0.0,0.0,0.0,0.0,0.0,0.0,0.0,0.0,0.0,0.0,0.0,0.0,0.0,0.0,0.0,0.0,0.0,0.0,0.0,0.0,0.0,0.0,0.0,0.0,0.0,0.0,0.0,0.0,0.0,0.0,0.0,0.0,0.0,0.0,0.0,0.0,0.0,0.0,0.0,0.0,0.0,0.0,0.0,0.0,0.0,0.0,0.0,0.0,0.0,0.0,0.0,0.0,0.0,0.0,0.0,0.0,0.0,0.734,0.8103,0.8624,0.8731,0.7622,0.7367,0.7966,0.0,0.0,0.0,0.0,0.0,0.0,0.0,0.0,0.0,0.0,0.0,0.0,0.0,0.0,0.0,0.0,0.0,0.0,0.0,0.0,0.0,0.0,0.0,0.0,0.0,0.0,0.0,0.0,0.0,0.0,0.0,0.0,0.0,0.0,0.0,0.0,0.0,0.0,0.0,0.0,0.0,0.0,0.0,0.0,0.0,0.0,0.0,0.0,0.0,0.0,0.0,0.0,0.0,0.0,0.0,0.0,0.0,0.0,0.0,0.0,0.0,0.0,0.0,0.0,0.0,0.0,0.0,0.0,0.0,0.0,0.0,0.0,0.0,0.0,0.0,0.0,0.0,0.0,0.0,0.0,0.0,0.0,0.0,0.0,0.0,0.0,0.0,0.0,0.0,0.0,0.0,0.0,0.0,0.0,0.0,0.0,0.0,0.0,0.0,0.0,0.0,0.0,0.0,0.0,0.0,0.0,0.0,0.0,0.8622,0.9119,0.9018,0.8288,0.7813,0.7382,0.0,0.0,0.0,0.0,0.0,0.0,0.0,0.0,0.0,0.0,0.0,0.0,0.0,0.0,0.0,0.0,0.0,0.0,0.0,0.0,0.0,0.0,0.0,0.0,0.0,0.0,0.0,0.0,0.0,0.0,0.0,0.0,0.0,0.0,0.0,0.0,0.0,0.0,0.0,0.0,0.0,0.0,0.0,0.0,0.0,0.0,0.0,0.0,0.0,0.0,0.0,0.0,0.0,0.0,0.0,0.0,0.0,0.0,0.0,0.0,0.0,0.0,0.0,0.0,0.0,0.0,0.0,0.0,0.0,0.0,0.0,0.0,0.0,0.0,0.0,0.0,0.0,0.0,0.0,0.0,0.0,0.0,0.0,0.0,0.0,0.0,0.0,0.0,0.0,0.0,0.0,0.0,0.0,0.0,0.0,0.0,0.0,0.0,0.0,0.0,0.0,0.0,0.0,0.0,0.0,0.0,0.0,0.0,0.0,0.9119,0.9966,1.0222,0.9777,0.8701,0.8083,0.0,0.0,0.0,0.0,0.0,0.0,0.0,0.0,0.0,0.0,0.0,0.0,0.0,0.0,0.0,0.0,0.0,0.0,0.0,0.0,0.0,0.0,0.0,0.0,0.0,0.0,0.0,0.0,0.0,0.0,0.0,0.0,0.0,0.0,0.0,0.0,0.0,0.0,0.0,0.0,0.0,0.0,0.0,0.0,0.0,0.0,0.0,0.0,0.0,0.0,0.0,0.0,0.0,0.0,0.0,0.0,0.0,0.0,0.0,0.0,0.0,0.0,0.0,0.0,0.0,0.0,0.0,0.0,0.0,0.0,0.0,0.0,0.0,0.0,0.0,0.0,0.0,0.0,0.0,0.0,0.0,0.0,0.0,0.0,0.0,0.0,0.0,0.0,0.0,0.0,0.0,0.0,0.0,0.0,0.0,0.0,0.0,0.0,0.0,0.0,0.0,0.0,0.0,0.0,0.0,0.0,0.0,0.0,0.9036,0.9923,1.0299,1.0437,1.0281,0.9324,0.8565,0.0,0.0,0.0,0.0,0.0,0.0,0.0,0.0,0.0,0.0,0.0,0.0,0.0,0.0,0.0,0.0,0.0,0.0,0.0,0.0,0.0,0.0,0.0,0.0,0.0,0.0,0.0,0.0,0.0,0.0,0.0,0.0,0.0,0.0,0.0,0.0,0.0,0.0,0.0,0.0,0.0,0.0,0.0,0.0,0.0,0.0,0.0,0.0,0.0,0.0,0.0,0.0,0.0,0.0,0.0,0.0,0.0,0.0,0.0,0.0,0.0,0.0,0.0,0.0,0.0,0.0,0.0,0.0,0.0,0.0,0.0,0.0,0.0,0.0,0.0,0.0,0.0,0.0,0.0,0.0,0.0,0.0,0.0,0.0,0.0,0.0,0.0,0.0,0.0,0.0,0.0,0.0,0.0,0.0,0.0,0.0,0.0,0.0,0.0,0.0,0.0,0.0,0.0,0.0,0.0,0.0,0.0,0.0,0.9345,1.0671,1.0414,1.0185,1.0091,0.9764,0.8954,0.0,0.0,0.0,0.0,0.0,0.0,0.0,0.0,0.0,0.0,0.0,0.0,0.0,0.0,0.0,0.0,0.0,0.0,0.0,0.0,0.0,0.0,0.0,0.0,0.0,0.0,0.0,0.0,0.0,0.0,0.0,0.0,0.0,0.0,0.0,0.0,0.0,0.0,0.0,0.0,0.0,0.0,0.0,0.0,0.0,0.0,0.0,0.0,0.0,0.0,0.0,0.0,0.0,0.0,0.0,0.0,0.0,0.0,0.0,0.0,0.0,0.0,0.0,0.0,0.0,0.0,0.0,0.0,0.0,0.0,0.0,0.0,0.0,0.0,0.0,0.0,0.0,0.0,0.0,0.0,0.0,0.0,0.0,0.0,0.0,0.0,0.0,0.0,0.0,0.0,0.0,0.0,0.0,0.0,0.0,0.0,0.0,0.0,0.0,0.0,0.0,0.0,0.0,0.0,0.0,0.0,0.0,0.0,0.9519,1.0245,1.0885,1.0845,1.0113,1.0116,0.9489,0.0,0.0,0.0,0.0,0.0,0.0,0.0,0.0,0.0,0.0,0.0,0.0,0.0,0.0,0.0,0.0,0.0,0.0,0.0,0.0,0.0,0.0,0.0,0.0,0.0,0.0,0.0,0.0,0.0,0.0,0.0,0.0,0.0,0.0,0.0,0.0,0.0,0.0,0.0,0.0,0.0,0.0,0.0,0.0,0.0,0.0,0.0,0.0,0.4427,0.0,0.0,0.0,0.0,0.0,0.0,0.0,0.0,0.0,0.0,0.0,0.0,0.0,0.0,0.0,0.0,0.0,0.0,0.0,0.0,0.0,0.0,0.0,0.0,0.0,0.0,0.0,0.0,0.0,0.0,0.0,0.0,0.0,0.0,0.0,0.0,0.0,0.0,0.0,0.0,0.0,0.0,0.0,0.0,0.0,0.0,0.0,0.0,0.0,0.0,0.0,0.0,0.0,0.0,0.0,0.0,0.0,0.0,0.0,1.025,1.0747,1.1249,1.1155,1.0486,1.0559,0.99,0.0,0.0,0.0,0.0,0.0,0.0,0.0,0.0,0.0,0.0,0.0,0.0,0.0,0.0,0.0,0.0,0.0,0.0,0.0,0.0,0.0,0.0,0.0,0.0,0.0,0.0,0.0,0.0,0.0,0.0,0.0,0.0,0.0,0.0,0.0,0.0,0.0,0.0,0.0,0.0,0.0,0.0,0.0,0.0,0.0,0.0,0.0,0.0,0.0,0.0,0.0,0.0,0.0,0.0,0.0,0.0,0.0,0.0,0.0,0.0,0.0,0.0,0.0,0.0,0.0,0.0,0.0,0.0,0.0,0.0,0.0,0.0,0.0,0.0,0.0,0.0,0.0,0.0,0.0,0.0,0.0,0.0,0.0,0.0,0.0,0.0,0.0,0.0,0.0,0.0,0.0,0.0,0.0,0.0,0.0,0.0,0.0,0.0,0.0,0.0,0.0,0.0,0.0,0.0,0.0,0.0,0.0,1.0026,1.0939,1.1373,1.146,1.1275,1.0812,1.0936,1.0242,0.8606,0.0,0.0,0.0,0.0,0.0,0.0,0.0,0.0,0.0,0.0,0.0,0.0,0.0,0.0,0.0,0.0,0.0,0.0,0.0,0.0,0.0,0.0,0.0,0.0,0.0,0.0,0.0,0.0,0.0,0.0,0.0,0.0,0.0,0.0,0.0,0.0,0.0,0.0,0.5367,0.6515,0.0,0.0,0.0,0.0,0.0,0.0,0.0,0.0,0.602,0.0,0.0,0.0,0.0,0.0,0.0,0.0,0.0,0.0,0.0,0.0,0.0,0.0,0.0,0.0,0.0,0.0,0.0,0.0,0.0,0.0,0.0,0.0,0.0,0.0,0.0,0.0,0.0,0.0,0.0,0.0,0.0,0.0,0.0,0.0,0.0,0.0,0.0,0.0,0.0,0.0,0.0,0.0,0.0,0.0,0.0,0.0,0.0,0.0,0.0,0.0,0.0,0.0,0.0,0.0,0.0,0.9173,0.9862,1.0436,1.09,1.1315,1.1275,1.083,1.0982,1.0612,0.9594,0.0,0.0,0.0,0.0,0.0,0.0,0.0,0.0,0.0,0.0,0.0,0.0,0.0,0.0,0.0,0.0,0.0,0.0,0.0,0.0,0.0,0.0,0.0,0.0,0.0,0.0,0.0,0.0,0.0,0.0,0.0,0.0,0.0,0.0,0.0,0.0,0.0,0.0,0.0,0.6908,0.7323,0.0,0.0,0.0,0.0,0.0,0.0,0.0,0.0,0.5818,0.0,0.0,0.0,0.0,0.0,0.0,0.0,0.0,0.0,0.0,0.0,0.0,0.0,0.0,0.0,0.0,0.0,0.0,0.0,0.0,0.0,0.0,0.0,0.0,0.0,0.0,0.0,0.0,0.0,0.0,0.0,0.0,0.0,0.0,0.0,0.0,0.0,0.0,0.0,0.0,0.0,0.0,0.0,0.0,0.0,0.0,0.0,0.0,0.0,0.0,0.0,0.0,0.0,0.0,0.0,0.9271,1.0081,1.0671,1.1162,1.1384,1.1395,1.1162,1.0847,1.0523,0.0,0.0,0.0,0.0,0.0,0.0,0.0,0.0,0.0,0.0,0.0,0.0,0.0,0.0,0.0,0.0,0.0,0.0,0.0,0.0,0.0,0.0,0.0,0.0,0.0,0.0,0.0,0.0,0.0,0.0,0.0,0.0,0.0,0.0,0.0,0.0,0.0,0.0,0.0,0.0,0.7083,0.7514,0.7525,0.0,0.0,0.0,0.0,0.0,0.0,0.6888,0.6585,0.0,0.0,0.0,0.0,0.0,0.0,0.0,0.0,0.0,0.0,0.0,0.0,0.0,0.0,0.0,0.0,0.0,0.0,0.0,0.0,0.0,0.0,0.0,0.0,0.0,0.0,0.0,0.0,0.0,0.0,0.0,0.0,0.0,0.0,0.0,0.0,0.0,0.0,0.0,0.0,0.0,0.0,0.0,0.0,0.0,0.0,0.0,0.0,0.0,0.0,0.0,0.0,0.0,0.0,0.0,0.9278,1.0195,1.0915,1.1471,1.1504,1.1504,1.1493,1.0919,1.0575,0.0,0.0,0.0,0.0,0.0,0.0,0.0,0.0,0.0,0.0,0.0,0.0,0.0,0.0,0.0,0.0,0.0,0.0,0.0,0.0,0.0,0.0,0.0,0.0,0.0,0.0,0.0,0.0,0.0,0.0,0.0,0.0,0.0,0.0,0.0,0.0,0.0,0.0,0.0,0.0,0.0,0.7743,0.7268,0.7668,0.0,0.0,0.0,0.0,0.8286,0.7769,0.0,0.0,0.0,0.0,0.0,0.0,0.0,0.0,0.0,0.0,0.0,0.0,0.0,0.0,0.0,0.0,0.0,0.0,0.0,0.0,0.0,0.0,0.0,0.0,0.0,0.0,0.0,0.0,0.0,0.0,0.0,0.0,0.0,0.0,0.0,0.0,0.0,0.0,0.0,0.0,0.0,0.0,0.0,0.0,0.0,0.0,0.0,0.0,0.0,0.0,0.0,0.0,0.0,0.0,0.0,0.0,0.926,0.9873,1.0611,1.1449,1.1504,1.1504,1.1504,1.1575,1.1272,0.0,0.0,0.0,0.0,0.0,0.0,0.0,0.0,0.0,0.0,0.0,0.0,0.0,0.0,0.0,0.0,0.0,0.0,0.0,0.0,0.0,0.0,0.0,0.0,0.0,0.0,0.0,0.0,0.0,0.0,0.0,0.0,0.0,0.0,0.0,0.0,0.0,0.0,0.0,0.0,0.0,0.7783,0.7858,0.7959,0.8004,0.0,0.0,0.7509,0.7971,0.7548,0.0,0.0,0.0,0.0,0.0,0.0,0.0,0.0,0.0,0.0,0.0,0.0,0.0,0.0,0.0,0.0,0.0,0.0,0.0,0.0,0.0,0.0,0.0,0.0,0.0,0.0,0.0,0.0,0.0,0.0,0.0,0.0,0.0,0.0,0.0,0.0,0.0,0.0,0.0,0.0,0.0,0.0,0.0,0.0,0.0,0.0,0.0,0.0,0.0,0.0,0.0,0.0,0.0,0.0,0.0,0.8036,0.9698,0.9993,1.0539,1.146,1.1504,1.1504,1.1504,1.1311,1.086,0.0,0.0,0.0,0.0,0.0,0.0,0.0,0.0,0.0,0.0,0.0,0.0,0.0,0.0,0.0,0.0,0.0,0.0,0.0,0.0,0.0,0.0,0.0,0.0,0.0,0.0,0.0,0.0,0.0,0.0,0.0,0.0,0.0,0.0,0.0,0.0,0.0,0.0,0.0,0.0,0.0,0.0,0.7812,0.8147,0.0,0.0,0.0,0.8901,0.9584,0.0,0.0,0.0,0.0,0.0,0.0,0.0,0.0,0.0,0.0,0.0,0.0,0.0,0.0,0.0,0.0,0.0,0.0,0.0,0.0,0.0,0.0,0.0,0.0,0.0,0.0,0.0,0.0,0.0,0.0,0.0,0.0,0.0,0.0,0.0,0.0,0.0,0.0,0.0,0.0,0.0,0.0,0.0,0.0,0.0,0.0,0.0,0.0,0.0,0.0,0.0,0.0,0.0,0.0,0.0,0.0,0.0,1.0048,1.0091,1.0556,1.1471,1.1504,1.1504,1.1493,1.1162,0.0,0.0,0.0,0.0,0.0,0.0,0.0,0.0,0.0,0.0,0.0,0.0,0.0,0.0,0.0,0.0,0.0,0.0,0.0,0.0,0.0,0.0,0.0,0.0,0.0,0.0,0.0,0.3374,0.0,0.0,0.0,0.0,0.0,0.0,0.0,0.0,0.0,0.0,0.0,0.0,0.0,0.0,0.7938,0.7746,0.8414,0.9339,0.0,0.0,0.9897,1.0326,0.9944,0.9434,0.0,0.0,0.0,0.0,0.0,0.0,0.0,0.0,0.0,0.0,0.0,0.0,0.0,0.0,0.0,0.0,0.0,0.0,0.0,0.0,0.0,0.0,0.0,0.0,0.0,0.0,0.0,0.0,0.0,0.0,0.0,0.0,0.0,0.0,0.0,0.0,0.0,0.0,0.0,0.0,0.0,0.0,0.0,0.0,0.0,0.0,0.0,0.0,0.0,0.0,0.0,0.0,0.0,0.0,0.0,1.0015,1.0091,1.0567,1.146,1.1504,1.1504,1.1504,1.1482,1.0871,0.0,0.0,0.0,0.0,0.0,0.0,0.0,0.0,0.0,0.0,0.0,0.0,0.0,0.0,0.0,0.0,0.0,0.0,0.0,0.0,0.0,0.0,0.0,0.0,0.0,0.0,0.0,0.0,0.0,0.0,0.0,0.0,0.0,0.0,0.0,0.0,0.0,0.0,0.0,0.0,0.0,0.8359,0.7864,0.879,1.001,0.0,0.0,0.942,0.8871,0.8745,0.8548,0.8167,0.0,0.0,0.0,0.0,0.0,0.0,0.0,0.0,0.0,0.0,0.0,0.0,0.0,0.0,0.0,0.0,0.0,0.0,0.0,0.0,0.0,0.0,0.0,0.0,0.0,0.0,0.0,0.0,0.0,0.0,0.0,0.0,0.0,0.0,0.0,0.0,0.0,0.0,0.0,0.0,0.0,0.0,0.0,0.0,0.0,0.0,0.0,0.0,0.0,0.0,0.0,0.0,0.0,0.8105,1.0069,1.0186,1.0641,1.1452,1.1504,1.1504,1.1504,1.1238,1.0591,0.0,0.0,0.0,0.0,0.0,0.0,0.0,0.0,0.0,0.0,0.0,0.0,0.0,0.0,0.0,0.0,0.0,0.0,0.0,0.0,0.0,0.0,0.0,0.0,0.0,0.0,0.0,0.0,0.3887,0.4161,0.4016,0.0,0.0,0.0,0.0,0.0,0.0,0.0,0.0,0.0,0.0,0.8023,0.8795,0.9103,0.0,0.0,1.0786,1.0467,1.0186,1.0282,1.0064,0.9154,0.9334,0.0,0.0,0.0,0.0,0.0,0.0,0.0,0.0,0.0,0.0,0.0,0.0,0.0,0.0,0.0,0.0,0.0,0.0,0.0,0.0,0.0,0.0,0.0,0.0,0.0,0.0,0.0,0.0,0.0,0.0,0.0,0.0,0.0,0.0,0.0,0.0,0.0,0.0,0.0,0.0,0.0,0.0,0.0,0.0,0.0,0.0,0.0,0.0,0.0,0.0,0.0,0.0,0.8042,0.9836,1.0082,1.0524,1.122,1.1325,1.1333,1.1341,1.0988,1.036,0.0,0.0,0.0,0.0,0.0,0.0,0.0,0.0,0.0,0.0,0.0,0.0,0.0,0.0,0.0,0.0,0.0,0.0,0.0,0.0,0.0,0.0,0.0,0.0,0.0,0.0,0.0,0.0,0.4366,0.4663,0.4286,0.0,0.0,0.0,0.0,0.0,0.0,0.0,0.0,0.0,0.0,0.8232,0.9044,0.9335,0.9763,1.0497,1.092,1.1143,1.1108,1.125,1.104,1.0154,0.0,0.0,0.0,0.0,0.0,0.0,0.0,0.0,0.0,0.0,0.0,0.0,0.0,0.0,0.0,0.0,0.0,0.0,0.0,0.0,0.0,0.0,0.0,0.0,0.0,0.0,0.0,0.0,0.0,0.0,0.6027,0.0,0.0,0.0,0.0,0.0,0.0,0.0,0.0,0.0,0.0,0.0,0.0,0.0,0.0,0.0,0.0,0.0,0.0,0.0,0.0,0.0,0.0,0.7797,0.9312,0.9742,1.0177,1.062,1.0867,1.1038,1.1027,1.0888,1.0326,0.934,0.0,0.0,0.0,0.0,0.0,0.0,0.0,0.0,0.0,0.0,0.0,0.0,0.0,0.0,0.0,0.0,0.0,0.0,0.0,0.0,0.0,0.0,0.0,0.0,0.0,0.0,0.4416,0.4949,0.4901,0.0,0.0,0.0,0.0,0.0,0.0,0.0,0.0,0.0,0.0,0.8811,0.9261,0.8359,0.9593,1.0581,1.0474,1.084,1.1127,1.1116,1.1066,1.1003,0.0,0.0,0.0,0.0,0.0,0.0,0.0,0.0,0.0,0.0,0.0,0.0,0.0,0.0,0.0,0.0,0.0,0.0,0.0,0.0,0.0,0.0,0.0,0.0,0.0,0.0,0.0,0.8885,0.8251,0.0,0.0,0.0,0.0,0.0,0.0,0.0,0.0,0.0,0.0,0.0,0.9741,1.0395,0.0,0.0,0.0,0.0,0.0,0.0,0.0,0.0,0.0,0.0,0.0,0.0,0.8322,0.9904,1.0222,1.062,1.1182,1.1287,1.1333,1.1333,1.0988,1.0223,0.9009,0.0,0.0,0.0,0.0,0.0,0.0,0.0,0.0,0.0,0.0,0.0,0.0,0.0,0.0,0.0,0.0,0.0,0.0,0.0,0.0,0.0,0.0,0.0,0.0,0.0,0.4698,0.0,0.0,0.0,0.0,0.0,0.0,0.0,0.0,0.0,0.0,0.0,0.7359,0.7955,0.813,0.8801,1.0501,1.0563,1.0675,0.0,0.0,0.0,0.0,0.0,0.0,0.0,0.0,0.0,0.0,0.0,0.0,0.0,0.0,0.9756,0.7994,0.7381,0.7208,0.7435,0.0,0.0,0.0,0.0,0.0,0.0,0.0,0.0,0.0,0.0,0.0,0.0,0.0,0.0,1.0376,0.0,0.9409,0.0,0.0,0.0,0.0,0.0,0.0,0.0,0.0,1.0781,1.1237,1.1145,1.1669,1.1577,0.0,1.0511,0.9723,0.0,0.0,0.0,0.0,0.0,0.0,0.0,0.0,0.8789,1.0238,1.044,1.0686,1.1078,1.1272,1.1333,1.1193,1.0934,1.0223,0.9006,0.8825,0.8336,0.0,0.0,0.0,0.0,0.0,0.0,0.0,0.0,0.0,0.0,0.0,0.0,0.0,0.0,0.0,0.0,0.0,0.0,0.0,0.0,0.0,0.0,0.0,0.5404,0.0,0.0,0.0,0.0,0.0,0.0,0.0,0.0,0.0,0.65,0.6906,0.7474,0.8121,0.8063,0.8896,1.1395,0.0,0.0,0.0,0.0,0.0,0.0,0.0,1.2578,1.2524,1.2372,1.2061,1.1396,1.1577,1.1693,1.135,0.0,0.0,0.8907,0.8065,0.7711,0.7936,0.7641,0.7541,0.8257,0.8363,0.8508,0.0,0.0,0.0,0.0,0.0,0.0,0.0,0.0,1.1417,1.1476,0.0,1.0916,0.0,0.0,0.0,0.0,0.0,1.0588,0.0,0.0,1.1972,1.2358,1.2698,1.2716,1.2523,1.2174,1.2468,1.2036,1.0855,0.8537,0.0,0.0,0.0,0.0,0.0,0.0,0.9142,1.0296,1.0351,1.0351,1.0393,1.0917,1.1025,1.065,1.0744,1.0365,0.9375,0.8927,0.8689,0.8759,0.747,0.0,0.0,0.0,0.0,0.0,0.0,0.0,0.0,0.0,0.0,0.0,0.0,0.0,0.0,0.0,0.0,0.0,0.0,0.0,0.0,0.6423,0.0,0.0,0.0,0.0,0.0,0.0,0.0,0.0,0.0,0.0,0.6226,0.7304,0.822,0.8265,0.0,0.0,0.0,0.0,1.0076,1.1013,1.1299,1.1631,1.2118,1.2106,1.2216,1.2755,0.0,0.0,1.0767,1.1483,1.178,1.0877,1.0861,1.1099,1.1352,1.0785,1.0647,1.1215,1.0366,1.0017,1.0524,1.0362,1.0421,1.3443,0.0,0.0,0.0,0.0,1.3616,1.3864,1.4212,1.4021,1.369,1.335,1.2735,0.0,0.0,0.0,0.0,0.0,0.0,1.2395,1.2791,1.3213,1.3451,1.3562,1.3562,1.336,1.2947,1.2781,1.254,1.2128,1.0897,0.9536,0.8159,0.0,0.0,0.0,0.0,1.0192,1.096,1.1007,1.1128,1.1365,1.1262,1.1105,1.0878,1.0834,1.066,1.037,0.9917,0.9342,0.8689,0.8576,0.0,0.0,0.0,0.0,0.0,0.0,0.0,0.0,0.0,0.0,0.0,0.0,0.0,0.0,0.0,0.0,0.0,0.0,0.0,0.6487,0.6181,0.5975,0.0,0.0,0.0,0.0,0.0,0.0,0.0,0.0,0.0,0.7165,0.7731,0.8443,0.0,0.0,0.9923,1.1458,1.1035,1.0822,1.1567,1.1832,0.0,1.0982,1.1627,1.2164,1.2005,1.1329,1.0851,1.0978,1.0756,1.0572,1.0672,1.0631,1.0641,1.0816,1.0217,0.9753,0.9836,0.9759,0.9717,0.9888,0.9932,0.9937,1.4529,1.4047,1.3987,1.4247,1.4661,1.4346,1.4594,1.5269,1.5142,1.5061,1.5047,1.4488,1.3837,1.3121,1.2588,0.0,0.0,0.0,1.3644,1.4049,1.4258,1.4442,1.4588,1.4628,1.4313,1.3782,1.3525,1.3259,1.2937,1.2459,1.1522,1.0211,0.0,0.0,1.0072,1.0364,1.0894,1.1583,1.1461,1.1476,1.1669,1.1396,1.1246,1.1235,1.1164,1.1021,1.0802,1.0354,0.9828,0.9218,0.8909,0.8464,0.0,0.0,0.0,0.0,0.0,0.0,0.0,0.0,0.0,0.0,0.0,0.4598,0.3816,0.0,0.0,0.0,0.5884,0.6695,0.6509,0.6532,0.0,0.0,0.0,0.0,0.0,0.0,0.0,0.7724,0.8176,0.8377,0.8094,0.8601,0.9004,0.8973,0.8989,0.9608,1.1267,0.0,1.0627,1.1391,1.1737,1.1656,1.0914,1.1386,1.1741,1.1422,1.1077,1.0945,1.1221,1.0527,1.0122,1.0508,1.043,1.0235,1.0361,0.9957,0.9687,0.9763,0.9926,1.0052,1.0166,1.0197,1.0228,1.5497,1.5155,1.3813,1.4019,1.5076,1.4313,1.4673,1.5752,1.5445,1.5886,1.689,1.6166,1.5817,1.5767,1.5029,0.0,1.4668,1.4671,1.4873,1.523,1.5212,1.5386,1.5758,1.5735,1.534,1.4607,1.4607,1.4203,1.347,1.3415,1.3213,1.2772,1.1665,1.1255,1.1568,1.1246,1.143,1.2128,1.1788,1.1568,1.1504,1.1409,1.1418,1.1521,1.1571,1.1322,1.0782,1.0332,1.0091,1.0004,0.8784,0.8246,0.8535,0.0,0.0,0.0,0.0,0.0,0.0,0.0,0.0,0.0,0.0,0.0,0.0,0.0,0.0,0.0,0.6618,0.0,0.664,0.7218,0.0,0.0,0.0,0.7005,0.7467,0.79,0.8195,0.8294,0.0,0.0,0.8999,0.9674,0.9699,0.8466,0.8429,0.9067,1.058,1.0215,0.9994,1.098,1.1316,1.1474,1.1322,1.1226,1.111,1.0979,1.0942,1.1069,1.1307,1.0672,1.0212,1.0641,1.0328,1.0042,1.003,1.0289,1.0467,1.0718,1.0709,1.075,1.0919,1.0964,1.1019,1.5511,1.5915,1.4972,1.539,1.6653,1.6455,1.6807,1.7486,1.7396,1.7379,1.7348,1.7147,1.6899,1.6606,1.6413,1.6331,1.6321,1.6019,1.6068,1.645,1.6166,1.6074,1.6166,1.6175,1.5909,1.5432,1.5404,1.5148,1.468,1.4368,1.4011,1.3608,1.3029,1.2625,1.2432,1.2599,1.267,1.2577,1.2459,1.2119,1.1531,1.1681,1.148,1.0928,1.1369,1.1225,1.0453,1.0204,0.9911,0.9515,0.9535,0.9273,0.8636,0.8301,0.0,0.0,0.0,0.0,0.0,0.0,0.0,0.0,0.0,0.6728,0.5116,0.0,0.63,0.0,0.6332,0.6914,0.7503,0.722,0.0,0.0,0.6686,0.6696,0.754,0.7223,0.7492,0.9018,0.8779,0.8863,0.9777,0.9808,0.9627,0.9254,1.0412,1.098,1.0066,1.0611,1.1312,1.1799,1.1734,1.1409,1.1017,1.0721,1.0621,1.0546,1.055,1.057,1.0677,1.0479,1.0443,1.0834,1.0846,1.0865,1.1105,1.1259,1.1304,1.1353,1.1031,1.0705,1.0777,1.0803,1.0813,1.5659,1.6018,1.5574,1.5997,1.6928,1.6453,1.6654,1.7315,1.7547,1.7657,1.7625,1.7733,1.766,1.7458,1.7449,1.744,1.7431,1.7185,1.7238,1.7422,1.7027,1.6844,1.6835,1.6661,1.6367,1.5973,1.5973,1.5762,1.5368,1.5148,1.4827,1.4462,1.4203,1.3892,1.3497,1.336,1.3176,1.2983,1.2781,1.2395,1.1798,1.1905,1.1752,1.1274,1.154,1.1487,1.0991,1.0513,1.0204,1.0036,0.9932,0.9691,0.9294,0.9025,0.8687,0.0,0.0,0.0,0.0,0.0,0.0,0.0,0.0,0.0,0.0,0.0,0.6779,0.6297,0.6704,0.7186,0.7674,0.7509,0.7547,0.7947,0.7444,0.7448,0.8394,0.795,0.8075,0.935,0.9157,0.9133,0.9791,1.0061,1.0168,1.0152,1.1364,1.1778,1.0497,1.0652,1.1271,1.2121,1.1913,1.1589,1.1397,1.115,1.0998,1.1153,1.1021,1.0928,1.112,1.0938,1.0823,1.1034,1.0891,1.0849,1.1244,1.1333,1.1378,1.15,1.1327,1.107,1.0897,1.087,1.0855,1.5825,1.5825,1.5825,1.6087,1.65,1.5534,1.5645,1.6507,1.6943,1.7446,1.7987,1.8261,1.8365,1.831,1.8319,1.8292,1.8275,1.8182,1.8164,1.8136,1.777,1.7578,1.7559,1.7174,1.6798,1.6443,1.6379,1.6166,1.578,1.5771,1.557,1.5194,1.5129,1.4928,1.457,1.3827,1.3433,1.3369,1.2983,1.2579,1.2183,1.2183,1.2076,1.1855,1.1873,1.1837,1.1646,1.0944,1.0653,1.0791,1.0192,0.9926,1.0091,0.9717,0.9434,0.0,0.8807,0.0,0.0,0.0,0.0,0.0,0.0,0.0,0.0,0.7449,0.7538,0.6978,0.7442,0.7769,0.7711,0.7976,0.8348,0.8803,0.842,0.8396,0.9154,0.9014,0.8992,0.9396,0.9355,0.9304,0.9541,1.0195,1.066,1.0766,1.1388,1.1634,1.1045,1.0714,1.1064,1.2131,1.1892,1.1726,1.2058,1.1861,1.168,1.203,1.186,1.171,1.1908,1.1581,1.126,1.1205,1.0844,1.0661,1.1061,1.1165,1.1291,1.1631,1.1703,1.1605,1.1281,1.117,1.1096,1.5825,1.5825,1.5825,1.5893,1.5927,1.5732,1.6288,1.7339,1.7451,1.8042,1.8888,1.9671,1.9838,1.9555,1.9555,1.9363,1.9063,1.8742,1.8605,1.8586,1.8192,1.8009,1.7981,1.7587,1.7348,1.7257,1.6954,1.6587,1.6202,1.6202,1.5982,1.5579,1.5267,1.5065,1.4974,0.0,0.0,0.0,1.3415,1.3001,1.2597,1.2579,1.2264,1.1611,1.1766,0.0,1.0874,1.093,1.0825,1.0517,1.0968,0.0,0.0,0.0,0.0,0.0,0.0,0.0,0.0,0.0,0.0,0.0,0.7993,0.8039,0.7738,0.8287,0.8379,0.7713,0.8358,0.8818,0.8785,0.8567,0.8403,0.8341,0.7822,0.7645,0.8079,0.8397,0.8703,0.9031,0.8545,0.8528,0.9421,0.9485,0.9646,1.0312,1.0577,1.0734,1.0884,1.1386,1.184,1.1913,1.1726,1.1757,1.2235,1.1923,1.1778,1.2131,1.2226,1.2026,1.1789,1.1727,1.1623,1.1468,1.1099,1.1024,1.1714,1.1896,1.1844,1.2002,1.2222,1.2228,1.1638,1.1513,1.149,1.5825,0.0,1.5825,1.5825,0.0,1.5825,1.6439,1.7447,1.7228,1.7906,1.9153,2.009,2.0411,2.0177,2.0177,1.9957,1.9604,1.9412,1.921,1.899,1.8595,1.8374,1.8365,1.7999,1.7697,1.7486,1.7293,1.7,1.6624,1.6615,1.6404,1.6001,1.5799,1.5496,1.5102,1.4708,1.4304,1.3911,1.3709,1.3304,1.2726,1.2689,1.2413,1.1834,1.1933,0.0,0.0,0.0,0.0,0.0,0.0,0.0,0.0,0.0,0.0,1.0176,0.9887,0.9628,0.9405,0.9668,0.963,0.9164,0.8928,0.8658,0.8369,0.8645,0.8655,0.8201,0.8565,0.8797,0.8746,0.8557,0.8536,0.8684,0.8291,0.8184,0.857,0.8526,0.8686,0.9173,0.8932,0.8961,0.9512,0.943,0.9459,0.9893,1.0157,1.038,1.0613,1.1173,1.1582,1.1664,1.1654,1.1757,1.2151,1.2141,1.2006,1.2256,1.2297,1.2214,1.1996,1.1871,1.1767,1.1632,1.1262,1.1052,1.1389,1.1645,1.1866,1.2077,1.2354,1.2506,1.2156,1.2051,1.1886,1.5825,1.5825,1.5825,1.5825,1.5825,1.5825,1.6251,1.703,0.0,0.0,0.0,2.0305,2.0653,2.0631,2.0622,2.0402,1.9994,1.9921,1.9742,1.9402,1.8999,1.8815,1.8797,1.8374,1.8045,1.7724,1.7633,1.7403,1.7018,1.7009,1.6817,1.645,1.6358,1.5909,1.5129,1.4781,1.4414,1.402,1.4021,1.3663,1.2937,1.2909,1.268,1.222,1.2202,1.2018,1.1632,1.1283,1.1077,1.0939,1.07,1.0744,1.1132,1.123,1.1227,1.1175,1.1303,1.1297,1.1034,1.1294,1.1203,1.0567,0.9773,0.9168,0.8818,0.8873,0.8825,0.8633,0.8627,0.8602,0.8549,0.855,0.873,0.9224,0.898,0.8979,0.9423,0.9048,0.896,0.95,0.9556,0.9582,0.9647,0.9603,0.9652,0.9797,1.0078,1.0327,1.0466,1.0784,1.1096,1.1384,1.1426,1.1612,1.2048,1.2141,1.2204,1.2276,1.2297,1.2297,1.2287,1.2192,1.2068,1.1809,1.1313,1.0992,1.093,1.1193,1.1497,1.1811,1.2156,1.2395,1.2396,1.2433,1.2328,1.5825,1.5825,1.5825,1.5825,1.5825,1.5825,1.5872,1.6244,1.8678,1.9921,2.0185,2.1105,2.1321,2.1025,2.1025,2.0805,2.0378,2.0049,1.9857,1.9783,1.9412,1.9219,1.9191,1.8815,1.8566,1.8513,1.8155,1.7825,1.7449,1.7413,1.7202,1.6826,1.6453,1.5918,1.5157,1.5047,1.4818,1.4433,1.4394,1.4194,1.3755,1.3717,1.3378,1.2652,1.2615,1.2422,1.2036,1.1945,1.1923,1.1916,1.2182,1.217,1.1785,1.2074,1.211,1.1687,1.1035,1.0527,1.0273,1.0211,1.0319,1.062,1.0335,0.9758,0.8906,0.9096,0.9251,0.905,0.9127,0.919,0.9177,0.9127,0.9165,0.922,0.9128,0.916,0.9448,0.9576,0.9674,0.9817,0.9591,0.9556,0.9766,0.9611,0.9705,1.0199,1.0247,1.0329,1.0951,1.0967,1.0946,1.0983,1.0993,1.1199,1.1674,1.1695,1.1923,1.2245,1.2297,1.2297,1.2297,1.2803,1.2853,1.1995,1.1479,1.1086,1.0993,1.0938,1.1103,1.1227,1.1515,1.1719,1.1774,1.2159,1.2626,1.5825,1.5825,1.5825,1.6109,1.6669,1.777,1.7909,1.7677,1.9985,2.0439,1.9613,2.0529,2.1114,2.1412,2.1447,2.1227,2.079,2.0649,2.0338,1.9893,1.9692,1.9522,1.9292,1.9109,1.8916,1.8715,1.854,1.82,1.7844,1.7605,1.7403,1.7193,1.6624,1.6129,1.5771,1.5533,1.5221,1.4836,1.4625,1.4304,1.3892,1.3873,1.3626,1.3047,1.3029,1.2735,1.2128,1.2076,1.1899,1.1458,1.1626,1.1671,1.1582,1.1753,1.1755,1.1538,1.1351,1.1156,1.0885,1.0792,1.0861,1.1119,1.0819,1.0456,0.9983,1.0104,1.0104,0.9887,0.9911,0.9936,0.9975,0.9988,1.0014,1.0014,1.0062,1.006,1.0043,1.0345,1.0472,1.0232,0.9906,0.9723,0.9882,0.9779,0.9771,1.0172,1.0357,1.0934,1.1842,1.191,1.1788,1.158,1.1775,1.1944,1.1996,1.1965,1.2089,1.2287,1.2297,1.2297,1.2359,1.3,1.3258,1.2915,1.2534,1.2254,1.1964,1.154,1.1344,1.129,1.1348,1.1493,1.159,1.209,1.2691,1.5825,1.5825,1.5825,1.6393,1.7419,1.8972,1.9293,1.8972,2.0402,2.0303,1.9384,2.0167,2.1033,2.1642,2.1687,2.1513,2.1264,2.1145,2.0778,2.0218,1.9976,1.971,1.9457,1.9356,1.9136,1.8871,1.8843,1.8641,1.8256,1.7926,1.766,1.744,1.6789,1.637,1.6288,1.6001,1.5634,1.5239,1.4836,1.4442,1.4047,1.4049,1.3865,1.3461,1.3424,1.3085,1.2432,1.2376,1.2082,1.1485,1.1453,1.1524,1.1733,1.1662,1.1614,1.1633,1.1728,1.1705,1.1513,1.1572,1.1678,1.177,1.1476,1.1352,1.1421,1.143,1.1223,1.0831,1.0771,1.0788,1.0818,1.0913,1.0976,1.092,1.0998,1.0992,1.0795,1.1022,1.1141,1.0822,1.0438,1.0224,1.031,1.0327,1.028,1.0314,1.0874,1.1739,1.2302,1.2637,1.2669,1.2433,1.2602,1.2738,1.2483,1.2317,1.2297,1.2297,1.2297,1.237,1.2462,1.2844,1.3194,1.3276,1.3548,1.3227,1.277,1.2203,1.182,1.1747,1.1642,1.1529,1.1538,1.2,1.2585,1.5825,1.5825,1.5825,1.6393,1.7279,1.7552,1.8102,1.8788,1.9026,1.9521,2.0249,2.1141,2.1597,2.1687,2.1687,2.1659,2.1577,2.1273,2.1062,2.0897,2.0255,1.9866,1.9783,1.9485,1.9283,1.9237,1.9219,1.9017,1.8669,1.8539,1.8201,1.7532,1.7064,1.667,1.6358,1.6242,1.6056,1.5634,1.5249,1.4854,1.4478,1.4451,1.4249,1.3837,1.3827,1.3663,1.3203,1.3176,1.314,1.3075,1.302,1.3066,1.3065,1.2768,1.2565,1.2529,1.1947,1.1513,1.155,1.1819,1.2202,1.2533,1.2523,1.2634,1.2974,1.303,1.258,1.1746,1.1598,1.1679,1.1681,1.1807,1.1782,1.1581,1.1636,1.1649,1.1431,1.1292,1.1344,1.1845,1.1185,1.1114,1.1419,1.1344,1.1146,1.0867,1.1555,1.2126,1.2031,1.2711,1.3246,1.2882,1.2878,1.2884,1.2804,1.2523,1.2343,1.2304,1.2286,1.2367,1.2459,1.2037,1.1613,1.3248,1.361,1.3369,1.2946,1.2441,1.2245,1.2162,1.1923,1.1583,1.1564,1.1863,1.2286,1.5825,1.5825,1.5825,1.6015,1.6527,1.7684,1.8427,1.8842,1.943,2.0204,2.1087,2.1553,2.1687,2.1687,2.1687,2.1687,2.1678,2.1513,2.1293,2.1099,2.0769,2.0342,1.9893,1.9729,1.9549,1.9311,1.9292,1.9219,1.9008,1.8566,1.8064,1.7513,1.7101,1.6826,1.6679,1.6661,1.6459,1.6065,1.5909,1.5515,1.4909,1.4604,1.4433,1.4277,1.4249,1.4066,1.3699,1.3644,1.3534,1.3323,1.3296,1.3296,1.3296,1.3157,1.3056,1.302,1.2772,1.2553,1.2562,1.2735,1.2891,1.3056,1.3066,1.3148,1.3286,1.3534,1.3433,1.302,1.2794,1.2669,1.2679,1.2787,1.276,1.2629,1.2524,1.2366,1.2135,1.1805,1.1656,1.1675,1.1304,1.1082,1.1328,1.1289,1.1233,1.1265,1.1754,1.1973,1.2307,1.2872,1.3315,1.3696,1.3598,1.3309,1.3068,1.2459,1.2299,1.2375,1.2131,1.1985,1.2355,1.2213,1.212,1.3093,1.339,1.3514,1.3328,1.2915,1.2648,1.2555,1.2307,1.1944,1.1642,1.1896,1.2102,1.5851,1.5838,1.6109,1.6204,1.6386,1.8056,1.8926,1.9301,1.9977,2.0808,2.1642,2.1687,2.1687,2.1687,2.1687,2.1687,2.1687,2.1687,2.1531,2.1291,2.1163,2.0796,2.0232,1.9976,1.9729,1.9494,1.9356,1.9292,1.9228,1.8632,1.8082,1.7669,1.7266,1.7009,1.6917,1.6908,1.6771,1.6462,1.6376,1.5986,1.5469,1.5038,1.4735,1.4513,1.4485,1.4359,1.4075,1.4057,1.3928,1.3653,1.3635,1.3626,1.3626,1.3525,1.3415,1.3323,1.3406,1.3451,1.3451,1.3561,1.3635,1.3626,1.3626,1.3626,1.3671,1.3892,1.4038,1.4002,1.3791,1.3598,1.346,1.3435,1.3352,1.3158,1.3061,1.2943,1.2381,1.1941,1.1603,1.1563,1.1272,1.1042,1.1114,1.1161,1.1225,1.1304,1.1459,1.1636,1.2297,1.2554,1.2998,1.37,1.3541,1.3464,1.3239,1.2784,1.2561,1.2763,1.2638,1.2556,1.2709,1.2751,1.267,1.3338,1.3483,1.3535,1.3473,1.3225,1.2987,1.2863,1.2648,1.2317,1.1933,1.2135,1.2129,1.6086,1.5981,1.6864,1.7239,1.7326,1.8334,1.9338,2.0121,2.0294,2.0808,2.1642,2.1687,2.1687,2.1687,2.1687,2.1687,2.1687,2.1687,2.1668,2.1586,2.13,2.1099,2.0998,2.0259,1.9884,1.9833,1.9472,1.932,1.9274,1.888,1.8485,1.8054,1.7651,1.7266,1.6982,1.6927,1.6899,1.6817,1.6489,1.626,1.616,1.5826,1.5267,1.4662,1.4504,1.4515,1.4469,1.4478,1.4451,1.4442,1.4405,1.4394,1.4375,1.4057,1.3699,1.3424,1.3671,1.3855,1.3901,1.4176,1.4366,1.4423,1.4359,1.4394,1.4321,1.4366,1.4423,1.444,1.4357,1.4231,1.3882,1.3692,1.3316,1.28,1.3244,1.3048,1.2099,1.1585,1.1369,1.1603,1.1298,1.1069,1.1352,1.1499,1.1292,1.1153,1.1281,1.1456,1.1367,1.1728,1.2131,1.2322,1.2574,1.2907,1.352,1.3019,1.3095,1.3296,1.3259,1.3691,1.3897,1.3921,1.369,1.3524,1.3555,1.3586,1.3586,1.3483,1.3297,1.3142,1.3018,1.271,1.2328,1.2542,1.2495,1.7475,1.7731,1.8102,1.8241,1.8295,1.8657,1.9338,2.0249,2.0303,2.0808,2.1597,2.1687,2.1687,2.1687,2.1687,2.1687,2.1687,2.1687,2.1687,2.1678,2.154,2.1321,2.1089,2.0796,2.0383,1.9912,1.9738,1.9558,1.9274,1.8907,1.865,1.8412,1.7825,1.7403,1.7257,1.7027,1.6908,1.689,1.6752,1.6569,1.6315,1.6166,1.5817,1.5304,1.5019,1.4763,1.4494,1.4485,1.4485,1.4485,1.4485,1.4485,1.4476,1.4368,1.4231,1.4083,1.4203,1.4286,1.4304,1.4423,1.4485,1.4485,1.4485,1.4485,1.4485,1.4485,1.4485,1.4485,1.4485,1.4323,1.4047,1.4034,1.4055,1.3823,1.3586,1.3272,1.2658,1.2008,1.1524,1.1301,1.0929,1.0751,1.0942,1.1061,1.1026,1.0791,1.0963,1.1114,1.1114,1.1408,1.1805,1.2011,1.2343,1.2704,1.2923,1.2668,1.2515,1.2854,1.3074,1.3393,1.3616,1.3956,1.3851,1.385,1.3813,1.3648,1.3659,1.3566,1.3445,1.3411,1.3287,1.308,1.2772,1.2898,1.27,1.8386,1.8986,1.9333,1.9214,1.8834,1.9155,1.9658,2.0303,2.0294,2.0853,2.1597,2.1687,2.1687,2.1687,2.1687,2.1687,2.1687,2.1687,2.1687,2.1687,2.1687,2.1585,2.1284,2.1172,2.0833,2.0287,1.9994,1.9714,1.9311,1.9036,1.8843,1.8669,1.8137,1.7743,1.7504,1.722,1.7046,1.6945,1.6908,1.6762,1.6498,1.6514,1.6303,1.5927,1.5634,1.5239,1.4726,1.4558,1.4485,1.4485,1.4485,1.4485,1.4485,1.4485,1.4485,1.4485,1.4485,1.4485,1.4485,1.4485,1.4485,1.4485,1.4485,1.4485,1.4485,1.4485,1.4485,1.4485,1.4485,1.4368,1.4222,1.4341,1.4375,1.405,1.3531,1.3134,1.284,1.2355,1.1825,1.1327,1.1045,1.0878,1.082,1.1034,1.1106,1.0963,1.1193,1.1304,1.1328,1.1635,1.1813,1.198,1.2313,1.2543,1.2718,1.2538,1.2637,1.2944,1.3058,1.3288,1.3579,1.3909,1.4084,1.4145,1.4057,1.3837,1.37,1.3641,1.3621,1.3621,1.3548,1.3349,1.3217,1.3165,1.2953,1.8857,1.9659,2.0504,2.0209,1.932,2.0027,2.032,2.0393,2.0385,2.0943,2.1651,2.1687,2.1687,2.1687,2.1687,2.1687,2.1687,2.1687,2.1687,2.1687,2.1687,2.1678,2.1614,2.1328,2.1126,2.0943,2.0241,1.9692,1.9366,1.9283,1.9081,1.8788,1.864,1.8256,1.7541,1.7504,1.7284,1.7027,1.6945,1.689,1.6899,1.6862,1.6688,1.6358,1.6224,1.5849,1.5157,1.4763,1.4522,1.4494,1.4485,1.4485,1.4485,1.4485,1.4485,1.4485,1.4485,1.4485,1.4485,1.4485,1.4485,1.4494,1.4504,1.4579,1.4598,1.4595,1.4613,1.4632,1.4604,1.4561,1.4579,1.4616,1.4243,1.3182,1.3135,1.2986,1.2675,1.2432,1.2175,1.1664,1.1447,1.1471,1.1515,1.159,1.1694,1.186,1.1972,1.1924,1.185,1.2168,1.2328,1.2144,1.2375,1.271,1.2662,1.2644,1.294,1.3201,1.3241,1.3351,1.3722,1.4044,1.4099,1.4142,1.4166,1.3973,1.3886,1.3793,1.3679,1.3659,1.3617,1.361,1.3507,1.3382,1.3266,2.1204,2.1802,2.2131,2.1908,2.1276,2.157,2.1527,2.1284,2.1275,2.141,2.1687,2.1687,2.1687,2.1687,2.1687,2.1687,2.1687,2.1687,2.1687,2.1687,2.1687,2.1687,2.1659,2.1603,2.1339,2.1016,2.0268,1.9829,1.9655,1.9399,1.9228,1.91,1.8843,1.8595,1.8293,1.7798,1.7413,1.7303,1.7037,1.6908,1.6908,1.6908,1.6844,1.6716,1.6425,1.6175,1.5885,1.5276,1.4769,1.4522,1.4485,1.4485,1.4485,1.4485,1.4485,1.4485,1.4485,1.4485,1.4485,1.4494,1.4504,1.4549,1.4763,1.49,1.4955,1.5157,1.5285,1.5304,1.5322,1.5322,1.5322,1.5322,1.4915,1.4105,1.3801,1.3646,1.3436,1.2905,1.2311,1.1969,1.1853,1.1853,1.1956,1.2186,1.2519,1.2487,1.2607,1.2591,1.22,1.2614,1.2789,1.2495,1.2773,1.2965,1.2941,1.2837,1.2888,1.2942,1.2967,1.2947,1.3388,1.3837,1.3924,1.4251,1.4277,1.4262,1.4154,1.4041,1.3969,1.3762,1.37,1.3683,1.3631,1.3548,1.3411,2.2491,2.3085,2.3133,2.2895,2.2529,2.2519,2.2282,2.1943,2.1906,2.1824,2.1723,2.1687,2.1687,2.1687,2.1687,2.1687,2.1687,2.1687,2.1687,2.1687,2.1687,2.1687,2.1687,2.1687,2.1476,2.1071,2.0406,2.0031,1.9866,1.9512,1.9292,1.9237,1.9045,1.8843,1.8705,1.8229,1.7899,1.7697,1.7339,1.7128,1.7092,1.6982,1.6908,1.6872,1.6627,1.6443,1.627,1.5799,1.5359,1.5029,1.4946,1.4827,1.454,1.4604,1.4671,1.4543,1.4524,1.457,1.4698,1.4723,1.4808,1.4955,1.5184,1.5313,1.5359,1.5579,1.568,1.5689,1.567,1.5689,1.568,1.568,1.545,1.5019,1.4783,1.459,1.4369,1.3689,1.3141,1.2902,1.2724,1.2599,1.2734,1.2901,1.3291,1.3196,1.3314,1.3473,1.3028,1.3251,1.3251,1.3219,1.3275,1.3346,1.3275,1.3116,1.2869,1.2685,1.2546,1.2446,1.2564,1.3065,1.3348,1.4412,1.4755,1.4925,1.4863,1.4645,1.45,1.421,1.3938,1.3941,1.3941,1.3693,1.3545,2.2968,2.3496,2.3526,2.3297,2.2959,2.294,2.2666,2.2337,2.23,2.2034,2.1751,2.1687,2.1687,2.1687,2.1687,2.1687,2.1687,2.1687,2.1687,2.1687,2.1687,2.1687,2.1687,2.1687,2.1495,2.119,2.0759,2.0351,2.0076,1.9632,1.9329,1.9375,1.9301,1.9127,1.8825,1.8724,1.8458,1.81,1.7743,1.7532,1.7504,1.7156,1.6972,1.6972,1.6899,1.6716,1.6441,1.6288,1.6059,1.5735,1.5588,1.5285,1.4818,1.4937,1.4974,1.4677,1.4577,1.4818,1.5056,1.5129,1.5249,1.5524,1.5652,1.5758,1.5753,1.5845,1.5918,1.59,1.5881,1.5835,1.5845,1.5854,1.5817,1.5771,1.5583,1.5419,1.5186,1.4581,1.4137,1.4007,1.3842,1.3618,1.3554,1.3642,1.3807,1.3974,1.4069,1.4082,1.4185,1.4122,1.4248,1.4114,1.3854,1.3711,1.3616,1.3394,1.3172,1.2877,1.2623,1.246,1.2249,1.2642,1.3412,1.4439,1.5168,1.5385,1.5432,1.5173,1.4945,1.4718,1.4531,1.4407,1.4262,1.4076,1.3972,2.3831,2.4045,2.3996,2.3758,2.3361,2.3343,2.2931,2.2373,2.2337,2.2089,2.176,2.1687,2.1687,2.1687,2.1687,2.1687,2.1687,2.1687,2.1687,2.1687,2.1687,2.1687,2.1687,2.1687,2.1632,2.1458,2.1117,2.0906,2.075,2.0063,1.971,1.971,1.9439,1.9265,1.9127,1.8861,1.8678,1.8484,1.8118,1.7954,1.7899,1.755,1.7339,1.7312,1.7073,1.6872,1.6762,1.6752,1.6404,1.5753,1.5689,1.5625,1.5395,1.5469,1.5469,1.5349,1.5349,1.5404,1.5496,1.5533,1.5597,1.5698,1.6001,1.6156,1.6166,1.6431,1.6551,1.6587,1.6587,1.656,1.6569,1.6551,1.656,1.6505,1.6092,1.5633,1.534,1.5059,1.4765,1.4321,1.4345,1.4283,1.4108,1.4191,1.4331,1.4399,1.4439,1.4454,1.4534,1.455,1.4478,1.4407,1.4236,1.4077,1.391,1.3696,1.3433,1.3148,1.2949,1.2821,1.2657,1.2679,1.3681,1.479,1.5263,1.5532,1.5598,1.5525,1.5349,1.5225,1.4987,1.4831,1.4811,1.4697,1.4645,2.4211,2.4211,2.4211,2.4064,2.3813,2.3794,2.3428,2.2878,2.2602,2.2318,2.197,2.1751,2.1687,2.1687,2.1687,2.1687,2.1687,2.1687,2.1687,2.1687,2.1687,2.1687,2.1687,2.1687,2.1687,2.1641,2.131,2.1117,2.0952,2.0268,1.993,1.9802,1.9512,1.9301,1.9283,1.9109,1.8953,1.8889,1.8548,1.8338,1.8339,1.7972,1.7789,1.7678,1.7367,1.7101,1.6945,1.6899,1.6661,1.6303,1.6202,1.6101,1.589,1.5927,1.5872,1.5725,1.5689,1.5744,1.5927,1.5955,1.6037,1.6193,1.6468,1.6498,1.6562,1.6798,1.6908,1.6881,1.6908,1.6908,1.6908,1.6908,1.6908,1.6817,1.6477,1.6136,1.5945,1.5813,1.5509,1.5214,1.5095,1.5013,1.4595,1.4735,1.4708,1.4669,1.4565,1.4573,1.4597,1.4605,1.4589,1.451,1.4478,1.4328,1.4256,1.409,1.3918,1.3592,1.3362,1.3219,1.3019,1.294,1.3828,1.4777,1.5264,1.5652,1.5776,1.5886,1.5918,1.5742,1.5463,1.5297,1.5287,1.5204,1.5173,2.4211,2.4211,2.4211,2.4211,2.4183,2.4192,2.3859,2.3453,2.3105,2.2693,2.23,2.1897,2.176,2.1687,2.1687,2.1687,2.1687,2.1687,2.1687,2.1687,2.1687,2.1687,2.1678,2.1577,2.1559,2.1495,2.1236,2.1044,2.0814,2.0204,1.9921,1.9793,1.9512,1.932,1.9292,1.9274,1.9292,1.9201,1.8944,1.8779,1.8705,1.8403,1.8192,1.8119,1.7779,1.7385,1.7119,1.7,1.6936,1.689,1.6908,1.6615,1.6257,1.6288,1.6221,1.5982,1.5955,1.6074,1.6294,1.6386,1.6462,1.6752,1.6835,1.6908,1.6872,1.6899,1.6908,1.6908,1.6908,1.6908,1.6908,1.6908,1.6963,1.6972,1.6927,1.6899,1.693,1.6649,1.6342,1.6272,1.6,1.5692,1.5409,1.524,1.5133,1.4892,1.4776,1.4705,1.4669,1.4605,1.4605,1.4581,1.4573,1.4589,1.4557,1.4534,1.4344,1.414,1.3918,1.3705,1.3381,1.3457,1.4063,1.4745,1.5355,1.5811,1.6045,1.6195,1.6285,1.6236,1.5915,1.5794,1.5742,1.5618,1.5535,2.4211,2.4211,2.4211,2.4211,2.4211,2.4202,2.3923,2.3499,2.3407,2.295,2.2382,2.2181,2.1961,2.1687,2.1687,2.1687,2.1687,2.1687,2.1687,2.1687,2.1687,2.1687,2.1614,2.1403,2.1264,2.1181,2.0851,2.0668,2.0521,2.0195,1.9893,1.9829,1.9531,1.9292,1.9292,1.9292,1.9292,1.9283,1.9191,1.9136,1.9063,1.8788,1.8577,1.8522,1.8183,1.7798,1.7458,1.7367,1.722,1.7,1.6917,1.6862,1.6716,1.6716,1.667,1.6606,1.6587,1.6661,1.6752,1.6752,1.6817,1.6917,1.6963,1.6908,1.6908,1.6963,1.6945,1.6917,1.6908,1.6991,1.7009,1.6936,1.7101,1.7266,1.7165,1.7211,1.7551,1.7187,1.6702,1.6465,1.6334,1.607,1.5753,1.5777,1.5556,1.5193,1.5059,1.4935,1.4868,1.4772,1.4744,1.48,1.4716,1.4716,1.4605,1.4605,1.4518,1.4415,1.4264,1.4172,1.3848,1.3762,1.4282,1.4881,1.5535,1.5961,1.6397,1.6359,1.6446,1.6363,1.633,1.6205,1.6053,1.596,1.5898,2.4211,2.4211,2.4211,2.4211,2.4211,2.4202,2.4073,2.3813,2.3572,2.3151,2.262,2.2428,2.2062,2.1705,2.1687,2.1687,2.1687,2.1687,2.1687,2.1687,2.1687,2.1687,2.1604,2.1302,2.1099,2.1034,2.0714,2.0539,2.042,2.0095,1.9893,1.9857,1.9512,1.9311,1.9292,1.9292,1.9292,1.9292,1.9292,1.9292,1.9237,1.9109,1.8861,1.8733,1.8495,1.821,1.7834,1.7789,1.7678,1.7486,1.7293,1.7092,1.6936,1.6908,1.6908,1.6908,1.6908,1.6908,1.6908,1.6917,1.6991,1.7174,1.7183,1.7312,1.7413,1.7477,1.7441,1.7441,1.7495,1.7486,1.7477,1.7486,1.7623,1.7642,1.7614,1.7697,1.788,1.7568,1.7213,1.7108,1.7198,1.7,1.6774,1.6524,1.6404,1.617,1.6122,1.6003,1.5696,1.5564,1.5225,1.512,1.5003,1.4863,1.466,1.4605,1.4605,1.4542,1.4494,1.4423,1.4271,1.4287,1.4379,1.5009,1.5657,1.6478,1.6869,1.6757,1.6626,1.6645,1.6622,1.6477,1.6381,1.628,1.6229,2.4211,2.4211,2.4211,2.4211,2.4211,2.4211,2.4202,2.4137,2.3794,2.3343,2.2904,2.2519,2.2172,2.1769,2.1687,2.1687,2.1687,2.1687,2.1687,2.1687,2.1687,2.1687,2.1595,2.1302,2.1099,2.1053,2.0594,2.0393,2.0191,2.0017,1.9719,1.971,1.9503,1.9311,1.9292,1.9292,1.9292,1.9292,1.9292,1.9292,1.9292,1.9265,1.91,1.8907,1.8825,1.8605,1.8302,1.8201,1.8118,1.8072,1.7779,1.744,1.7174,1.6936,1.6908,1.6917,1.6982,1.7064,1.7101,1.7138,1.7312,1.7578,1.7596,1.7734,1.7944,1.8018,1.7962,1.799,1.7972,1.7972,1.8109,1.8009,1.8036,1.8127,1.8136,1.8145,1.8173,1.7935,1.7862,1.7908,1.777,1.7568,1.7539,1.741,1.7303,1.7203,1.7136,1.6948,1.6598,1.6244,1.585,1.5437,1.5253,1.5229,1.5041,1.466,1.4653,1.4748,1.4716,1.4629,1.4597,1.454,1.4604,1.5111,1.5785,1.6516,1.6936,1.6776,1.6729,1.6878,1.6996,1.6964,1.6808,1.6651,1.6651,2.4211,2.4211,2.4211,2.4211,2.4211,2.4211,2.4211,2.4192,2.411,2.362,2.2959,2.2821,2.2364,2.187,2.1687,2.1687,2.1687,2.1687,2.1687,2.1687,2.1687,2.1687,2.1604,2.1383,2.1154,2.0897,2.0484,2.0035,1.9677,1.943,1.9476,1.9412,1.9347,1.9292,1.9338,1.9301,1.9384,1.9439,1.9402,1.9366,1.9366,1.9301,1.9274,1.9136,1.9127,1.8962,1.8705,1.8595,1.8467,1.8127,1.8027,1.7953,1.7779,1.7312,1.7037,1.7064,1.7257,1.7403,1.7422,1.7697,1.7889,1.8009,1.8018,1.8036,1.8109,1.8136,1.8275,1.8191,1.8173,1.8174,1.8081,1.82,1.8339,1.844,1.843,1.843,1.8797,1.8715,1.8366,1.8283,1.821,1.8145,1.817,1.814,1.8006,1.7872,1.7787,1.7395,1.6898,1.6627,1.6329,1.5921,1.5508,1.5547,1.5515,1.4993,1.4748,1.499,1.4975,1.4756,1.47,1.4621,1.4801,1.5084,1.5512,1.613,1.6412,1.6753,1.7119,1.7421,1.7461,1.744,1.7305,1.715,1.7254,2.4211,2.4211,2.4211,2.4211,2.4211,2.4211,2.4211,2.4211,2.4192,2.3822,2.3297,2.2986,2.2584,2.2071,2.176,2.1696,2.1687,2.1687,2.1687,2.1687,2.1687,2.1687,2.1687,2.1449,2.13,2.108,2.0677,2.0182,1.961,1.9412,1.9347,1.9301,1.9292,1.9402,1.9586,1.965,1.9742,1.9815,1.9742,1.9622,1.9586,1.9448,1.9311,1.9292,1.9292,1.9191,1.9081,1.9017,1.8935,1.8742,1.854,1.842,1.8256,1.7944,1.7532,1.7578,1.7715,1.7816,1.7825,1.8008,1.8136,1.8394,1.8421,1.854,1.8669,1.877,1.8696,1.8705,1.8733,1.8742,1.876,1.8705,1.8834,1.8935,1.8825,1.8916,1.9127,1.9091,1.8898,1.8687,1.8722,1.8749,1.8815,1.8738,1.8645,1.8531,1.8418,1.7956,1.7355,1.7257,1.7141,1.6798,1.6417,1.6061,1.5999,1.5554,1.5213,1.5373,1.5245,1.5062,1.4959,1.4898,1.474,1.474,1.5217,1.6203,1.6892,1.7566,1.778,1.7904,1.7812,1.775,1.7688,1.7699,1.7812,2.4211,2.4211,2.4211,2.4211,2.4211,2.4211,2.4211,2.4211,2.4211,2.3859,2.3361,2.3032,2.262,2.2172,2.1861,2.1687,2.1687,2.1687,2.1687,2.1687,2.1687,2.1687,2.1687,2.165,2.1513,2.1319,2.1053,2.0698,2.0049,1.9628,1.9512,1.9577,1.954,1.9641,1.993,2.0012,2.0241,2.0259,2.0237,1.9994,1.982,1.9613,1.9366,1.9311,1.9292,1.9292,1.9246,1.9246,1.9246,1.9146,1.899,1.8825,1.8779,1.8493,1.8329,1.831,1.8293,1.821,1.8228,1.8356,1.8595,1.8806,1.8825,1.8999,1.9136,1.9164,1.9228,1.9292,1.9256,1.9219,1.9173,1.9256,1.9265,1.9256,1.9256,1.9283,1.9265,1.9246,1.9228,1.9173,1.9292,1.9237,1.9127,1.9118,1.8939,1.8939,1.8834,1.8822,1.8323,1.8372,1.8254,1.7878,1.7473,1.6874,1.6539,1.6146,1.5954,1.6005,1.5747,1.5404,1.5324,1.5276,1.5152,1.5142,1.6139,1.7093,1.7784,1.8165,1.8215,1.8197,1.8079,1.8123,1.8257,1.8268,1.8277,2.4211,2.4211,2.4211,2.4211,2.4211,2.4211,2.4211,2.4211,2.4211,2.3712,2.3123,2.2904,2.2492,2.1916,2.1751,2.1687,2.1687,2.1687,2.1687,2.1687,2.1687,2.1687,2.1687,2.1687,2.1659,2.1485,2.1282,2.0888,2.0451,2.0049,1.9985,2.0163,1.9957,2.0012,2.0369,2.0406,2.0475,2.0479,2.0442,2.025,1.9998,1.9829,1.96,1.943,1.9301,1.9292,1.9292,1.9292,1.9292,1.9283,1.9246,1.9219,1.9219,1.9201,1.9173,1.9063,1.888,1.8603,1.8649,1.8861,1.9026,1.9136,1.9173,1.9246,1.9283,1.9292,1.9292,1.9292,1.9292,1.9292,1.9292,1.9292,1.9292,1.9292,1.9292,1.9292,1.9292,1.9292,1.9292,1.9292,1.9292,1.9292,1.9237,1.9265,1.9274,1.9283,1.9253,1.9222,1.9143,1.9073,1.9002,1.8598,1.8201,1.7617,1.731,1.6885,1.6704,1.6709,1.6343,1.5901,1.5789,1.5807,1.5863,1.6127,1.709,1.7621,1.7916,1.8174,1.8388,1.8573,1.862,1.8788,1.8963,1.8922,1.8745,2.3941,2.4202,2.4211,2.4211,2.4211,2.4211,2.4211,2.4211,2.4202,2.4009,2.3565,2.3068,2.2455,2.1806,2.1687,2.1687,2.1687,2.1687,2.1687,2.1687,2.1687,2.1687,2.1687,2.1687,2.1687,2.1641,2.1531,2.1421,2.101,2.057,2.0393,2.0433,2.0393,2.0457,2.0814,2.0851,2.1007,2.1037,2.0936,2.0659,2.0268,2.0012,1.9811,1.961,1.9448,1.9356,1.9329,1.9292,1.9292,1.9292,1.9292,1.9292,1.9292,1.9283,1.9283,1.9274,1.9155,1.9054,1.9072,1.921,1.9265,1.9292,1.9292,1.9283,1.9292,1.9292,1.9292,1.9292,1.9292,1.9292,1.9292,1.9292,1.9292,1.9292,1.9292,1.9292,1.9292,1.9292,1.9292,1.9292,1.9292,1.9292,1.9292,1.9292,1.9292,1.9292,1.9292,1.9253,1.9253,1.9222,1.9143,1.9054,1.8674,1.8267,1.8034,1.7757,1.7508,1.7431,1.7159,1.6738,1.6376,1.6346,1.6428,1.6813,1.757,1.7937,1.81,1.8459,1.8936,1.9085,1.9198,1.9241,1.9231,1.9187,1.9095,2.373,2.4055,2.4156,2.4211,2.4211,2.4211,2.4211,2.4211,2.4211,2.4082,2.3666,2.294,2.2227,2.1815,2.1687,2.1687,2.1687,2.1687,2.1687,2.1687,2.1687,2.1687,2.1687,2.1687,2.1687,2.1687,2.1659,2.1614,2.1467,2.1156,2.0836,2.0763,2.0698,2.0906,2.1163,2.1282,2.1348,2.1531,2.1348,2.1062,2.0695,2.0369,2.0195,2.0026,1.9797,1.9604,1.9595,1.9632,1.9641,1.965,1.954,1.9522,1.9503,1.9384,1.9311,1.9292,1.9237,1.9246,1.9237,1.9283,1.9292,1.9292,1.9292,1.9292,1.9292,1.9292,1.9292,1.9292,1.9292,1.9292,1.9292,1.9292,1.9292,1.9292,1.9292,1.9292,1.9292,1.9292,1.9292,1.9292,1.9292,1.9292,1.9292,1.9292,1.9292,1.9292,1.9292,1.9292,1.9292,1.9292,1.9253,1.9183,1.9045,1.8731,1.8669,1.8479,1.8304,1.8072,1.7797,1.752,1.714,1.6982,1.7022,1.7544,1.8258,1.8805,1.9226,1.9371,1.9496,1.9528,1.9528,1.9416,1.9374,1.9384,1.9417,2.3508,2.362,2.3987,2.4192,2.4211,2.4211,2.4211,2.4211,2.4211,2.3767,2.3105,2.2263,2.1943,2.1733,2.1705,2.1687,2.1687,2.1687,2.1687,2.1687,2.1687,2.1687,2.1687,2.1687,2.1687,2.1687,2.1687,2.1687,2.1678,2.1568,2.1504,2.1568,2.1165,2.1321,2.1476,2.154,2.1568,2.1687,2.1577,2.1403,2.1163,2.0943,2.0787,2.053,2.0438,2.0429,2.042,2.0319,2.0283,2.0255,2.0026,1.9879,1.9833,1.9641,1.9522,1.9512,1.9503,1.9485,1.943,1.9329,1.9292,1.9292,1.9292,1.9292,1.9292,1.9292,1.9292,1.9292,1.9292,1.9292,1.9292,1.9292,1.9292,1.9292,1.9292,1.9292,1.9292,1.9292,1.9292,1.9292,1.9292,1.9292,1.9292,1.9292,1.9292,1.9292,1.9292,1.9292,1.9292,1.9292,1.9292,1.9253,1.9253,1.9164,1.9183,1.8993,1.8714,1.8482,1.8241,1.808,1.7874,1.7795,1.7909,1.8572,1.9335,1.9836,2.0281,2.0336,2.0294,1.9983,1.9836,1.9864,1.9719,1.9646,1.9691,2.3041,2.3508,2.3721,2.3923,2.4211,2.4211,2.4211,2.4211,2.4202,2.3859,2.3224,2.2693,2.2291,2.2053,2.1769,2.1687,2.1687,2.1687,2.1687,2.1687,2.1687,2.1687,2.1687,2.1687,2.1687,2.1687,2.1687,2.1687,2.1687,2.1687,2.1687,2.1614,2.1476,2.1549,2.1659,2.1687,2.1687,2.1687,2.1687,2.1577,2.152,2.1218,2.1034,2.0906,2.0543,2.0539,2.0503,2.0512,2.0521,2.0503,2.0383,2.0319,2.0232,2.0072,1.9998,1.998,1.9971,1.9879,1.9632,1.9467,1.9301,1.9292,1.9292,1.9292,1.9292,1.9292,1.9292,1.9292,1.9292,1.9292,1.9292,1.9292,1.9292,1.9292,1.9292,1.9292,1.9292,1.9292,1.9292,1.9292,1.9292,1.9292,1.9292,1.9292,1.9292,1.9292,1.9292,1.9292,1.9292,1.9292,1.9292,1.9292,1.9292,1.9292,1.9262,1.9152,1.9033,1.8882,1.8683,1.8523,1.8482,1.8957,1.9176,1.983,2.0428,2.1046,2.1366,2.1316,2.108,2.0716,2.0525,2.0466,2.0258,2.0037,2.0039,2.2611,2.3142,2.3389,2.3776,2.4183,2.4211,2.4211,2.4211,2.4211,2.3923,2.3462,2.2977,2.2565,2.2227,2.1879,2.1696,2.1687,2.1687,2.1687,2.1687,2.1687,2.1687,2.1687,2.1687,2.1687,2.1687,2.1687,2.1687,2.1687,2.1687,2.1687,2.1687,2.1687,2.1678,2.1678,2.1687,2.1687,2.1687,2.1687,2.1687,2.1623,2.144,2.1275,2.1282,2.1028,2.0936,2.0946,2.0964,2.0936,2.0882,2.0814,2.0662,2.0649,2.0594,2.0539,2.053,2.0503,2.0383,2.004,1.9622,1.932,1.9292,1.9292,1.9292,1.9292,1.9292,1.9292,1.9292,1.9292,1.9292,1.9292,1.9292,1.9292,1.9292,1.9292,1.9292,1.9292,1.9292,1.9292,1.9292,1.9292,1.9292,1.9292,1.9292,1.9292,1.9292,1.9292,1.9292,1.9292,1.9292,1.9292,1.9292,1.9292,1.9292,1.9292,1.9222,1.9143,1.9152,1.8993,1.8922,1.9033,1.952,1.9883,2.008,2.0807,2.2042,2.2286,2.1965,2.1667,2.1368,2.1203,2.104,2.0967,2.0767,2.0595,2.2337,2.24,2.3151,2.3758,2.4156,2.4202,2.4211,2.4211,2.4202,2.395,2.3489,2.2794,2.2446,2.23,2.2071,2.1916,2.1888,2.1842,2.1833,2.1879,2.1833,2.176,2.1723,2.1733,2.1687,2.1687,2.1687,2.1687,2.1687,2.1687,2.1687,2.1687,2.1687,2.1687,2.1687,2.1687,2.1687,2.1687,2.1687,2.1687,2.1668,2.1614,2.1586,2.1549,2.1504,2.1421,2.1421,2.1421,2.1412,2.1394,2.1218,2.1117,2.1089,2.0781,2.0704,2.0668,2.064,2.0576,2.0438,1.9723,1.9366,1.9292,1.9292,1.9292,1.9292,1.9292,1.9292,1.9292,1.9292,1.9292,1.9292,1.9292,1.9292,1.9292,1.9292,1.9292,1.9292,1.9292,1.9292,1.9292,1.9292,1.9292,1.9292,1.9292,1.9292,1.9292,1.9292,1.9292,1.9292,1.9292,1.9292,1.9292,1.9292,1.9292,1.9292,1.9292,1.9253,1.9301,1.9262,1.9152,1.9381,1.9805,2.0089,2.0274,2.1118,2.2252,2.244,2.2462,2.2226,2.2002,2.171,2.1566,2.1535,2.1416,2.1143,2.2324,2.2612,2.297,2.3334,2.3767,2.4101,2.4211,2.4211,2.4192,2.4119,2.3868,2.3354,2.3087,2.2959,2.2666,2.2446,2.2465,2.2501,2.2492,2.2437,2.2217,2.2108,2.2025,2.1851,2.1723,2.1687,2.1687,2.1687,2.1687,2.1687,2.1687,2.1687,2.1687,2.1687,2.1687,2.1687,2.1687,2.1687,2.1687,2.1687,2.1687,2.1687,2.1687,2.1687,2.1687,2.1687,2.1687,2.1687,2.1687,2.1687,2.1449,2.144,2.144,2.1211,2.1229,2.1248,2.1248,2.1034,2.053,1.9815,1.9329,1.9292,1.9292,1.9292,1.9292,1.9292,1.9292,1.9292,1.9292,1.9292,1.9292,1.9292,1.9292,1.9292,1.9292,1.9292,1.9292,1.9292,1.9292,1.9292,1.9292,1.9292,1.9292,1.9292,1.9292,1.9292,1.9292,1.9292,1.9292,1.9292,1.9292,1.9292,1.9292,1.9292,1.9292,1.9292,1.9292,1.9292,1.9301,1.9262,1.9569,2.0001,2.0518,2.0809,2.1606,2.2365,2.2553,2.2729,2.2761,2.2611,2.2266,2.2084,2.2062,2.1843,2.1494,2.2335,2.2535,2.2751,2.3016,2.3391,2.3923,2.4211,2.4211,2.4211,2.4211,2.411,2.3721,2.3471,2.3361,2.3114,2.2913,2.2913,2.2904,2.2895,2.2867,2.2648,2.2529,2.2373,2.2117,2.198,2.187,2.1742,2.1687,2.1687,2.1687,2.1687,2.1687,2.1696,2.1687,2.1687,2.1687,2.1687,2.1687,2.1687,2.1687,2.1687,2.1687,2.1687,2.1687,2.1687,2.1687,2.1687,2.1687,2.1687,2.1687,2.1687,2.1687,2.1687,2.1687,2.1687,2.1687,2.152,2.1099,2.0338,1.9943,1.9522,1.932,1.9301,1.9292,1.9292,1.9292,1.9292,1.9292,1.9311,1.9329,1.9347,1.9338,1.9366,1.9375,1.9347,1.9356,1.9366,1.9366,1.9366,1.9356,1.9347,1.9329,1.9347,1.9292,1.9292,1.9292,1.9292,1.932,1.9338,1.9301,1.9301,1.9292,1.9292,1.9292,1.9292,1.9292,1.9292,1.9292,1.9332,1.9371,1.9687,2.0079,2.0712,2.1377,2.2025,2.259,2.2852,2.2979,2.292,2.2866,2.2728,2.2586,2.2564,2.2302,2.1964,2.2318,2.2206,2.2535,2.2806,2.3024,2.3806,2.4165,2.4202,2.4211,2.4211,2.4174,2.3758,2.359,2.348,2.3151,2.3059,2.3078,2.3068,2.3078,2.3032,2.2986,2.294,2.2785,2.2519,2.2355,2.2181,2.2071,2.1998,2.1787,2.1925,2.1916,2.1769,2.1815,2.1815,2.1815,2.1733,2.1714,2.1687,2.1687,2.1687,2.1687,2.1687,2.1687,2.1687,2.1687,2.1687,2.1687,2.1687,2.1687,2.1687,2.1687,2.1687,2.1687,2.1687,2.1687,2.1586,2.1365,2.0796,2.0338,2.0081,1.9833,1.9622,1.9485,1.9384,1.932,1.9366,1.9457,1.9448,1.9467,1.9448,1.9439,1.9476,1.9512,1.9494,1.9457,1.9467,1.9476,1.9476,1.9476,1.9467,1.9448,1.9467,1.9567,1.9531,1.9531,1.9659,1.9705,1.9668,1.9622,1.9338,1.9329,1.9292,1.9292,1.9292,1.9292,1.9292,1.9292,1.9292,1.949,1.9569,1.9883,2.0157,2.0712,2.1367,2.2289,2.2777,2.2964,2.3001,2.299,2.2936,2.2881,2.287,2.2772,2.2826,2.2641,2.2662,2.2631,2.2841,2.285,2.2843,2.3421,2.3877,2.4183,2.4211,2.4211,2.4192,2.4082,2.3941,2.3999,2.3908,2.3785,2.3785,2.3804,2.3822,2.3712,2.3474,2.3361,2.3187,2.294,2.2776,2.2684,2.2593,2.2455,2.2529,2.2519,2.2309,2.2163,2.2162,2.2117,2.2025,2.1851,2.1797,2.1733,2.1751,2.1687,2.1687,2.1687,2.1687,2.1687,2.1687,2.1687,2.1687,2.1687,2.1687,2.1687,2.1687,2.1687,2.1687,2.1687,2.1687,2.1641,2.1374,2.0979,2.0759,2.0493,2.0246,2.0127,2.0118,1.976,1.9613,1.9577,1.9732,1.9742,1.976,1.9787,1.9888,1.9952,1.9962,1.9934,1.9916,1.9916,1.9925,1.9925,1.9916,1.9897,1.9861,1.9824,1.9907,1.9842,1.987,2.0053,2.0127,2.0072,1.9907,1.9622,1.9448,1.9421,1.9292,1.9292,1.9332,1.9332,1.9292,1.9332,1.9648,1.9844,1.9883,2.0196,2.0712,2.1443,2.2392,2.2815,2.3001,2.3001,2.3001,2.3001,2.2957,2.2979,2.3001,2.3001,2.3001,2.2882,2.2832,2.2875,2.2851,2.2887,2.3269,2.3666,2.4003,2.4153,2.4251,2.4291,2.4192,2.4211,2.4183,2.4165,2.4165,2.4156,2.4119,2.4128,2.4055,2.3895,2.3831,2.3657,2.3352,2.3178,2.3105,2.2986,2.2803,2.2931,2.2895,2.2702,2.2556,2.2519,2.2519,2.2474,2.2364,2.2245,2.2089,2.1934,2.1751,2.1714,2.1714,2.1696,2.1705,2.1705,2.1687,2.1687,2.1687,2.1687,2.1687,2.1687,2.1687,2.1687,2.1687,2.1531,2.1458,2.1273,2.0989,2.0769,2.0613,2.0539,2.0576,2.0659,2.0402,2.0145,2.0053,2.0085,2.0122,2.014,2.0186,2.0383,2.0512,2.0503,2.0493,2.0484,2.0433,2.0433,2.0424,2.0406,2.0387,2.0342,2.0328,2.0232,2.0168,2.014,2.031,2.0374,2.0356,2.0173,1.9857,1.9732,1.9668,1.9448,1.9292,1.9341,1.9478,1.9608,1.9805,2.0274,2.0391,2.0206,2.0547,2.1328,2.1939,2.2531,2.2804,2.3001,2.3001,2.3001,2.3001,2.3001,2.3001,2.3001,2.3001,2.3001,2.3013,2.2803,2.2794,2.2875,2.303,2.3214,2.3467,2.3749,2.4042,2.423,2.434,2.4181,2.4104,2.4095,2.4064,2.4137,2.4174,2.4211,2.4211,2.4211,2.4146,2.411,2.3969,2.3794,2.3629,2.3416,2.3288,2.3197,2.3041,2.3087,2.316,2.2959,2.295,2.295,2.2922,2.2785,2.2675,2.2593,2.2263,2.1989,2.1897,2.1824,2.1742,2.176,2.1733,2.1687,2.1687,2.1687,2.1687,2.1687,2.1687,2.1687,2.1687,2.1678,2.1476,2.1401,2.1291,2.1145,2.0989,2.0817,2.0796,2.0842,2.0934,2.0906,2.0778,2.0539,2.0558,2.0567,2.0576,2.0662,2.086,2.0891,2.0909,2.0927,2.0936,2.0918,2.09,2.0918,2.0927,2.0863,2.0741,2.0714,2.0763,2.0708,2.0686,2.0677,2.075,2.0769,2.0594,2.0287,2.0085,2.0008,1.9714,1.9512,1.9559,1.9748,2.0029,2.0352,2.0858,2.0934,2.0741,2.128,2.2025,2.2429,2.2804,2.2879,2.3001,2.3012,2.3012,2.3001,2.3001,2.3001,2.3012,2.3056,2.3001,2.3047,2.3013,2.2891,2.299,2.3255,2.3161,2.3388,2.3914,2.3852,2.3815,2.3871,2.3662,2.3753,2.4013,2.3846,2.3917,2.4174,2.4202,2.4211,2.4211,2.4211,2.4211,2.4211,2.4064,2.3969,2.4036,2.3868,2.3648,2.3453,2.3602,2.3666,2.338,2.3352,2.3352,2.3334,2.3178,2.3023,2.3041,2.284,2.262,2.2602,2.2309,2.2181,2.2044,2.1961,2.176,2.1733,2.1696,2.1696,2.1687,2.1687,2.1687,2.1687,2.1687,2.1641,2.1603,2.1495,2.1385,2.133,2.1248,2.1248,2.1321,2.1431,2.1449,2.1392,2.1126,2.097,2.097,2.1025,2.1172,2.1238,2.1284,2.133,2.1366,2.1403,2.1366,2.1339,2.1376,2.1412,2.1266,2.1117,2.1101,2.1202,2.122,2.1227,2.1291,2.1376,2.1394,2.1229,2.0991,2.0695,2.0484,2.0003,1.9865,1.9885,2.0141,2.0493,2.0889,2.1357,2.1393,2.1379,2.2022,2.2732,2.2789,2.3001,2.3187,2.3252,2.3045,2.3045,2.3187,2.3241,2.334,2.3241,2.3241,2.3099,2.3101,2.3091,2.2969,2.3061,2.32,2.3006,2.3185,2.3503,2.3369,2.3334,2.3475,2.3493,2.3702,2.3982,2.3788,2.3885,2.4227,2.4251,2.4202,2.4211,2.4211,2.4211,2.4211,2.4211,2.4183,2.4202,2.4192,2.4005,2.3859,2.3941,2.396,2.3813,2.3804,2.3785,2.3767,2.3574,2.3455,2.3501,2.3446,2.3446,2.3363,2.2969,2.2593,2.2446,2.2227,2.2007,2.187,2.1824,2.1696,2.1687,2.1687,2.1687,2.1687,2.1687,2.1687,2.1678,2.1668,2.1687,2.1687,2.1687,2.1687,2.1687,2.1687,2.1595,2.1604,2.141,2.1401,2.1392,2.1392,2.1476,2.1485,2.1531,2.154,2.1559,2.1568,2.1559,2.154,2.1559,2.1577,2.1522,2.1412,2.1421,2.1485,2.1485,2.1458,2.1458,2.1659,2.1668,2.1577,2.1504,2.1255,2.1022,2.0633,2.0306,2.0214,2.0583,2.1076,2.1501,2.1932,2.2413,2.2688,2.2984,2.3343,2.3552,2.3678,2.3744,2.3722,2.3514,2.3624,2.3864,2.3831,2.3766,2.3624,2.3536,2.3591,2.3101,2.3101,2.3091,2.3101,2.3101,2.2935,2.2955,2.3096,2.2945,2.3003,2.3246,2.3494,2.387,2.4004,2.4011,2.4195,2.4312,2.4344,2.4282,2.4251,2.4251,2.4202,2.4211,2.4211,2.4211,2.4211,2.4202,2.4202,2.4146,2.4202,2.4202,2.4211,2.4211,2.4202,2.4211,2.4183,2.4091,2.4045,2.4036,2.4119,2.3822,2.3455,2.3105,2.284,2.2611,2.2428,2.2291,2.2099,2.1888,2.1842,2.187,2.176,2.1705,2.1687,2.1687,2.1687,2.1687,2.1687,2.1687,2.1687,2.1687,2.1687,2.1687,2.1687,2.1687,2.1678,2.1668,2.1659,2.1659,2.1668,2.1687,2.1687,2.1687,2.1687,2.1687,2.1687,2.1687,2.1687,2.1687,2.1687,2.1687,2.1678,2.1678,2.1668,2.1678,2.1687,2.1687,2.1687,2.1668,2.1632,2.1476,2.1477,2.1358,2.1074,2.0734,2.1157,2.1742,2.2201,2.267,2.3398,2.3935,2.3902,2.4061,2.4444,2.4574,2.4334,2.4279,2.417,2.4334,2.4432,2.4257,2.4104,2.4148,2.4104,2.4268,2.3101,2.3101,2.3101,2.3101,2.3091,2.3047,2.3057,2.3091,2.3057,2.3276,2.3471,2.331,2.3355,2.3606,2.3728,2.3994,2.4483,2.4466,2.447,2.444,2.4301,2.4251,2.4211,2.4211,2.4211,2.4211,2.4211,2.4211,2.4211,2.4211,2.4211,2.4211,2.4211,2.4211,2.4211,2.4211,2.4211,2.4211,2.4211,2.4211,2.4101,2.3749,2.3471,2.3233,2.3004,2.2858,2.2757,2.2721,2.2684,2.2584,2.2346,2.2071,2.1943,2.1861,2.1824,2.1787,2.1778,2.1723,2.1733,2.1696,2.1687,2.1687,2.1687,2.1687,2.1687,2.1687,2.1678,2.1678,2.1678,2.1678,2.1687,2.1687,2.1687,2.1687,2.1687,2.1687,2.1687,2.1687,2.1687,2.1687,2.1687,2.1687,2.1687,2.1687,2.1687,2.1687,2.1687,2.1687,2.1687,2.1687,2.1687,2.1799,2.1879,2.1634,2.1235,2.1923,2.248,2.2931,2.3449,2.4191,2.4563,2.4469,2.4672,2.5022,2.4891,2.4585,2.4585,2.4781,2.4672,2.4694,2.4519,2.4432,2.457,2.465,2.4792]}]]